     2              OBSERVATION DATA    GPS                 RINEX VERSION / TYPE
teqc 2000Feb29 Ken Austin CWU Geolo20000719 21:34:39UTC     PGM / RUN BY / DATE
                                                            COMMENT
teqc windowed: delta = 86400.000 sec                        COMMENT
teqc windowed: delta = 86400.000 sec                        COMMENT
teqc windowed: delta = 86400.000 sec                        COMMENT
teqc windowed: delta = 86400.000 sec                        COMMENT
teqc windowed: delta = 86400.000 sec                        COMMENT
teqc windowed: delta = 86400.000 sec                        COMMENT
teqc windowed: delta = 86400.000 sec                        COMMENT
teqc windowed: delta = 86400.000 sec                        COMMENT
teqc windowed: delta = 86400.000 sec                        COMMENT
teqc windowed: delta = 86400.000 sec                        COMMENT
teqc windowed: delta = 86400.000 sec                        COMMENT
teqc windowed: delta = 86400.000 sec                        COMMENT
teqc windowed: delta = 86400.000 sec                        COMMENT
teqc windowed: delta = 86400.000 sec                        COMMENT
teqc windowed: delta = 86400.000 sec                        COMMENT
teqc windowed: delta = 86400.000 sec                        COMMENT
teqc windowed: delta = 86400.000 sec                        COMMENT
Original Marker Name: SILV SILVER LAKE                      COMMENT
Campaign Name: CWU 2000 Post-Hector                         COMMENT
4-Character Station Name: SILV                              COMMENT
6-Character Antenna Code: DMRCHT                            COMMENT
Vertical Measurement Point: BPA                             COMMENT
Vertical Offset to Rinex Ref. Point: 0.0000                 COMMENT
Radial Measurement Point: RRP                               COMMENT
Radial Offset to Rinex Ref. Point: 0.0000                   COMMENT
Antenna Height from Field Measurement: 0.0814 m             COMMENT
Additional Antenna Identification Info.:                    COMMENT
Turborogue and Ashtech Choke Ring                           COMMENT
Original XYZ: -2305711.8834 -4667045.7621 3674213.6325      COMMENT
New XYZ position is based on association with SCEC monument COMMENT
E1F4H0C8+0011. Position of that monument is believed to be  COMMENT
valid to within 1 m horizontally; vertical accuracy         COMMENT
should be no worse than 3-times this value.                 COMMENT
                                                            COMMENT
Revised Rinex header created by UCSD GPS archive for        COMMENT
GSAC on 10-Aug-2000 (2000:223) 02:26:21 GMT                 COMMENT
For assistance contact dagnew@ucsd.edu                      COMMENT
or anderson@python.ucsd.edu                                 COMMENT
                                                            COMMENT
NONE                                                        MARKER NAME
SILV                                                        MARKER NUMBER
KA CENTRAL WASHINGTON UNIVERSITY                            OBSERVER / AGENCY
220190415 TRIMBLE 4700 NP 1.20; SP 0.00                     REC # / TYPE / VERS
138192 DORNE-MARGOL. TYPE T                                 ANT # / TYPE
 -2305711.8269 -4667044.9294  3674211.6108                  APPROX POSITION XYZ
        0.0814        0.0000        0.0000                  ANTENNA: DELTA H/E/N
     1     1     0                                          WAVELENGTH FACT L1/2
     9    L1    L2    C1    P2    P1    D1    D2    S1    S2# / TYPES OF OBSERV
    30                                                      INTERVAL
  2000     7     4     0     0    0.000000                  TIME OF FIRST OBS
  2000     7     4    23    59   30.000000                  TIME OF LAST OBS
                                                            END OF HEADER
 00  7  4  0  0  0.0090000  0  8G20G21G30G29G11G15G25G31
  -1856543.63749  -1441767.55546  27396684.0604   27396685.7744
      2879.5314       2243.7914         38.2504         12.5004
 -17074159.91849 -13287549.94347  24401343.6854   24401343.7204
     -1529.2194      -1191.5994         45.7504         38.5004
   -534141.45349   -407260.23846  27573902.7314   27573906.4034
      1478.8134       1152.3214         36.0004         16.2504
 -12924036.89549 -10051297.25447  24526805.6304   24526804.7704
     -2216.0314      -1726.7784         47.2504         38.5004
 -16802659.89849 -13079253.71348  24166346.9504   24166345.0604
      1509.0004       1175.8444         48.5004         40.2504
 -19106458.31649 -14819386.82948  23532774.0604   23532773.3414
     -2557.6414      -1992.9674         49.5004         43.0004
 -18586775.04349 -14459837.51948  23837207.3804   23837205.8374
      1729.1254       1347.3704         54.2504         44.5004
   3354826.10949   2621438.47646  27626014.1384   27626022.4854
     -2648.5314      -2063.7914         41.0004         21.7504
 00  7  4  0  0 30.0090000  0  8G20G21G30G29G11G15G25G31
  -1942947.85248  -1509095.41446  27380240.5284   27380243.2004
      2880.8134       2244.7894         35.0004         15.5004
 -17028138.03549 -13251688.80147  24410101.2864   24410100.9074
     -1538.8594      -1199.1114         45.7504         38.2504
   -578343.71948   -441703.41446  27565490.8104   27565494.7744
      1467.8284       1143.7624         35.2504         16.7504
 -12857497.36749  -9999448.31647  24539467.4814   24539467.2314
     -2219.8754      -1729.7734         46.7504         38.5004
 -16847674.93449 -13114330.33548  24157780.8804   24157779.2084
      1492.0004       1162.5974         49.0004         40.0004
 -19029496.26649 -14759416.44848  23547419.6384   23547419.1344
     -2573.1564      -2005.0574         50.0004         43.2504
 -18638417.66049 -14500078.47048  23827380.1384   23827379.1344
      1713.6884       1335.3414         54.0004         44.5004
   3434288.27049   2683356.61446  27641136.9114   27641144.4584
     -2648.8914      -2064.0714         43.2504         24.0004
 00  7  4  0  1  0.0090000  0  8G20G21G30G29G11G15G25G31
  -2029391.26249  -1576453.69946  27363791.2704   27363793.6534
      2882.1724       2245.8484         38.0004         15.5004
 -16981824.85949 -13215600.65947  24418914.4194   24418914.0404
     -1548.5784      -1206.6844         45.7504         38.0004
   -622221.43048   -475893.75446  27557140.6454   27557144.9034
      1457.2344       1135.5074         34.5004         17.2504
 -12790843.27749  -9947510.11847  24552151.2244   24552150.6304
     -2223.6254      -1732.6954         49.7504         39.0004
 -16892181.24249 -13149010.55248  24149311.5284   24149309.8764
      1475.0944       1149.4244         48.2504         40.0004
 -18952072.40649 -14699086.22948  23562152.7314   23562152.0714
     -2588.4064      -2016.9404         49.7504         42.7504
 -18689599.38349 -14539960.27048  23817640.7004   23817639.8564
      1698.4384       1323.4584         53.5004         44.5004
   3513756.60249   2745279.66546  27656258.6304   27656266.9544
     -2648.8914      -2064.0714         42.0004         21.2504
 00  7  4  0  1 30.0090000  0  8G20G21G30G29G11G15G25G31
  -2115876.58249  -1643844.76546  27347334.4354   27347336.2354
      2883.3444       2246.7614         39.2504         18.2504
 -16935223.73049 -13179288.14347  24427782.5054   24427782.3174
     -1558.2504      -1214.2214         46.5004         38.2504
   -665775.66448   -509831.99246  27548852.1224   27548856.7594
      1446.3914       1127.0584         35.0004         16.2504
 -12724079.65649  -9895486.54747  24564856.3174   24564855.6654
     -2227.3914      -1735.6294         49.7504         38.5004
 -16936180.68749 -13183295.80948  24140938.7634   24140937.2474
      1458.0634       1136.1534         47.7504         40.7504
 -18874192.56249 -14638400.69948  23576973.1534   23576972.6344
     -2603.6414      -2028.8114         48.5004         43.5004
 -18740321.93749 -14579484.27648  23807988.3024   23807987.2744
      1683.0004       1311.4294         55.0004         45.0004
   3593224.76649   2807202.50846  27671381.3644   27671389.9894
     -2649.0164      -2064.1684         37.5004         21.5004
 00  7  4  0  2  0.0090000  0  8G20G21G30G29G11G15G25G31
  -2202401.71149  -1711266.75846  27330869.4744   27330870.6924
      2884.8284       2247.9184         38.0004         17.2504
 -16888332.45349 -13142749.54147  24436705.3024   24436705.1854
     -1567.9224      -1221.7574         46.0004         37.5004
   -709002.48448   -543515.18246  27540627.6144   27540631.3024
      1435.3134       1118.4254         35.0004         18.5004
 -12657205.97349  -9843377.23147  24577582.0994   24577581.0484
     -2230.9534      -1738.4054         49.2504         38.7504
 -16979670.08249 -13217183.60948  24132663.1454   24132661.7704
      1441.1254       1122.9554         48.0004         40.5004
 -18795857.37949 -14577360.35148  23591879.7474   23591879.1024
     -2618.7344      -2040.5724         48.0004         43.5004
 -18790582.41449 -14618648.21748  23798423.9504   23798422.8494
      1667.6254       1299.4484         55.2504         45.0004
   3672691.45349   2869124.34446  27686504.0524   27686511.1774
     -2648.7194      -2063.9374         37.7504         17.2504
 00  7  4  0  2 30.0090000  0  8G20G21G30G29G11G15G25G31
  -2288963.34049  -1778717.18046  27314397.1144   27314398.4154
      2886.1414       2248.9414         37.5004         17.2504
 -16841147.83249 -13105982.36647  24445684.3254   24445684.6384
     -1577.6874      -1229.3674         48.2504         38.0004
   -751896.61348   -576939.00046  27532464.1774   27532468.6574
      1424.1564       1109.7324         35.0004         20.0004
 -12590220.90649  -9791181.10647  24590328.7084   24590328.3024
     -2234.5474      -1741.2054         49.7504         38.5004
 -17022644.85549 -13250670.43948  24124485.2784   24124483.1304
      1423.9224       1109.5504         49.7504         40.2504
 -18717066.22749 -14515964.70648  23606873.0754   23606872.7394
     -2633.8444      -2052.3464         50.0004         43.5004
 -18840376.48849 -14657448.74048  23788948.4194   23788947.1694
      1652.0944       1287.3464         53.7504         44.7504
   3752156.94549   2931045.19446  27701625.9894   27701633.8214
     -2648.6874      -2063.9124         40.2504         21.0004
 00  7  4  0  3  0.0090000  0  8G20G21G30G29G11G15G25G31
  -2375559.77749  -1846194.78546  27297918.3884   27297919.0054
      2887.0634       2249.6594         39.5004         12.5004
 -16793668.50049 -13068985.55247  24454719.1854   24454719.6064
     -1587.5474      -1237.0504         47.7504         37.7504
   -794454.62148   -610101.06646  27524367.2394   27524369.7044
      1413.3594       1101.3194         35.0004         17.2504
 -12523124.92649  -9738898.55647  24603096.5674   24603095.7944
     -2238.3284      -1744.1524         50.7504         37.5004
 -17065102.63749 -13283754.39848  24116405.9974   24116403.4774
      1406.6724       1096.1084         49.0004         40.7504
 -18637820.27049 -14454214.67448  23621953.3024   23621952.4274
     -2649.0624      -2064.2054         50.2504         43.0004
 -18889701.64149 -14695883.86948  23779562.1534   23779561.1104
      1636.4064       1275.1224         54.5004         45.0004
   3831619.02349   2992963.36146  27716748.3174   27716755.6534
     -2648.6724      -2063.9004         38.5004         21.5004
 00  7  4  0  3 30.0090000  0  8G20G21G30G29G11G15G25G31
  -2462198.13749  -1913705.01646  27281431.5604   27281432.5604
      2888.6724       2250.9134         38.0004         16.7504
 -16745901.87149 -13031764.86847  24463809.4114   24463809.2944
     -1597.0944      -1244.4894         47.0004         37.5004
   -836681.69549   -643005.21146  27516331.1454   27516334.0324
      1401.5944       1092.1514         36.2504         16.7504
 -12455927.00449  -9686536.58247  24615883.9584   24615882.9504
     -2241.6564      -1746.7454         49.2504         39.0004
 -17107049.64549 -13316440.35048  24108423.5134   24108422.0524
      1389.6724       1082.8614         48.5004         41.0004
 -18558129.85549 -14392118.30748  23637117.9034   23637117.6184
     -2663.7664      -2075.6624         50.0004         42.7504
 -18938564.62549 -14733958.85348  23770263.7164   23770262.6144
      1621.0474       1263.1534         54.5004         45.0004
   3911066.95749   3054870.38446  27731865.5914   27731874.3644
     -2647.8914      -2063.2914         37.0004         20.0004
 00  7  4  0  4  0.0090000  0  8G20G21G30G29G11G15G25G31
  -2548871.21549  -1981242.28746  27264937.0054   27264939.0794
      2889.6414       2251.6684         38.0004         18.2504
 -16697841.39149 -12994315.20247  24472955.0834   24472955.4584
     -1607.0004      -1252.2084         47.7504         37.5004
   -878568.79348   -675644.41446  27508359.7164   27508362.8414
      1390.4064       1083.4334         35.2504         16.2504
 -12388621.94949  -9634091.12247  24628691.8104   24628691.1454
     -2245.3914      -1749.6554         49.5004         38.5004
 -17148477.59849 -13348721.83948  24100540.0834   24100538.5284
      1372.1724       1069.2254         48.7504         41.0004
 -18477990.58649 -14329672.18448  23652368.1614   23652367.4354
     -2678.8754      -2087.4354         49.5004         43.0004
 -18986957.05549 -14771667.17448  23761054.9814   23761053.7244
      1605.1094       1250.7354         54.0004         45.0004
   3990504.28948   3116769.32146  27746982.4814   27746990.9034
     -2647.9844      -2063.3644         34.5004         19.2504
 00  7  4  0  4 30.0090000  0  8G20G21G30G29G11G15G25G31
  -2635575.11349  -2048803.57046  27248437.3254   27248439.7274
      2890.6884       2252.4844         37.2504         16.7504
 -16649483.28949 -12956633.63547  24482157.0914   24482157.3214
     -1616.9844      -1259.9884         45.7504         37.2504
   -920110.55948   -708014.49246  27500453.9194   27500457.9314
      1378.9384       1074.4974         35.7504         16.2504
 -12321207.67249  -9581560.54147  24641520.2004   24641520.2704
     -2249.0004      -1752.4684         50.0004         38.2504
 -17189381.86349 -13380595.27448  24092756.3334   24092754.7274
      1354.7194       1055.6254         48.2504         40.7504
 -18397401.75849 -14266875.74548  23667703.6454   23667703.3684
     -2693.8284      -2099.0874         49.7504         42.2504
 -19034874.44949 -14809005.35448  23751936.5524   23751935.2514
      1589.2344       1238.3644         54.0004         45.0004
   4069931.12949   3178659.99046  27762098.0524   27762105.5054
     -2647.4844      -2062.9754         36.7504         21.0004
 00  7  4  0  5  0.0090000  0  8G20G21G30G29G11G15G25G31
  -2722313.73049  -2116391.96146  27231932.7314   27231933.9424
      2891.8284       2253.3734         39.5004         17.7504
 -16600831.73049 -12918723.39047  24491415.3174   24491415.4624
     -1626.5784      -1267.4634         46.0004         37.2504
   -961308.84849   -740116.95346  27492613.5054   27492618.0754
      1367.4694       1065.5604         37.5004         16.2504
 -12253690.31649  -9528949.64147  24654368.2634   24654368.3024
     -2252.2664      -1755.0124         49.7504         38.2504
 -17229765.51249 -13412063.02248  24085071.0134   24085069.3524
      1337.4694       1042.1834         48.2504         40.5004
 -18316370.15649 -14203734.28848  23683123.3024   23683122.7784
     -2708.4064      -2110.4464         49.0004         42.7504
 -19082320.31249 -14845976.09048  23742908.0364   23742906.8374
      1573.6884       1226.2504         54.7504         45.2504
   4149340.34049   3240537.03546  27777208.0054   27777216.9624
     -2646.5474      -2062.2444         36.0004         17.7504
 00  7  4  0  5 30.0090000  0  8G20G21G30G29G11G15G25G31
  -2809084.87549  -2184005.61746  27215420.1224   27215421.5134
      2892.8444       2254.1644         38.5004         15.5004
 -16551884.45349 -12880582.73347  24500729.8024   24500729.6734
     -1636.5164      -1275.2074         49.0004         37.7504
  -1002159.43049   -771948.38446  27484840.9274   27484844.4774
      1355.7974       1056.4654         38.2504         18.5004
 -12186069.45749  -9476258.09247  24667236.3414   24667235.5634
     -2255.8444      -1757.8004         50.5004         38.5004
 -17269625.15649 -13443122.46648  24077486.1384   24077484.5244
      1319.8134       1028.4254         49.5004         40.7504
 -18234896.44149 -14140248.33748  23698627.2554   23698626.9854
     -2723.1724      -2121.9524         50.2504         42.5004
 -19129291.66049 -14882577.08348  23733969.7244   23733968.2514
      1557.7194       1213.8074         54.2504         45.2504
   4228730.72348   3302399.18946  27792316.2164   27792325.1424
     -2646.1254      -2061.9164         34.7504         18.5004
 00  7  4  0  6  0.0090000  0  8G20G21G30G29G11G15G25G31
  -2895886.67649  -2251643.33646  27198902.5604   27198903.4034
      2894.0314       2255.0894         38.5004         18.2504
 -16502640.27049 -12842210.71747  24510100.9504   24510101.2244
     -1646.2814      -1282.8174         47.0004         37.7504
  -1042658.97749   -803506.33846  27477133.5604   27477137.4034
      1344.2504       1047.4684         39.0004         18.2504
 -12118345.17649  -9423485.94047  24680123.8414   24680123.5634
     -2259.0474      -1760.2964         50.2504         38.5004
 -17308958.19949 -13473771.56348  24070001.2704   24069999.8804
      1302.3914       1014.8504         48.5004         40.7504
 -18152981.89849 -14076418.88048  23714215.1614   23714214.6104
     -2737.6874      -2133.2634         49.5004         42.2504
 -19175785.71949 -14918806.15548  23725121.9974   23725120.7944
      1541.9534       1201.5224         54.2504         45.5004
   4308100.15248   3364245.17246  27807419.2084   27807429.2824
     -2645.2194      -2061.2094         34.5004         17.2504
 00  7  4  0  6 30.0090000  0  8G20G21G30G29G11G15G25G31
  -2982717.35549  -2319303.34146  27182379.1614   27182379.9154
      2894.9224       2255.7834         39.5004         18.5004
 -16453097.73449 -12803606.20947  24519528.3954   24519528.9624
     -1656.3444      -1290.6574         49.0004         37.5004
  -1082803.88349   -834788.01146  27469494.2634   27469497.9774
      1332.2814       1038.1414         38.7504         19.2504
 -12050517.74249  -9370633.41847  24693031.3564   24693030.6184
     -2262.5624      -1763.0364         49.5004         38.0004
 -17347762.24249 -13504008.46248  24062617.2864   24062615.8064
      1284.7664       1001.1164         48.2504         41.0004
 -18070627.56649 -14012246.73548  23729886.9274   23729886.3334
     -2752.3754      -2144.7084         49.5004         42.5004
 -19221800.25449 -14954661.58148  23716365.4504   23716364.2634
      1525.8754       1188.9944         53.7504         45.2504
   4387447.39849   3426073.85946  27822519.4894   27822528.1884
     -2644.3754      -2060.5524         36.7504         16.2504
 00  7  4  0  7  0.0090000  0  8G20G21G30G29G11G15G25G31
  -3069579.83249  -2386988.21546  27165849.4194   27165849.8644
      2895.6414       2256.3434         40.0004         17.7504
 -16403260.06649 -12764771.73147  24529012.3804   24529012.3954
     -1666.4694      -1298.5474         48.0004         37.2504
  -1122595.45349   -865794.31546  27461922.4664   27461925.3884
      1320.2664       1028.7784         38.5004         18.5004
 -11982591.91049  -9317704.22947  24705956.7864   24705956.2674
     -2266.1254      -1765.8124         49.5004         38.0004
 -17386039.35949 -13533834.76148  24055333.3494   24055331.4894
      1266.7974        987.1144         49.5004         40.5004
 -17987839.52049 -13947736.62948  23745640.9504   23745640.3954
     -2767.1094      -2156.1894         50.5004         42.2504
 -19267337.48449 -14990145.08548  23707700.2704   23707698.5994
      1509.6564       1176.3564         54.5004         45.2504
   4466765.71149   3487880.00446  27837613.7864   27837622.2394
     -2643.7664      -2060.0774         39.7504         17.2504
 00  7  4  0  7 30.0090000  0  8G20G21G30G29G11G15G25G31
  -3156469.50049  -2454694.27246  27149314.7314   27149315.7204
      2897.0164       2257.4154         40.0004         18.5004
 -16353123.26649 -12725704.15647  24538553.0134   24538553.0754
     -1676.0624      -1306.0234         49.5004         37.2504
  -1162027.60549   -896520.62546  27454418.2474   27454421.8994
      1308.6724       1019.7444         40.0004         19.5004
 -11914565.29349  -9264696.50647  24718901.9814   24718901.6814
     -2268.9374      -1768.0034         49.7504         37.2504
 -17423784.16049 -13563246.26648  24048150.6144   24048148.8644
      1249.4534        973.6004         48.5004         40.7504
 -17904616.41849 -13882887.52948  23761477.7474   23761477.5174
     -2781.0784      -2167.0744         49.2504         42.0004
 -19312392.15249 -15025252.56848  23699126.4894   23699125.1774
      1494.0004       1164.1564         55.0004         45.2504
   4546056.19549   3549664.47846  27852702.6064   27852711.6494
     -2642.1564      -2058.8234         39.2504         18.2504
 00  7  4  0  8  0.0090000  0  8G20G21G30G29G11G15G25G31
  -3243393.79349  -2522427.30946  27132773.1774   27132774.2704
      2897.9384       2258.1334         39.0004         19.5004
 -16302695.28549 -12686409.68747  24548149.2634   24548149.0284
     -1685.8914      -1313.6814         49.5004         37.2504
  -1201105.85249   -926971.00646  27446981.7864   27446985.4504
      1296.5944       1010.3334         39.5004         19.2504
 -11846447.08249  -9211617.41947  24731864.1534   24731864.1454
     -2272.2664      -1770.5974         49.2504         37.7504
 -17461003.32049 -13592248.18348  24041067.9114   24041066.4744
      1231.7344        959.7934         47.5004         40.7504
 -17820968.67649 -13817707.53548  23777395.4744   23777394.8724
     -2795.3914      -2178.2264         48.0004         42.0004
 -19356971.52349 -15059989.68248  23690643.2864   23690642.2044
      1477.8754       1151.5914         55.0004         45.5004
   4625307.75448   3611418.58646  27867783.1454   27867792.5714
     -2641.0624      -2057.9714         35.2504         16.7504
 00  7  4  0  8 30.0090000  0  8G20G21G30G29G11G15G25G31
  -3330345.21149  -2590181.48446  27116226.6224   27116227.7474
      2898.7974       2258.8034         39.7504         17.2504
 -16251968.35949 -12646882.27347  24557802.2244   24557802.3334
     -1695.9694      -1321.5344         50.0004         37.5004
  -1239820.93749   -957138.46146  27439614.8174   27439618.0484
      1284.3754       1000.8124         41.2504         17.7504
 -11778231.53549  -9158462.47347  24744845.2944   24744844.9154
     -2275.5164      -1773.1294         49.7504         37.5004
 -17497688.72349 -13620834.18248  24034087.1454   24034085.1064
      1213.8594        945.8644         48.5004         40.5004
 -17736891.83649 -13752193.18048  23793394.7554   23793394.4234
     -2809.7344      -2189.4034         49.0004         42.0004
 -19401067.56249 -15094350.16748  23682251.8104   23682250.8374
      1461.7194       1139.0024         54.7504         45.2504
   4704524.61749   3673145.60946  27882858.4504   27882867.4114
     -2640.0474      -2057.1794         37.7504         16.7504
 00  7  4  0  9  0.0090000  0  8G20G21G30G29G11G15G25G31
  -3417321.82449  -2657955.27146  27099676.0204   27099676.6884
      2899.7504       2259.5454         40.2504         19.5004
 -16200941.14549 -12607120.85947  24567512.3954   24567512.4624
     -1705.8124      -1329.2054         49.5004         37.2504
  -1278169.71549   -987020.46146  27432316.6304   27432320.2674
      1272.2664        991.3764         37.0004         17.7504
 -11709919.34449  -9105232.22647  24757844.7474   24757844.4974
     -2278.6094      -1775.5404         50.0004         37.5004
 -17533838.07849 -13649002.49048  24027207.9274   24027206.1694
      1196.0474        931.9854         49.5004         40.5004
 -17652387.55549 -13686345.75048  23809475.5524   23809475.2784
     -2823.7814      -2200.3494         50.7504         42.0004
 -19444677.84849 -15128332.15048  23673953.4194   23673951.9034
      1445.6724       1126.4984         55.0004         45.5004
   4783704.49248   3734843.87546  27897926.3644   27897935.3454
     -2638.6874      -2056.1204         35.0004         17.7504
 00  7  4  0  9 30.0090000  0  8G20G21G30G29G11G15G25G31
  -3504323.67649  -2725748.81646  27083119.9354   27083120.0914
      2900.5474       2260.1664         41.0004         18.5004
 -16149614.53949 -12567126.15747  24577279.4194   24577280.1384
     -1715.9694      -1337.1194         50.0004         36.7504
  -1316150.31649  -1016615.52546  27425089.2634   27425092.7164
      1259.9384        981.7694         38.5004         18.5004
 -11641511.93749  -9051927.78347  24770862.7314   24770861.9314
     -2281.7664      -1777.9994         49.7504         37.5004
 -17569450.46549 -13676752.37348  24020430.8414   24020429.4544
      1178.1094        918.0074         49.2504         41.0004
 -17567458.68049 -13620167.46748  23825636.9504   23825636.2634
     -2837.9534      -2211.3924         50.5004         42.5004
 -19487801.69149 -15161935.09348  23665747.0364   23665745.8024
      1429.3444       1113.7744         54.2504         45.5004
   4862844.26249   3796510.89546  27912986.2314   27912994.6384
     -2637.2344      -2054.9884         36.7504         15.5004
 00  7  4  0 10  0.0090000  0  8G20G21G30G29G11G15G25G31
  -3591354.66449  -2793564.95146  27066558.0604   27066559.0484
      2901.3444       2260.7874         42.0004         20.5004
 -16097992.81649 -12526901.50547  24587103.0604   24587103.2704
     -1725.8124      -1344.7894         49.5004         36.7504
  -1353765.16449  -1045925.69946  27417931.0134   27417934.8684
      1247.4694        972.0544         37.0004         17.7504
 -11573015.42649  -8998553.92847  24783896.6064   24783896.1424
     -2284.8914      -1780.4344         49.7504         37.2504
 -17604529.29749 -13704086.50948  24013755.5914   24013753.8804
      1160.2034        904.0544         50.0004         40.5004
 -17482112.62949 -13553664.12648  23841877.8174   23841877.0564
     -2851.9224      -2222.2774         50.7504         41.7504
 -19530442.98849 -15195162.02948  23657632.7244   23657630.9114
      1413.1254       1101.1364         54.2504         45.2504
   4941936.30149   3858140.71946  27928037.2474   27928046.1654
     -2635.7034      -2053.7954         36.2504         15.5004
 00  7  4  0 10 30.0090000  0  8G20G21G30G29G11G15G25G31
  -3678412.68749  -2861402.25946  27049991.3334   27049992.7594
      2902.5004       2261.6884         41.7504         20.7504
 -16046074.02749 -12486445.36047  24596983.1384   24596983.0244
     -1735.4064      -1352.2654         49.5004         36.5004
  -1391010.67649  -1074948.10646  27410844.3174   27410847.2314
      1235.5164        962.7394         40.2504         18.2504
 -11504429.59849  -8945110.45947  24796948.2864   24796948.0954
     -2287.4844      -1782.4554         49.5004         37.0004
 -17639071.64549 -13731002.60348  24007182.3644   24007181.0444
      1142.5474        890.2964         51.0004         40.5004
 -17396350.26249 -13486836.36748  23858198.1614   23858197.4544
     -2865.5004      -2232.8574         51.7504         42.0004
 -19572598.90249 -15228010.73848  23649610.5444   23649609.3134
      1397.2194       1088.7424         54.5004         46.0004
   5020979.37548   3919732.32846  27943079.5444   27943087.9584
     -2633.7194      -2052.2484         35.7504         15.5004
 00  7  4  0 11  0.0090000  0  8G20G21G30G29G11G15G25G31
  -3765492.35949  -2929256.37246  27033420.7164   27033421.5054
      2903.0314       2262.1024         41.2504         18.2504
 -15993853.52049 -12445754.11547  24606920.0364   24606920.5714
     -1745.7344      -1360.3124         49.2504         37.2504
  -1427879.93049  -1103677.28946  27403827.9354   27403830.9934
      1222.6094        952.6834         39.2504         17.2504
 -11435751.05549  -8891594.77347  24810017.4424   24810017.4624
     -2290.7974      -1785.0374         50.0004         37.5004
 -17673071.82449 -13757496.22648  24000712.5914   24000710.7394
      1124.2814        876.0634         51.7504         40.7504
 -17310169.59049 -13419682.66248  23874597.7784   23874597.4744
     -2879.6414      -2243.8764         51.7504         41.0004
 -19614263.73049 -15260476.78648  23641681.9814   23641680.6854
      1380.6564       1075.8364         54.2504         45.2504
   5099974.98849   3981287.00046  27958111.5994   27958120.8924
     -2632.4224      -2051.2384         37.7504         17.2504
 00  7  4  0 11 30.0090000  0  7G20G21G30G29G11G15G25
  -3852589.39849  -2997124.07846  27016846.7084   27016847.5754
      2903.4064       2262.3944         41.5004         19.0004
 -15941327.63349 -12404824.89747  24616915.1774   24616915.6064
     -1756.0784      -1368.3734         49.5004         36.5004
  -1464367.05949  -1132108.74446  27396884.4424   27396887.2354
      1209.7814        942.6874         39.5004         19.0004
 -11366977.67649  -8838005.16747  24823104.7004   24823104.2514
     -2294.0784      -1787.5934         49.5004         37.0004
 -17706525.20349 -13783563.77448  23994346.3804   23994345.0994
      1105.8284        861.6844         51.7504         40.5004
 -17223569.57449 -13352202.18648  23891077.3884   23891076.1144
     -2893.7344      -2254.8584         51.5004         41.7504
 -19655433.12549 -15292556.77848  23633847.6534   23633846.0994
      1363.9064       1062.7844         53.7504         45.5004
 00  7  4  0 12  0.0090000  0  7G20G21G30G29G11G15G25
  -3939699.49249  -3065001.94346  27000269.6614   27000270.7394
      2903.9384       2262.8084         42.5004         21.5004
 -15888492.83249 -12363654.98247  24626969.8174   24626970.2474
     -1766.2814      -1376.3234         48.5004         36.7504
  -1500466.06649  -1160237.65746  27390014.3644   27390017.7124
      1196.7974        932.5694         39.5004         19.5004
 -11298106.77349  -8784339.58347  24836210.1454   24836210.0564
     -2297.3594      -1790.1504         50.0004         36.7504
 -17739426.55949 -13809201.16748  23988085.8024   23988083.5094
      1087.4694        847.3784         51.7504         40.7504
 -17136548.97349 -13284394.01248  23907636.4424   23907636.3494
     -2907.6874      -2265.7314         51.5004         41.5004
 -19696102.03949 -15324246.79148  23626108.5134   23626106.7904
      1347.2664       1049.8174         54.0004         45.5004
 00  7  4  0 12 30.0090000  0  7G20G21G30G29G11G15G25
  -4026820.05149  -3132887.97946  26983691.0604   26983692.1774
      2904.3284       2263.1134         41.7504         21.5004
 -15835346.86349 -12322242.60047  24637083.1854   24637083.5404
     -1776.4694      -1384.2614         49.0004         36.7504
  -1536173.22749  -1188061.25846  27383220.2244   27383223.1774
      1183.8754        922.5004         40.0004         19.7504
 -11229137.93049  -8730597.67347  24849334.8414   24849334.2744
     -2300.4374      -1792.5494         49.2504         37.0004
 -17771773.18049 -13834406.31748  23981930.1854   23981928.2944
      1069.1094        833.0724         51.7504         41.2504
 -17049108.50049 -13216258.64448  23924276.0134   23924275.8414
     -2921.4534      -2276.4574         51.5004         41.0004
 -19736267.94149 -15355544.84148  23618465.2634   23618463.1264
      1330.6564       1036.8754         54.5004         45.5004
 00  7  4  0 13  0.0090000  0  7G20G21G30G29G11G15G25
  -4113952.47349  -3200783.23146  26967110.8334   26967110.8454
      2904.6254       2263.3444         42.5004         21.7504
 -15781891.69949 -12280589.29147  24647255.4114   24647255.6654
     -1786.9064      -1392.3944         49.0004         36.5004
  -1571488.45749  -1215579.52246  27376499.6854   27376502.7824
      1170.7034        912.2364         40.0004         19.7504
 -11160074.51249  -8676782.09647  24862477.0994   24862476.7354
     -2303.6254      -1795.0324         49.5004         36.5004
 -17803565.95749 -13859179.89848  23975880.5134   23975878.4704
      1050.5474        818.6084         50.0004         40.7504
 -16961253.33649 -13147800.14648  23940994.4114   23940993.9034
     -2935.2814      -2287.2324         49.5004         41.0004
 -19775931.93449 -15386451.79448  23610917.2314   23610915.6144
      1313.8754       1023.7994         54.0004         45.2504
 00  7  4  0 13 30.0090000  0  7G20G21G30G29G11G15G25
  -4201091.22749  -3268683.39446  26950528.4424   26950528.5874
      2904.8754       2263.5394         42.5004         21.5004
 -15728122.44549 -12238691.23047  24657487.0604   24657487.3454
     -1797.5164      -1400.6624         48.5004         36.0004
  -1606404.89849  -1242787.02146  27369854.8104   27369858.0914
      1157.2344        901.7414         41.5004         20.7504
 -11090912.98849  -8622890.04347  24875638.3494   24875637.7824
     -2306.9374      -1797.6144         49.0004         36.7504
 -17834799.15649 -13883517.43248  23969937.0134   23969934.7784
      1031.7504        803.9614         50.5004         40.7504
 -16872981.30949 -13079016.81748  23957792.0994   23957791.8764
     -2949.2664      -2298.1294         50.0004         41.2504
 -19815088.24249 -15416963.15148  23603465.9814   23603464.5014
      1296.8134       1010.5034         54.2504         45.7504
 00  7  4  0 14  0.0090000  0  7G20G21G30G29G11G15G25
  -4288234.24649  -3336586.84946  26933945.4354   26933946.1024
      2904.6724       2263.3814         42.2504         21.5004
 -15674037.41849 -12196547.11947  24667779.3804   24667779.6574
     -1808.2504      -1409.0264         48.7504         36.0004
  -1640918.75849  -1269680.81046  27363287.0914   27363290.5174
      1143.6564        891.1614         42.0004         21.0004
 -11021653.19549  -8568921.44147  24888817.9974   24888817.4504
     -2310.5164      -1800.4024         48.5004         37.0004
 -17865470.05549 -13907416.82948  23964100.2634   23964098.3414
      1012.8284        789.2174         50.0004         40.5004
 -16784293.46149 -13009909.48848  23974668.8804   23974668.5754
     -2963.3444      -2309.0994         49.2504         41.5004
 -19853734.59849 -15447077.14548  23596112.1304   23596110.3604
      1279.5474        997.0504         54.0004         45.7504
 00  7  4  0 14 30.0090000  0  7G20G21G30G29G11G15G25
  -4375387.15249  -3404498.10746  26917360.7864   26917360.9774
      2905.2034       2263.7954         43.2504         21.5004
 -15619643.10549 -12154161.99947  24678130.5604   24678131.0754
     -1818.3594      -1416.9034         47.2504         36.5004
  -1675034.62549  -1296264.54146  27356795.6694   27356798.1184
      1130.4064        880.8364         42.2504         19.7504
 -10952302.80549  -8514882.23447  24902015.1694   24902014.4114
     -2313.3124      -1802.5814         48.7504         37.0004
 -17895583.94949 -13930882.18548  23958369.9034   23958367.7204
       994.4384        774.8864         48.0004         41.0004
 -16695198.86349 -12940485.19648  23991623.0444   23991622.9194
     -2976.6724      -2319.4854         47.7504         41.5004
 -19891876.25449 -15476797.86348  23588853.7084   23588852.4274
      1262.8914        984.0714         54.0004         45.5004
 00  7  4  0 15  0.0090000  0  7G20G21G30G29G11G15G25
  -4462543.54349  -3472412.01646  26900776.0524   26900775.6304
      2905.3594       2263.9164         42.2504         22.0004
 -15564933.82849 -12111531.46747  24688541.1774   24688541.5364
     -1828.7974      -1425.0374         48.0004         35.7504
  -1708744.74649  -1322532.06946  27350379.5444   27350383.6454
      1116.8754        870.2924         39.5004         19.7504
 -10882857.32449  -8460768.92547  24915229.7864   24915229.7474
     -2316.3754      -1804.9684         49.0004         37.0004
 -17925134.22349 -13953908.35648  23952747.0204   23952744.8494
       975.6564        760.2524         48.7504         41.0004
 -16605694.46549 -12870741.59148  24008655.0834   24008655.2824
     -2990.1874      -2330.0164         48.5004         40.7504
 -19929506.93749 -15506120.42148  23581692.8954   23581691.1854
      1245.9064        970.8364         53.5004         45.5004
 00  7  4  0 15 30.0090000  0  7G20G21G30G29G11G15G25
  -4549702.67649  -3540328.11946  26884188.8334   26884190.3844
      2905.2974       2263.8684         40.7504         21.5004
 -15509909.20749 -12068655.19547  24699011.8414   24699011.9744
     -1839.4534      -1433.3404         47.7504         36.0004
  -1742046.81249  -1348481.63346  27344043.1534   27344045.6104
      1103.1884        859.6274         40.7504         20.0004
 -10813317.98049  -8406582.47847  24928462.7864   24928462.9034
     -2319.5624      -1807.4514         49.0004         37.0004
 -17954119.96949 -13976494.64248  23947230.7784   23947228.6184
       956.7974        745.5564         49.2504         40.7504
 -16515782.87149 -12800680.68348  24025764.6304   24025764.8804
     -3003.8124      -2340.6334         48.2504         40.5004
 -19966625.46149 -15535043.89648  23574629.3104   23574628.1104
      1228.7504        957.4684         54.0004         46.0004
 00  7  4  0 16  0.0090000  0  7G20G21G30G29G11G15G25
  -4636865.04749  -3608246.66946  26867602.8494   26867603.6884
      2905.6414       2264.1364         41.7504         24.5004
 -15454570.59049 -12025534.26347  24709542.8024   24709543.2434
     -1849.7664      -1441.3764         46.5004         36.0004
  -1774939.90649  -1374112.57146  27337783.3174   27337787.1144
      1089.6564        849.0834         40.7504         20.7504
 -10743687.43449  -8352324.96647  24941713.3494   24941712.7864
     -2322.3594      -1809.6314         49.2504         36.5004
 -17982541.25849 -13998641.08548  23941822.2314   23941820.4464
       938.0944        730.9824         50.5004         41.5004
 -16425468.34049 -12730305.81048  24042950.9274   24042951.4974
     -3017.0314      -2350.9334         49.7504         40.2504
 -20003232.52749 -15563568.83448  23567663.1614   23567661.6184
      1211.8284        944.2824         54.2504         45.7504
 00  7  4  0 16 30.0090000  0  7G20G21G30G29G11G15G25
  -4724044.12949  -3676178.23446  26851013.0364   26851013.5404
      2905.9534       2264.3794         37.5004         22.2504
 -15398932.08649 -11982179.65047  24720130.4664   24720130.9934
     -1859.7344      -1449.1444         46.5004         35.5004
  -1807436.41049  -1399434.37146  27331599.5524   27331602.5444
      1076.3914        838.7464         42.5004         20.7504
 -10673981.07849  -8298008.37747  24954978.1224   24954977.5994
     -2324.9064      -1811.6154         49.0004         36.2504
 -18010411.41049 -14020358.08648  23936519.2474   23936517.1734
       919.6414        716.6034         48.2504         41.2504
 -16334767.65649 -12659630.02848  24060211.0364   24060211.2004
     -3029.8594      -2360.9294         47.7504         40.5004
 -20039341.46549 -15591705.62748  23560792.0284   23560790.3334
      1195.2194        931.3394         53.0004         45.7504
 00  7  4  0 17  0.0090000  0  7G20G21G30G29G11G15G25
  -4811229.98449  -3744115.13846  26834422.3254   26834422.1494
      2906.1884       2264.5624         40.5004         22.2504
 -15342984.82449 -11938584.44847  24730776.5914   24730777.2474
     -1870.1724      -1457.2774         46.0004         36.0004
  -1839524.98449  -1424438.29746  27325492.9744   27325496.4114
      1062.5474        827.9594         41.5004         19.7504
 -10604190.53949  -8243626.18147  24968258.5364   24968258.5564
     -2327.8754      -1813.9294         49.2504         36.5004
 -18037720.39549 -14041637.79548  23931322.1384   23931320.5244
       900.7814        701.9074         50.5004         41.5004
 -16243674.31249 -12588648.29048  24077545.5674   24077545.4384
     -3043.0944      -2371.2424         49.0004         40.2504
 -20074942.28949 -15619446.47848  23554017.3104   23554016.1344
      1178.0944        917.9954         53.7504         45.7504
 00  7  4  0 17 30.0090000  0  7G20G21G30G29G11G15G25
  -4898424.55549  -3812058.81346  26817828.8564   26817829.6424
      2906.9224       2265.1344         38.7504         22.7504
 -15286730.85249 -11894750.23847  24741481.9274   24741481.7594
     -1879.9534      -1464.8994         46.2504         35.7504
  -1871206.83649  -1449125.36346  27319463.8254   27319466.9934
      1049.5164        817.8044         42.7504         21.0004
 -10534320.46149  -8189182.00347  24981555.0364   24981554.2904
     -2330.0474      -1815.6214         49.2504         36.5004
 -18064470.05949 -14062481.67348  23926231.9814   23926230.2704
       882.5314        687.6874         50.2504         41.5004
 -16152193.96949 -12517364.97748  24094953.8414   24094953.0364
     -3055.5314      -2380.9334         49.2504         40.5004
 -20110037.06649 -15646793.00948  23547338.9424   23547337.4384
      1161.6094        905.1504         54.7504         45.7504
 00  7  4  0 18  0.0090000  0  7G20G21G30G29G11G15G25
  -4985630.45749  -3880011.30546  26801234.7704   26801234.9934
      2906.8914       2265.1104         39.2504         23.2504
 -15230173.59449 -11850679.72047  24752244.1694   24752244.5244
     -1890.3754      -1473.0194         44.5004         35.5004
  -1902483.03149  -1473496.34246  27313512.8494   27313515.4854
      1035.6724        807.0174         42.5004         20.5004
 -10464375.00449  -8134679.09147  24994864.9894   24994864.6694
     -2332.8594      -1817.8124         49.5004         36.5004
 -18090662.66049 -14082891.48748  23921247.6924   23921245.4854
       863.7344        673.0404         50.0004         41.2504
 -16060332.66049 -12445784.82648  24112434.3024   24112434.2514
     -3068.4844      -2391.0274         48.7504         40.5004
 -20144628.65649 -15673747.45448  23540756.2394   23540754.6924
      1144.5634        891.8674         53.0004         46.0004
 00  7  4  0 18 30.0090000  0  7G20G21G30G29G11G15G25
  -5072841.20349  -3947967.56746  26784638.9274   26784639.3884
      2907.3444       2265.4634         40.7504         24.5004
 -15173307.60949 -11806368.60747  24763065.7944   24763065.6694
     -1900.5004      -1480.9094         47.0004         35.5004
  -1933345.92649  -1497545.25346  27307639.9274   27307642.5054
      1022.0634        796.4124         41.2504         21.5004
 -10394349.60549  -8080113.89147  25008190.4194   25008190.3684
     -2335.3444      -1819.7484         48.5004         36.5004
 -18116291.66449 -14102862.13548  23916370.0674   23916368.6424
       845.0314        658.4664         51.7504         41.2504
 -15968087.53949 -12373905.59248  24129988.0364   24129987.8844
     -3081.0314      -2400.8044         50.0004         40.7504
 -20178710.34049 -15700304.56848  23534270.7314   23534269.2354
      1127.7504        878.7664         54.2504         45.5004
 00  7  4  0 19  0.0090000  0  7G20G21G30G29G11G15G25
  -5160059.33249  -4015929.62946  26768041.3564   26768041.9274
      2907.1884       2265.3414         41.2504         22.7504
 -15116136.23049 -11761819.55647  24773945.1064   24773945.6734
     -1911.0474      -1489.1274         46.5004         35.2504
  -1963797.01249  -1521273.31346  27301845.2394   27301847.9584
      1007.9224        785.3944         40.7504         21.0004
 -10324248.94549  -8025490.05147  25021530.5604   25021529.7314
     -2338.1094      -1821.9034         48.5004         36.5004
 -18141359.73049 -14122395.68348  23911599.9584   23911598.2084
       826.0164        643.6494         51.7504         41.7504
 -15875464.52749 -12301731.90548  24147613.9584   24147613.6694
     -3093.8594      -2410.8004         50.7504         39.5004
 -20212284.45749 -15726466.18048  23527881.6924   23527879.9934
      1110.4694        865.3004         54.2504         46.0004
 00  7  4  0 19 30.0090000  0  7G20G21G30G29G11G15G25
  -5247281.63349  -4083894.92446  26751443.6694   26751444.0914
      2907.7194       2265.7554         40.5004         25.5004
 -15058657.04349 -11717030.63447  24784882.7474   24784883.1184
     -1920.8914      -1496.7984         48.0004         35.2504
  -1993831.54349  -1544676.73646  27296128.9424   27296132.4314
       994.3284        774.8014         43.2504         21.5004
 -10254071.64549  -7970806.48147  25034883.8804   25034883.7744
     -2340.3124      -1823.6204         48.2504         35.7504
 -18165863.22749 -14141489.30748  23906937.4274   23906935.6534
       807.5314        629.2454         53.0004         41.7504
 -15782463.87949 -12229263.95048  24165311.3884   24165311.5404
     -3106.1724      -2420.3944         51.0004         39.7504
 -20245348.14549 -15752230.04448  23521590.1774   23521588.4934
      1093.7034        852.2364         54.7504         46.0004
 00  7  4  0 20  0.0090000  0  7G20G21G30G29G11G15G25
  -5334513.77049  -4151867.82847  26734844.0994   26734844.1774
      2907.9224       2265.9134         41.5004         25.7504
 -15000876.91049 -11672007.21947  24795878.0914   24795878.4704
     -1930.9694      -1504.6514         48.0004         35.5004
  -2023454.27349  -1567759.31246  27290492.1064   27290495.0054
       980.5634        764.0754         40.5004         21.5004
 -10183825.34449  -7916069.14447  25048252.1144   25048251.6774
     -2342.5784      -1825.3864         48.2504         36.2504
 -18189807.95749 -14160147.53248  23902381.0284   23902379.1344
       788.9224        614.7444         52.2504         41.7504
 -15689095.01249 -12156509.05348  24183078.6534   24183078.7474
     -3118.3124      -2429.8544         51.0004         39.5004
 -20277907.38749 -15777600.84148  23515394.0524   23515392.3104
      1076.9224        839.1604         54.0004         46.0004
 00  7  4  0 20 30.0090000  0  7G20G21G30G29G11G15G25
  -5421756.99249  -4219849.48146  26718241.8494   26718241.9664
      2908.3134       2266.2184         41.0004         25.0004
 -14942797.51649 -11626750.58647  24806930.9424   24806931.0284
     -1940.9374      -1512.4194         47.0004         36.0004
  -2052665.57449  -1590521.27946  27284932.8494   27284936.2164
       966.8444        753.3854         43.0004         21.5004
 -10113513.52749  -7861280.74947  25061631.7244   25061631.2554
     -2344.7814      -1827.1024         48.5004         36.2504
 -18213195.34849 -14178371.46448  23897930.3884   23897928.6614
       770.2664        600.2074         51.7504         41.5004
 -15595362.92649 -12083471.15748  24200915.6614   24200915.8644
     -3130.4374      -2439.3024         50.5004         40.5004
 -20309963.35949 -15802579.48248  23509294.1924   23509292.1734
      1060.2034        826.1324         53.0004         46.0004
 00  7  4  0 21  0.0090000  0  7G20G21G30G29G11G15G25
  -5509007.34849  -4287836.62247  26701638.6304   26701639.1854
      2908.4064       2266.2914         42.5004         27.0004
 -14884415.34049 -11581258.04747  24818040.1064   24818040.5834
     -1951.1874      -1520.4064         47.0004         35.5004
  -2081460.04749  -1612958.43546  27279453.9424   27279456.8884
       952.7664        742.4154         43.0004         22.7504
 -10043134.14549  -7806439.71347  25075024.3174   25075024.3254
     -2347.1724      -1828.9654         48.7504         35.5004
 -18236021.47349 -14196158.04548  23893586.5994   23893584.9894
       751.4534        585.5484         53.7504         41.2504
 -15501267.23849 -12010149.92748  24218821.6694   24218821.6924
     -3142.5784      -2448.7624         51.2504         39.5004
 -20341512.86749 -15827163.46448  23503290.3494   23503288.2744
      1043.2034        812.8864         54.2504         46.2504
 00  7  4  0 21 30.0090000  0  7G20G21G30G29G11G15G25
  -5596264.93449  -4355829.39347  26685034.0524   26685034.4584
      2908.7344       2266.5464         43.0004         26.0004
 -14825731.63749 -11535530.56447  24829207.2084   24829208.2084
     -1961.0784      -1528.1134         47.5004         35.7504
  -2109836.97349  -1635070.23446  27274053.9504   27274056.5444
       939.0004        731.6884         43.2504         22.7504
  -9972689.16049  -7751547.55147  25088429.7704   25088429.4274
     -2349.1564      -1830.5114         47.5004         35.2504
 -18258286.39549 -14213507.32448  23889349.8724   23889347.5874
       732.8914        571.0844         53.0004         41.7504
 -15406811.62949 -11936548.23647  24236795.8174   24236795.7164
     -3154.4374      -2458.0034         50.5004         39.2504
 -20372555.73449 -15851352.66948  23497383.0284   23497381.2434
      1026.3914        799.7854         53.7504         46.0004
 00  7  4  0 22  0.0090000  0  7G20G21G30G29G11G15G25
  -5683528.69149  -4423827.00347  26668427.7394   26668428.6654
      2908.9224       2266.6924         43.0004         26.5004
 -14766746.74649 -11489568.35347  24840431.8724   24840431.9934
     -1971.2194      -1536.0154         47.5004         35.5004
  -2137794.37149  -1656855.06546  27268733.2784   27268736.4544
       924.9224        720.7184         43.0004         21.5004
  -9902179.71149  -7696605.15547  25101847.2784   25101847.0134
     -2351.2974      -1832.1794         46.5004         35.5004
 -18279989.38349 -14230418.73348  23885219.8174   23885217.7394
       714.0784        556.4254         52.0004         42.0004
 -15311998.69149 -11862668.11147  24254837.9974   24254837.9814
     -3166.3124      -2467.2564         50.7504         39.0004
 -20403091.23849 -15875146.52048  23491572.3724   23491570.3644
      1009.4534        786.5874         53.5004         46.0004
 00  7  4  0 22 30.0090000  0  7G20G21G30G29G11G15G25
  -5770799.99649  -4491830.50047  26651820.5834   26651820.7864
      2909.0784       2266.8144         44.2504         27.0004
 -14707462.59049 -11443372.97947  24851713.0284   24851713.5524
     -1981.1724      -1543.7704         48.5004         35.0004
  -2165332.74649  -1678313.45146  27263493.0134   27263496.3414
       910.9844        709.8584         41.5004         22.5004
  -9831609.13349  -7641615.15847  25115276.0994   25115276.2084
     -2353.5314      -1833.9204         44.0004         35.5004
 -18301132.02349 -14246893.51648  23881196.3414   23881194.7274
       695.3914        541.8634         51.2504         42.0004
 -15216833.68749 -11788513.64947  24272947.8254   24272948.0874
     -3178.0474      -2476.4004         50.2504         39.0004
 -20433121.34049 -15898546.55348  23485857.7474   23485855.7244
       992.5474        773.4134         53.7504         46.0004
 00  7  4  0 23  0.0090000  0  7G20G21G30G29G11G15G25
  -5858070.86749  -4559833.66546  26635213.1224   26635213.7354
      2909.0314       2266.7784         42.7504         25.5004
 -14647872.25849 -11396939.00947  24863052.9274   24863053.9354
     -1991.2974      -1551.6604         45.2504         35.5004
  -2192442.63349  -1699437.95746  27258334.1774   27258337.7244
       896.5474        698.6084         43.0004         21.5004
  -9760971.05149  -7586572.54947  25128718.6774   25128718.3254
     -2355.6094      -1835.5404         46.0004         36.2504
 -18321706.11349 -14262925.25948  23877281.3174   23877279.6344
       676.3914        527.0584         52.0004         41.5004
 -15121311.95749 -11714081.21747  24291124.6224   24291124.9774
     -3189.8594      -2485.6054         51.0004         39.0004
 -20462637.97749 -15921546.47448  23480240.7864   23480239.0954
       975.4064        760.0574         53.7504         46.0004
 00  7  4  0 23 30.0090000  0  7G20G21G30G29G11G15G25
  -5945338.63349  -4627834.35647  26618606.9744   26618606.4814
      2908.4534       2266.3274         40.7504         27.5004
 -14587974.56649 -11350265.54847  24874451.1534   24874451.6654
     -2001.9224      -1559.9394         45.0004         35.2504
  -2219121.00849  -1720226.24446  27253257.5754   27253260.9354
       881.7504        687.0784         39.5004         22.5004
  -9690265.26249  -7531477.17447  25142173.1774   25142173.3174
     -2358.2664      -1837.6104         47.5004         35.5004
 -18341709.65649 -14278512.43348  23873474.7164   23873472.8564
       656.9534        511.9124         52.2504         41.7504
 -15025435.09849 -11639372.05047  24309369.8334   24309370.0094
     -3202.0474      -2495.1014         50.2504         39.2504
 -20491638.97349 -15944144.61248  23474722.1534   23474720.1104
       957.8134        746.3474         53.2504         46.2504
 00  7  4  0 24  0.0090000  0  7G20G21G30G29G11G15G25
  -6032605.30949  -4695834.22247  26602000.5994   26602000.8764
      2908.7194       2266.5344         39.7504         26.2504
 -14527771.81249 -11303354.37947  24885907.1924   24885908.2474
     -2011.9694      -1567.7684         46.2504         35.0004
  -2245368.71549  -1740678.92646  27248262.9584   27248266.1104
       867.5784        676.0354         42.2504         22.0004
  -9619495.36749  -7476331.85047  25155640.9194   25155640.8764
     -2360.0314      -1838.9854         47.0004         35.5004
 -18361144.54349 -14293656.49148  23869776.5754   23869774.1884
       638.1414        497.2524         52.2504         42.2504
 -14929208.60249 -11564390.45647  24327681.0204   24327681.2204
     -3213.5474      -2504.0624         49.7504         38.7504
 -20520126.48449 -15966342.63448  23469301.1454   23469299.2784
       940.9224        733.1864         53.5004         46.5004
 00  7  4  0 24 30.0090000  0  7G20G21G30G29G11G15G25
  -6119870.43049  -4763832.90147  26585393.9814   26585394.9034
      2908.8594       2266.6444         39.5004         27.0004
 -14467264.34849 -11256205.75147  24897421.4814   24897422.3844
     -2021.8594      -1575.4754         44.2504         34.7504
  -2271184.37949  -1760794.94846  27243350.2784   27243353.0324
       853.2344        664.8584         42.5004         22.7504
  -9548663.43749  -7421138.19047  25169119.0444   25169119.1534
     -2362.1254      -1840.6174         46.2504         34.5004
 -18380010.71949 -14308357.38748  23866186.4274   23866184.6384
       619.3444        482.6064         52.2504         42.2504
 -14832636.09449 -11489139.23947  24346058.0204   24346058.5794
     -3224.8284      -2512.8534         50.5004         38.2504
 -20548100.82049 -15988140.77348  23463977.5754   23463975.8494
       923.9534        719.9634         53.0004         46.5004
 00  7  4  0 25  0.0090000  0  7G20G21G30G29G11G15G25
  -6207134.66449  -4831830.89947  26568789.2554   26568789.2824
      2908.6564       2266.4854         40.7504         26.5004
 -14406454.02049 -11208821.14847  24908993.4894   24908994.7434
     -2032.1254      -1583.4744         46.5004         34.5004
  -2296567.89549  -1780574.20946  27238519.7314   27238522.6534
       838.8914        653.6814         37.0004         21.5004
  -9477771.82049  -7365898.02347  25182609.6384   25182609.7944
     -2364.0314      -1842.1024         46.5004         35.0004
 -18398309.38749 -14322616.07948  23862704.5994   23862702.3454
       600.5314        467.9464         52.2504         42.2504
 -14735721.87549 -11413621.74547  24364500.1614   24364500.8294
     -3236.0944      -2521.6314         50.0004         38.0004
 -20575562.92249 -16009539.77548  23458751.7784   23458750.0244
       906.8284        706.6194         54.2504         46.2504
 00  7  4  0 25 30.0090000  0  7G20G21G30G29G11G15G25
  -6294396.66449  -4899827.10547  26552181.8024   26552182.6494
      2908.5164       2266.3764         40.2504         26.5004
 -14345341.00049 -11161200.67447  24920622.9504   24920624.0834
     -2042.3444      -1591.4374         46.5004         35.0004
  -2321517.23849  -1800015.15546  27233771.4114   27233774.5794
       824.1724        642.2124         42.0004         22.7504
  -9406821.21949  -7310611.88647  25196111.0674   25196110.6224
     -2366.1874      -1843.7824         43.7504         34.5004
 -18416039.57049 -14336431.78648  23859330.2634   23859328.4074
       581.3134        452.9714         51.5004         42.2504
 -14638468.34849 -11337839.86547  24383007.1064   24383007.4234
     -3247.5474      -2530.5564         50.0004         38.5004
 -20602512.22349 -16030539.20048  23453623.7634   23453621.5524
       889.5314        693.1414         53.7504         46.2504
 00  7  4  0 26  0.0090000  0  7G20G21G30G29G11G15G25
  -6381651.07049  -4967817.41547  26535579.2864   26535579.2394
      2908.4534       2266.3274         42.2504         27.5004
 -14283920.45349 -11113340.58247  24932311.2314   24932311.3294
     -2052.3754      -1599.2534         45.5004         34.0004
  -2346025.96949  -1819112.76346  27229107.4194   27229110.3604
       809.6414        630.8894         41.2504         22.5004
  -9335808.40649  -7255277.27047  25209624.5524   25209624.1104
     -2368.0474      -1845.2314         45.5004         34.7504
 -18433195.99649 -14349800.42048  23856065.6694   23856064.1694
       562.3914        438.2264         52.0004         42.5004
 -14540873.88349 -11261792.31747  24401578.8494   24401579.4234
     -3258.7194      -2539.2614         49.2504         38.0004
 -20628944.00449 -16051135.35548  23448593.5444   23448591.8254
       872.6094        679.9554         53.0004         46.5004
 00  7  4  0 26 30.0090000  0  7G20G21G30G29G11G15G25
  -6468901.23849  -5035804.46047  26518975.8334   26518975.3844
      2908.1414       2266.0844         41.2504         27.5004
 -14222196.44149 -11065244.01747  24944056.4504   24944057.3724
     -2062.5944      -1607.2164         46.5004         34.2504
  -2370096.76649  -1837869.13546  27224526.9894   27224530.0444
       794.9534        619.4444         41.7504         22.5004
  -9264738.27749  -7199898.00047  25223148.5994   25223148.3174
     -2370.0474      -1846.7904         47.2504         35.0004
 -18449782.50849 -14362724.95448  23852909.3024   23852907.4934
       543.3284        423.3734         52.5004         42.0004
 -14442945.55149 -11185484.62847  24420213.7864   24420214.2244
     -3269.8594      -2547.9424         50.0004         38.0004
 -20654861.42649 -16071330.71248  23443661.8174   23443659.9194
       855.2034        666.3924         54.0004         46.2504
 00  7  4  0 27  0.0090000  0  7G20G21G30G29G11G15G25
  -6556143.83649  -5103785.56547  26502373.7864   26502373.9114
      2907.8444       2265.8524         43.0004         27.7504
 -14160167.37549 -11016909.73147  24955860.2164   24955861.0634
     -2072.9224      -1615.2644         45.5004         34.5004
  -2393725.39549  -1856280.94046  27220031.0444   27220033.2124
       780.0634        607.8414         42.2504         21.2504
  -9193609.94949  -7144473.37847  25236683.7244   25236683.8564
     -2371.9534      -1848.2754         46.5004         34.5004
 -18465796.25049 -14375203.17948  23849861.7704   23849859.8524
       524.1094        408.3974         52.5004         42.5004
 -14344683.98049 -11108917.25847  24438912.4814   24438912.7784
     -3281.0004      -2556.6234         49.5004         37.7504
 -20680261.75049 -16091123.13848  23438828.2004   23438826.0954
       837.9694        652.9634         53.2504         46.2504
 00  7  4  0 27 30.0090000  0  7G20G21G30G29G11G15G25
  -6643377.18749  -5171759.50647  26485773.4584   26485773.9934
      2907.7664       2265.7914         44.2504         29.5004
 -14097832.14849 -10968336.90147  24967722.5134   24967723.3764
     -2082.8124      -1622.9714         47.7504         34.2504
  -2416909.54349  -1874346.44446  27215618.9974   27215621.7354
       765.6884        596.6404         37.2504         22.7504
  -9122423.46149  -7089003.44047  25250230.7004   25250230.1884
     -2373.6254      -1849.5784         47.5004         34.0004
 -18481235.99649 -14387234.12348  23846923.6454   23846921.6064
       505.2034        393.6654         52.7504         42.2504
 -14246091.28949 -11032091.87347  24457674.5204   24457674.6734
     -3291.7974      -2565.0374         49.2504         38.0004
 -20705144.19549 -16110512.00948  23434093.1384   23434091.3024
       820.8754        639.6434         53.7504         46.5004
 00  7  4  0 28  0.0090000  0  7G20G21G30G29G11G15G25
  -6730603.30949  -5239727.80047  26469175.2784   26469174.8924
      2907.4694       2265.5604         45.2504         26.7504
 -14035194.25049 -10919528.21447  24979642.3884   24979642.9034
     -2092.8124      -1630.7634         47.5004         34.5004
  -2439650.67649  -1892066.82146  27211291.8174   27211294.4934
       750.8134        585.0494         40.7504         21.7504
  -9051182.90649  -7033491.35847  25263786.6534   25263786.4544
     -2375.5474      -1851.0754         46.2504         33.5004
 -18496104.25049 -14398819.74748  23844094.3644   23844092.3804
       486.0944        378.7744         52.7504         42.2504
 -14147173.50049 -10955013.17247  24476498.1454   24476498.0794
     -3302.5474      -2573.4134         48.7504         37.2504
 -20729511.51249 -16129499.48248  23429456.1384   23429454.3994
       803.7194        626.2744         54.0004         46.5004
 00  7  4  0 28 30.0090000  0  7G20G21G30G29G11G15G25
  -6817820.54749  -5307689.18147  26452578.6304   26452578.5174
      2907.1254       2265.2924         44.5004         28.7504
 -13972253.64149 -10870483.65447  24991619.3174   24991620.1924
     -2103.0624      -1638.7504         48.0004         33.5004
  -2461946.51649  -1909440.10846  27207048.6534   27207051.4154
       735.8134        573.3604         37.2504         22.0004
  -8979888.66849  -6977937.45347  25277353.7394   25277353.5874
     -2377.2664      -1852.4154         47.2504         33.5004
 -18510400.05549 -14409959.32448  23841374.1064   23841372.1884
       467.0314        363.9204         53.0004         42.2504
 -14047933.10249 -10877683.10347  24495383.0754   24495383.1614
     -3313.2194      -2581.7294         49.0004         36.5004
 -20753362.56649 -16148084.68048  23424917.3954   23424915.4744
       786.5164        612.8694         53.2504         46.5004
 00  7  4  0 29  0.0090000  0  7G20G21G30G29G11G15G25
  -6905021.39849  -5375637.77147  26435984.0524   26435984.0564
      2906.4064       2264.7324         43.7504         27.7504
 -13909003.44949 -10821197.85247  25003655.6694   25003655.9744
     -2113.5474      -1646.9204         47.2504         33.5004
  -2483788.72749  -1926459.96146  27202891.5524   27202894.6064
       720.4844        561.4164         40.7504         22.0004
  -8908535.20749  -6922337.39747  25290932.2944   25290931.8414
     -2379.5004      -1854.1564         46.0004         34.2504
 -18524116.56249 -14420647.49048  23838763.9274   23838761.9584
       447.5164        348.7134         53.0004         42.5004
 -13948366.31649 -10800098.68847  24514329.8724   24514329.8334
     -3324.3444      -2590.3984         48.5004         37.0004
 -20776690.50449 -16166262.24948  23420478.1694   23420476.2124
       768.8444        599.0994         53.5004         46.7504
 00  7  4  0 29 30.0090000  0  7G20G21G30G29G11G15G25
  -6992206.37949  -5443574.03947  26419393.3644   26419393.0874
      2905.8754       2264.3184         44.0004         29.7504
 -13845445.65649 -10771672.36247  25015750.0284   25015750.6264
     -2123.6874      -1654.8214         47.0004         33.2504
  -2505177.24649  -1943126.27246  27198822.1854   27198825.3294
       705.3284        549.6064         36.7504         22.2504
  -8837125.30149  -6866693.34747  25304520.9034   25304520.5244
     -2381.3124      -1855.5684         46.2504         33.7504
 -18537254.83649 -14430885.08148  23836263.5754   23836261.6734
       428.2504        333.7014         52.5004         42.5004
 -13848477.63349 -10722263.45447  24533338.2784   24533338.4424
     -3334.9534      -2598.6654         48.0004         37.5004
 -20799496.70349 -16184033.26548  23416138.5674   23416136.4974
       751.5164        585.5974         53.5004         46.5004
 00  7  4  0 30  0.0090000  0  7G20G21G30G29G11G15G25
  -7079373.30949  -5511496.21447  26402805.4274   26402805.8604
      2905.3594       2263.9164         43.7504         28.0004
 -13781579.15249 -10721906.30847  25027903.4034   25027904.3454
     -2133.9374      -1662.8084         46.2504         33.7504
  -2526109.39149  -1959436.97246  27194838.6924   27194841.4464
       690.2194        537.8334         39.0004         22.0004
  -8765658.75449  -6811005.17647  25318120.5054   25318120.5284
     -2383.0314      -1856.9074         46.5004         33.7504
 -18549813.21949 -14440670.82148  23833874.1454   23833872.0404
       409.0474        318.7384         53.2504         42.2504
 -13748268.63349 -10644178.61947  24552406.9114   24552407.3924
     -3345.4844      -2606.8714         46.7504         36.7504
 -20821779.73849 -16201396.63048  23411898.0364   23411895.8644
       734.2034        572.1064         53.7504         46.7504
 00  7  4  0 30 30.0090000  0  7G20G21G30G29G11G15G25
  -7166526.77749  -5579407.89547  26386221.5204   26386221.4154
      2904.6884       2263.3934         42.7504         29.5004
 -13717409.78149 -10671904.25747  25040114.2244   25040115.1494
     -2144.1414      -1670.7594         47.0004         33.0004
  -2546589.28949  -1975395.26346  27190941.8024   27190944.5914
       674.9064        525.9014         37.5004         23.0004
  -8694141.91849  -6755277.81647  25331729.9894   25331729.7434
     -2384.8444      -1858.3204         46.2504         33.7504
 -18561796.89149 -14450008.72648  23831593.5834   23831591.4744
       389.6724        303.6404         52.7504         42.5004
 -13647748.09049 -10565851.01447  24571535.5284   24571536.0634
     -3356.0474      -2615.1014         47.2504         36.5004
 -20843544.93749 -16218356.49148  23407756.1694   23407754.3684
       716.6564        558.4334         53.5004         46.7504
 00  7  4  0 31  0.0090000  0  7G20G21G30G29G11G15G25
  -7253660.80949  -5647304.44447  26369640.0754   26369639.9774
      2904.1724       2262.9914         44.0004         29.0004
 -13652932.30149 -10621662.13147  25052384.4424   25052385.6024
     -2154.3594      -1678.7224         47.2504         33.5004
  -2566610.14849  -1990995.84146  27187131.7474   27187134.6814
       659.8134        514.1404         37.0004         22.7504
  -8622571.02049  -6699508.34347  25345349.7554   25345349.2314
     -2386.5314      -1859.6354         45.0004         34.0004
 -18573200.84049 -14458894.89848  23829423.3644   23829421.3994
       370.5164        288.7134         53.0004         42.2504
 -13546913.79349 -10487278.93347  24590723.6534   24590724.0364
     -3366.2974      -2623.0884         46.0004         37.0004
 -20864787.09849 -16234908.77448  23403713.7244   23403712.0134
       699.3914        544.9804         52.7504         46.7504
 00  7  4  0 31 30.0090000  0  7G20G21G30G29G11G15G25
  -7340778.17249  -5715188.00347  26353062.5754   26353061.9934
      2903.7974       2262.6994         44.5004         29.7504
 -13588151.64849 -10571183.75947  25064711.2244   25064712.6534
     -2164.2194      -1686.4044         48.2504         32.5004
  -2586174.50049  -2006240.70746  27183408.8334   27183411.1144
       644.7814        502.4274         37.5004         22.5004
  -8550950.77349  -6643700.41347  25358978.3954   25358978.2044
     -2387.9844      -1860.7674         45.5004         33.5004
 -18584028.56249 -14467332.06648  23827362.7164   23827361.1774
       351.4384        273.8474         52.2504         42.2504
 -13445772.90649 -10408467.95747  24609970.3334   24609970.8844
     -3376.2504      -2630.8444         46.2504         36.5004
 -20885510.02349 -16251056.46848  23399770.4274   23399768.4194
       682.2504        531.6234         52.5004         46.5004
 00  7  4  0 32  0.0090000  0  7G20G21G30G29G11G15G25
  -7427879.96149  -5783059.42947  26336487.0364   26336487.1384
      2903.0784       2262.1394         44.2504         27.5004
 -13523069.70349 -10520470.61947  25077096.2784   25077097.1454
     -2174.4694      -1694.3914         47.7504         32.2504
  -2605282.75849  -2021130.21246  27179772.3174   27179775.1854
       629.3284        490.3864         39.2504         22.7504
  -8479284.23849  -6587856.42047  25372616.3804   25372616.0324
     -2389.7344      -1862.1314         45.7504         33.2504
 -18594281.80549 -14475321.60748  23825411.8104   23825409.6424
       332.1414        258.8114         52.5004         42.2504
 -13344330.11749 -10329421.72447  24629274.6144   24629274.8294
     -3386.4844      -2638.8194         46.5004         36.7504
 -20905715.57849 -16266801.02548  23395925.5834   23395923.4274
       664.8754        518.0844         53.5004         46.5004
 00  7  4  0 32 30.0090000  0  7G20G21G30G29G11G15G25
  -7514960.95349  -5850914.63447  26319915.6924   26319915.7634
      2902.0004       2261.2994         43.7504         28.0004
 -13457682.39549 -10469519.52247  25089538.8804   25089540.4544
     -2184.9534      -1702.5614         48.0004         33.2504
  -2623929.42249  -2035660.01646  27176223.3644   27176227.1574
       613.5784        478.1134         40.7504         21.5004
  -8407568.00449  -6531973.69347  25386262.9584   25386263.0874
     -2391.6564      -1863.6284         44.2504         33.5004
 -18603956.14549 -14482860.04248  23823570.6064   23823569.0094
       312.4694        243.4824         53.0004         42.2504
 -13242584.22749 -10250139.31347  24648636.3644   24648636.5524
     -3396.8444      -2646.8914         47.0004         36.5004
 -20925399.05949 -16282138.76748  23392179.9114   23392177.6264
       647.1414        504.2654         53.0004         46.5004
 00  7  4  0 33  0.0090000  0  7G20G21G30G29G11G15G25
  -7602018.44949  -5918751.54247  26303349.8644   26303349.8604
      2901.5784       2260.9704         45.2504         29.2504
 -13391988.27349 -10418329.35147  25102040.6224   25102041.4074
     -2194.8444      -1710.2684         47.5004         32.5004
  -2642111.20349  -2049827.57146  27172763.7944   27172766.8174
       598.4224        466.3034         41.2504         22.0004
  -8335801.57049  -6476051.84747  25399919.8334   25399919.9504
     -2393.0624      -1864.7244         42.7504         33.5004
 -18613049.71149 -14489945.92448  23821840.4664   23821838.5054
       293.5164        228.7134         52.5004         42.2504
 -13140536.81649 -10170621.96347  24668055.1454   24668055.5794
     -3406.5314      -2654.4404         44.5004         35.5004
 -20944558.80949 -16297068.40448  23388533.7944   23388531.8294
       629.9844        490.8974         51.7504         47.5004
 00  7  4  0 33 30.0090000  0  7G20G21G30G29G11G15G25
  -7689055.10549  -5986572.20547  26286787.3564   26286786.0954
      2900.6564       2260.2524         45.7504         29.2504
 -13325992.12149 -10366903.83547  25114599.1144   25114600.1494
     -2205.0944      -1718.2554         47.7504         31.5004
  -2659830.76249  -2063634.99946  27169391.7784   27169394.7944
       582.8914        454.2004         40.7504         21.5004
  -8263989.75849  -6420094.65547  25413585.1224   25413585.5874
     -2394.7194      -1866.0154         43.5004         33.2504
 -18621566.32849 -14496582.25048  23820219.9664   23820217.6774
       274.1414        213.6164         53.2504         42.0004
 -13038194.58649 -10090874.87847  24687530.5134   24687530.7704
     -3416.5314      -2662.2324         45.0004         36.5004
 -20963198.61349 -16311592.88548  23384986.7314   23384984.6344
       612.4694        477.2484         53.0004         47.0004
 00  7  4  0 34  0.0090000  0  7G20G21G30G29G11G15G25
  -7776063.84449  -6054371.11947  26270229.6064   26270229.2634
      2899.8134       2259.5944         45.0004         29.0004
 -13259687.38749 -10315237.86447  25127216.4814   25127217.7124
     -2215.2504      -1726.1694         47.2504         32.5004
  -2677080.26649  -2077076.08046  27166109.3804   27166112.2044
       567.1884        441.9644         39.2504         21.2504
  -8192127.53149  -6364098.18647  25427260.4354   25427260.0874
     -2396.2814      -1867.2324         43.0004         32.7504
 -18629499.77349 -14502764.14748  23818709.8644   23818707.5094
       254.7344        198.4944         52.5004         42.0004
 -12935554.32449 -10010895.56247  24707062.4274   24707062.7674
     -3426.2504      -2669.8054         45.2504         36.5004
 -20981312.74249 -16325707.76148  23381539.6774   23381537.6064
       595.0784        463.6974         52.5004         46.5004
 00  7  4  0 34 30.0090000  0  8G20G21G30G29G 1G11G15G25
  -7863043.27049  -6122147.19847  26253678.2084   26253677.9424
      2898.6564       2258.6934         45.5004         29.0004
 -13193074.93449 -10263332.12047  25139892.8334   25139893.9894
     -2225.7034      -1734.3144         47.7504         32.0004
  -2693858.07049  -2090149.59446  27162917.6384   27162920.0794
       551.4224        429.6794         37.2504         22.0004
  -8120215.28949  -6308062.71947  25440944.8954   25440945.0604
     -2398.1094      -1868.6574         42.5004         33.0004
    -21009.57858                  27713846.9194
      2558.5164                         34.2504
 -18636849.40649 -14508491.13448  23817311.2474   23817309.1304
       235.0784        183.1784         53.0004         42.5004
 -12832618.77049  -9930686.14447  24726650.7004   24726650.9504
     -3436.2034      -2677.5614         46.0004         36.2504
 -20998900.43049 -16339412.41048  23378192.8024   23378190.9504
       577.2974        449.8424         52.5004         46.5004
 00  7  4  0 35  0.0090000  0  8G20G21G30G29G 1G11G15G25
  -7949987.68049  -6189895.96947  26237133.1224   26237132.4624
      2897.7034       2257.9504         45.0004         29.0004
 -13126149.59849 -10211182.57147  25152628.0524   25152629.3724
     -2235.8914      -1742.2524         46.7504         32.0004
  -2710158.28549  -2102850.97546  27159815.0994   27159817.9664
       535.6564        417.3944         37.2504         22.5004
  -8048249.63349  -6251985.65647  25454639.8334   25454639.9034
     -2399.5314      -1869.7654         44.2504         33.0004
    -97705.80959    -67757.82756  27699252.3884   27699257.9464
      2554.5944       1990.5934         38.5004         18.5004
 -18643610.69149 -14513759.65948  23816024.7474   23816022.7784
       215.7504        168.1174         53.0004         42.0004
 -12729386.43449  -9850245.48147  24746295.1224   24746296.1384
     -3445.8444      -2685.0734         47.7504         36.0004
 -21015957.18749 -16352703.34948  23374946.8494   23374944.9814
       559.8444        436.2424         53.7504         46.7504
 00  7  4  0 35 30.0090000  0  8G20G21G30G29G 1G11G15G25
  -8036906.08649  -6257624.47747  26220593.1854   26220592.1814
      2896.8914       2257.3174         45.7504         29.7504
 -13058921.92649 -10158797.43747  25165421.0524   25165421.8174
     -2245.8124      -1749.9844         46.7504         31.5004
  -2725989.28549  -2115186.71846  27156802.5134   27156805.1774
       519.9224        405.1344         40.5004         22.0004
  -7976241.41849  -6195875.39847  25468342.1854   25468342.2594
     -2400.9374      -1870.8604         42.7504         32.7504
   -174285.49249   -127429.67446  27684678.9664   27684687.1694
      2550.9064       1987.7194         38.2504         23.2504
 -18649793.37549 -14518577.33148  23814848.1384   23814846.2354
       196.5944        153.1904         52.7504         42.5004
 -12625870.53149  -9769583.85747  24765992.9424   24765993.6304
     -3455.1724      -2692.3424         46.7504         35.7504
 -21032492.99649 -16365588.35348  23371800.4664   23371798.3884
       542.5634        422.7764         54.2504         47.0004
 00  7  4  0 36  0.0090000  0  8G20G21G30G29G 1G11G15G25
  -8123803.53549  -6325336.68247  26204056.8024   26204056.4384
      2896.2034       2256.7824         45.5004         29.2504
 -12991398.25049 -10106181.64647  25178270.8724   25178271.7784
     -2255.6564      -1757.6544         47.0004         31.5004
  -2741356.32449  -2127160.97046  27153878.1304   27153880.6884
       504.4384        393.0684         39.7504         23.0004
  -7904197.53149  -6139737.36147  25482051.6224   25482051.7904
     -2402.0164      -1871.7004         44.2504         32.0004
   -250754.73449   -187015.51146  27670126.7004   27670135.4274
      2547.0004       1984.6754         37.0004         22.7504
 -18655403.66049 -14522948.99248  23813780.8104   23813778.5604
       177.4224        138.2514         53.2504         42.2504
 -12522080.01649  -9688708.22747  24785744.4974   24785744.5524
     -3464.2344      -2699.4034         46.0004         36.0004
 -21048513.84049 -16378072.09148  23368751.5754   23368749.5994
       525.5004        409.4814         54.0004         46.7504
 00  7  4  0 36 30.0090000  0  8G20G21G30G29G 1G11G15G25
  -8210674.00449  -6393027.85547  26187525.5754   26187525.7944
      2895.1254       2255.9424         45.7504         29.0004
 -12923574.33249 -10053331.91247  25191176.7244   25191178.3684
     -2265.8754      -1765.6174         47.5004         31.7504
  -2756253.35249  -2138769.01946  27151043.3564   27151046.2164
       488.6564        380.7714         41.2504         22.5004
  -7832114.38349  -6083568.72347  25495768.6694   25495768.8804
     -2403.5004      -1872.8574         45.7504         32.7504
   -327109.10248   -246511.78846  27655596.5284   27655604.7434
      2543.3594       1981.8384         34.7504         20.5004
 -18660437.05149 -14526871.12448  23812823.0994   23812820.7394
       158.0784        123.1784         53.0004         42.5004
 -12418013.35949  -9607617.44447  24805547.4974   24805548.2864
     -3473.5474      -2706.6604         45.5004         36.2504
 -21064014.96149 -16390150.84948  23365801.8174   23365799.9354
       507.9064        395.7714         54.5004         46.7504
 00  7  4  0 37  0.0090000  0  8G20G21G30G29G 1G11G15G25
  -8297514.76249  -6460695.85647  26171000.1064   26171000.0244
      2894.1564       2255.1874         45.5004         30.2504
 -12855448.71549 -10000247.06847  25204140.8334   25204142.2594
     -2275.8284      -1773.3734         47.5004         31.5004
  -2770677.18449  -2150008.36646  27148298.1384   27148301.1344
       473.0004        368.5714         41.2504         22.2504
  -7759990.96949  -6027368.69747  25509493.2944   25509493.6534
     -2404.7344      -1873.8194         47.0004         32.5004
   -403347.02348   -305917.46146  27641087.8174   27641096.2864
      2539.3594       1978.7224         35.0004         15.5004
 -18664891.65649 -14530342.24448  23811975.3494   23811973.0874
       138.8594        108.2024         52.7504         42.2504
 -12313671.65649  -9526312.34447  24825402.5674   24825403.6064
     -3482.6414      -2713.7464         46.2504         36.2504
 -21078994.41449 -16401823.10848  23362951.5204   23362949.0954
       490.6884        382.3544         54.5004         46.5004
 00  7  4  0 37 30.0090000  0  8G20G21G30G29G 1G11G15G25
  -8384327.31249  -6528341.89647  26154480.3494   26154480.0204
      2893.3134       2254.5294         45.5004         29.5004
 -12787024.79349  -9946929.78547  25217161.5134   25217162.6104
     -2285.6874      -1781.0554         47.5004         31.0004
  -2784629.29749  -2160880.12246  27145643.8334   27145646.2244
       457.3134        356.3474         41.5004         22.5004
  -7687831.05949  -5971140.26047  25523224.4894   25523225.3414
     -2405.8594      -1874.6964         46.2504         32.2504
   -479470.93749   -365234.24746  27626602.4584   27626610.2744
      2535.6564       1975.8364         39.0004         20.7504
 -18668770.06649 -14533364.39248  23811236.8644   23811235.3134
       119.7504         93.3124         52.7504         42.5004
 -12209060.57449  -9444797.33147  24845309.9034   24845310.7164
     -3491.4534      -2720.6134         47.5004         36.0004
 -21093455.41049 -16413091.37948  23360199.3644   23360197.3844
       473.5314        368.9854         53.5004         47.0004
 00  7  4  0 38  0.0090000  0  8G20G21G30G29G 1G11G15G25
  -8471103.92649  -6595959.92047  26137967.0444   26137966.9114
      2892.0634       2253.5554         45.0004         29.5004
 -12718296.09049  -9893375.01247  25230240.4664   25230241.7084
     -2295.8754      -1788.9944         46.7504         30.5004
  -2798101.34049  -2171377.71646  27143080.1534   27143082.1144
       441.2034        343.7954         41.5004         22.5004
  -7615628.77749  -5914878.77447  25536964.7004   25536965.0094
     -2407.3444      -1875.8524         46.0004         33.0004
   -555474.24248   -424457.03146  27612138.2244   27612146.6344
      2531.6724       1972.7314         35.0004         20.7504
 -18672065.75049 -14535932.45348  23810609.9744   23810608.3604
       100.2664         78.1294         53.5004         42.2504
 -12104176.61749  -9363069.68547  24865268.9034   24865269.9074
     -3500.4844      -2727.6504         45.0004         35.7504
 -21107391.71149 -16423950.80248  23357547.5134   23357545.4704
       455.9224        355.2644         54.0004         46.5004
 00  7  4  0 38 30.0090000  0  8G20G21G30G29G 1G11G15G25
  -8557849.10249  -6663553.44647  26121460.2704   26121459.8724
      2890.8134       2252.5814         46.2504         29.5004
 -12649268.64149  -9839587.45747  25243375.8254   25243377.3024
     -2305.8754      -1796.7864         47.5004         31.7504
  -2811097.84849  -2181504.80746  27140606.2784   27140609.5634
       425.2034        331.3274         41.5004         22.7504
  -7543390.64849  -5858589.36647  25550711.4034   25550711.4234
     -2408.5944      -1876.8264         46.5004         32.2504
   -631362.71149   -483590.28546  27597697.1924   27597704.4234
      2527.6254       1969.5784         36.7504         21.5004
 -18674784.32449 -14538050.81848  23810092.7394   23810090.8764
        80.8914         63.0324         53.0004         42.5004
 -11999028.59449  -9281136.27647  24885277.8334   24885278.7204
     -3509.3594      -2734.5664         46.5004         36.0004
 -21120808.95749 -16434405.76648  23354994.2004   23354992.1104
       438.5004        341.6884         54.0004         46.5004
 00  7  4  0 39  0.0090000  0  8G20G21G30G29G 1G11G15G25
  -8644560.14149  -6731120.36847  26104959.0834   26104958.8064
      2889.7034       2251.7174         44.0004         29.7504
 -12579941.70349  -9785566.53047  25256568.5834   25256569.5754
     -2316.0624      -1804.7244         47.5004         31.7504
  -2823616.18749  -2191259.36146  27138224.5134   27138226.9744
       409.2344        318.8844         42.5004         24.0004
  -7471115.95349  -5802271.47447  25564464.8804   25564464.9934
     -2409.8444      -1877.8004         46.0004         31.5004
   -707134.86749   -542633.01546  27583277.5524   27583285.8564
      2523.7194       1966.5344         39.2504         20.7504
 -18676924.31649 -14539718.34848  23809685.4504   23809683.4314
        61.5784         47.9834         52.7504         42.5004
 -11893617.95349  -9198998.23947  24905337.1454   24905338.0754
     -3518.1414      -2741.4084         46.0004         35.5004
 -21133705.22749 -16444454.77848  23352540.0364   23352538.1614
       421.0634        328.1014         53.7504         46.7504
 00  7  4  0 39 30.0090000  0  8G20G21G30G29G 1G11G15G25
  -8731234.00049  -6798658.33047  26088466.0204   26088465.7674
      2888.4844       2250.7674         45.5004         29.7504
 -12510313.53949  -9731310.87547  25269818.4814   25269819.5794
     -2326.0004      -1812.4684         47.2504         31.0004
  -2835653.59049  -2200639.09546  27135933.0524   27135935.9894
       393.1094        306.3194         41.7504         23.5004
  -7398803.81649  -5745924.39047  25578225.4504   25578225.5244
     -2411.0944      -1878.7744         46.5004         31.7504
   -782788.90649   -601583.66946  27568881.4894   27568888.6694
      2519.7344       1963.4294         40.5004         22.2504
 -18678484.29749 -14540933.91648  23809388.2634   23809386.6734
        42.2344         32.9104         53.0004         42.5004
 -11787946.01649  -9116656.58947  24925446.0444   24925446.6104
     -3526.7504      -2748.1174         46.0004         35.2504
 -21146079.21549 -16454096.81548  23350185.3334   23350183.5094
       403.6884        314.5624         53.7504         46.5004
 00  7  4  0 40  0.0090000  0  8G20G21G30G29G 1G11G15G25
  -8817871.68749  -6866168.11647  26071979.2704   26071978.5604
      2887.2814       2249.8304         45.0004         29.5004
 -12440386.64149  -9676822.47147  25283125.1694   25283126.3024
     -2335.8594      -1820.1504         46.5004         31.2504
  -2847211.05549  -2209644.92446  27133734.5134   27133736.6814
       377.2034        293.9254         42.5004         23.5004
  -7326457.19949  -5689550.43647  25591992.0674   25591992.7004
     -2412.1874      -1879.6274         45.2504         31.5004
   -858327.14849   -660444.09446  27554506.3334   27554513.5174
      2515.8914       1960.4344         42.0004         21.0004
 -18679466.50449 -14541699.26848  23809201.6774   23809200.0444
        23.0944         17.9954         52.5004         42.5004
 -11682018.04349  -9034115.42747  24945603.2944   24945604.6304
     -3535.2194      -2754.7164         47.5004         35.5004
 -21157933.41049 -16463333.82348  23347929.5604   23347927.2244
       386.4694        301.1444         54.5004         46.5004
 00  7  4  0 40 30.0090000  0  8G20G21G30G29G 1G11G15G25
  -8904472.44949  -6933649.11947  26055499.7784   26055499.2594
      2886.2194       2249.0024         46.0004         29.5004
 -12370161.87949  -9622101.94047  25296488.3494   25296489.2944
     -2345.6094      -1827.7484         47.5004         31.0004
  -2858287.53549  -2218275.90647  27131626.6384   27131629.1384
       361.4384        281.6404         43.0004         26.0004
  -7254077.71149  -5633150.86847  25605765.5674   25605765.8334
     -2413.0944      -1880.3334         46.5004         31.7504
   -933750.20748   -719214.87146  27540150.9194   27540160.5284
      2512.2974       1957.6344         33.5004         17.7504
 -18679871.56649 -14542014.89348  23809124.5524   23809122.7904
         4.0474          3.1534         53.0004         43.0004
 -11575837.39549  -8951377.37147  24965809.0284   24965810.1694
     -3543.3284      -2761.0354         47.7504         35.7504
 -21169268.17249 -16472166.06048  23345772.5364   23345770.4194
       369.3444        287.8004         53.7504         46.7504
 00  7  4  0 41  0.0090000  0  8G20G21G30G29G 1G11G15G25
  -8991034.14149  -7001099.69547  26039027.7164   26039026.5634
      2884.6884       2247.8084         46.0004         30.0004
 -12299638.89549  -9567149.03747  25309909.2394   25309909.4384
     -2355.7664      -1835.6624         47.0004         31.5004
  -2868880.93449  -2226530.50546  27129610.4034   27129612.7704
       344.9694        268.8074         43.2504         23.5004
  -7181664.78149  -5576725.25547  25619545.5364   25619545.8024
     -2414.3124      -1881.2824         46.2504         32.0004
  -1009056.87149   -777894.80946  27525822.9664   27525829.8524
      2508.2194       1954.4564         41.7504         22.7504
 -18679698.52749 -14541880.05248  23809157.4974   23809155.8174
       -15.4224        -12.0174         52.5004         42.5004
 -11469406.04749  -8868443.98647  24986062.1304   24986063.3644
     -3551.9694      -2767.7684         48.0004         35.5004
 -21180082.70349 -16480592.93548  23343714.3104   23343712.4584
       351.7664        274.1034         54.5004         46.7504
 00  7  4  0 41 30.0090000  0  8G20G21G30G29G 1G11G15G25
  -9077548.52049  -7068513.38447  26022564.3414   26022562.9584
      2883.0784       2246.5544         45.2504         30.2504
 -12228811.34449  -9511958.80347  25323386.4744   25323387.8494
     -2365.9534      -1843.6004         47.2504         31.2504
  -2878983.16049  -2234402.31146  27127687.9194   27127690.3564
       328.4694        255.9504         42.7504         24.2504
  -7109212.53549  -5520268.98847  25633332.3254   25633332.6854
     -2415.7034      -1882.3664         45.7504         31.5004
  -1084240.25849   -836478.75046  27511515.4814   27511522.9744
      2504.0634       1951.2184         42.0004         22.7504
 -18678940.71549 -14541289.54648  23809301.8334   23809299.3954
       -34.9694        -27.2484         53.0004         42.5004
 -11362719.99649  -8785312.12447  25006363.5754   25006364.8804
     -3560.3594      -2774.3064         49.0004         35.0004
 -21190370.38349 -16488609.26948  23341756.9814   23341754.5994
       334.1564        260.3814         54.5004         47.2504
 00  7  4  0 42  0.0090000  0  8G20G21G30G29G 1G11G15G25
  -9164016.68449  -7135891.09747  26006110.0674   26006108.8294
      2881.3754       2245.2274         44.5004         29.2504
 -12157681.55549  -9456533.06547  25336922.3954   25336923.1654
     -2376.0164      -1851.4414         47.7504         30.7504
  -2888595.26249  -2241892.11246  27125859.0674   27125861.8564
       312.1254        243.2144         43.0004         24.7504
  -7036723.85249  -5463784.33547  25647126.8724   25647127.2864
     -2416.9064      -1883.3044         46.5004         30.5004
  -1159303.00049   -894968.70746  27497230.9194   27497237.2004
      2500.0004       1948.0524         39.0004         17.7504
 -18677600.62149 -14540245.31448  23809556.5524   23809554.5714
       -54.3444        -42.3464         52.7504         43.0004
 -11255784.59849  -8701985.96347  25026712.9274   25026714.2944
     -3568.6414      -2780.7594         48.5004         36.0004
 -21200133.59449 -16496216.92848  23339898.8174   23339896.8064
       316.7344        246.8064         54.7504         47.0004
 00  7  4  0 42 30.0090000  0  8G20G21G30G29G 1G11G15G25
  -9250440.69949  -7203234.38947  25989663.9034   25989663.1924
      2880.1414       2244.2654         42.5004         29.7504
 -12086253.21549  -9400874.69747  25350514.7554   25350515.6884
     -2385.7664      -1859.0384         47.2504         30.2504
  -2897719.71149  -2249002.08846  27124122.6384   27124125.2204
       296.0634        230.6984         43.0004         23.0004
  -6964203.08649  -5407274.67347  25660926.7004   25660927.0604
     -2417.7664      -1883.9734         46.0004         31.0004
  -1234248.32849   -953367.25546  27482969.0444   27482975.3684
      2496.2814       1945.1544         41.5004         19.5004
 -18675682.09849 -14538750.34948  23809921.6384   23809920.2244
       -73.4374        -57.2244         52.5004         42.7504
 -11148606.28949  -8618470.51347  25047108.4424   25047110.3294
     -3576.5784      -2786.9444         47.5004         35.0004
 -21209376.06649 -16503418.81948  23338140.2004   23338138.5014
       299.4844        233.3644         54.7504         47.0004
 00  7  4  0 43  0.0090000  0  8G20G21G30G29G 1G11G15G25
  -9336817.29349  -7270540.72947  25973226.4354   25973225.8684
      2878.5004       2242.9874         42.2504         29.5004
 -12014525.17249  -9344982.79847  25364164.0284   25364165.4854
     -2395.8124      -1866.8674         47.5004         31.0004
  -2906353.49249  -2255729.71846  27122479.8104   27122482.3174
       279.6724        217.9264         43.2504         23.0004
  -6891649.05549  -5350739.11747  25674733.4584   25674733.7124
     -2418.9374      -1884.8864         47.0004         31.7504
  -1309074.29349  -1011672.64346  27468729.9504   27468736.6144
      2492.3594       1942.0984         42.2504         24.0004
 -18673183.28949 -14536803.23348  23810397.4114   23810395.4354
       -92.8594        -72.3584         52.7504         42.5004
 -11041186.35549  -8534766.81247  25067550.1454   25067551.4154
     -3584.6254      -2793.2144         48.0004         35.0004
 -21218096.26249 -16510213.74348  23336480.6144   23336478.3604
       282.0784        219.8014         54.5004         47.0004
 00  7  4  0 43 30.0090000  0  8G20G21G30G29G 1G11G15G25
  -9423145.86349  -7337809.66647  25956799.3104   25956798.4234
      2876.8914       2241.7334         42.5004         30.5004
 -11942498.23849  -9288858.00247  25377870.7244   25377871.8954
     -2405.8124      -1874.6594         47.0004         31.0004
  -2914495.91849  -2262074.39346  27120930.2704   27120933.0364
       263.3444        205.2034         42.5004         23.5004
  -6819063.00049  -5294178.60247  25688545.8334   25688546.3334
     -2419.9224      -1885.6534         46.5004         30.2504
  -1383781.53949  -1069885.58446  27454512.5204   27454519.8414
      2488.3594       1938.9814         41.0004         22.0004
 -18670105.14149 -14534404.66948  23810982.8884   23810981.0014
      -112.1564        -87.3944         52.0004         42.5004
 -10933528.47749  -8450877.68547  25088037.0754   25088038.4974
     -3592.4064      -2799.2784         48.2504         35.2504
 -21226294.77349 -16516602.16648  23334920.3804   23334918.3924
       264.7034        206.2624         54.5004         47.0004
 00  7  4  0 44  0.0090000  0  8G20G21G30G29G 1G11G15G25
  -9509425.39849  -7405040.40347  25940379.9114   25940379.3494
      2875.0474       2240.2964         42.7504         30.5004
 -11870173.75449  -9232501.34247  25391633.1694   25391634.6814
     -2415.7974      -1882.4394         46.5004         31.0004
  -2922146.47749  -2268035.86047  27119474.3174   27119476.0134
       246.8284        192.3344         43.0004         26.2504
  -6746446.03149  -5237594.00547  25702365.1454   25702365.3954
     -2421.0624      -1886.5424         45.7504         30.0004
  -1458370.52049  -1128006.41346  27440318.5674   27440325.2904
      2484.3444       1935.8524         41.7504         21.0004
 -18666448.30549 -14531555.19148  23811678.9034   23811676.5954
      -131.5314       -102.4924         52.5004         42.2504
 -10825635.85249  -8366805.62747  25108568.4114   25108569.5404
     -3600.3284      -2805.4504         47.7504         35.2504
 -21233972.14849 -16522584.50648  23333459.8254   23333457.5634
       247.1254        192.5654         54.7504         46.7504
 00  7  4  0 44 30.0090000  0  8G20G21G30G29G 1G11G15G25
  -9595650.85949  -7472228.98747  25923972.2474   25923971.2124
      2873.2504       2238.8964         43.7504         30.0004
 -11797547.68449  -9175909.67547  25405453.8954   25405454.9934
     -2425.9064      -1890.3174         47.2504         29.5004
  -2929300.06249  -2273610.06547  27118112.6384   27118115.3494
       230.0634        179.2694         43.7504         26.2504
  -6673794.87549  -5180982.75947  25716189.5204   25716190.1774
     -2422.2974      -1887.5044         45.7504         31.2504
  -1532837.43449  -1186032.14946  27426147.0204   27426153.5634
      2480.2664       1932.6754         40.0004         19.7504
 -18662208.98449 -14528251.82648  23812485.9274   23812483.7594
      -151.0624       -117.7114         52.7504         42.5004
 -10717507.64849  -8282550.01447  25129144.2634   25129146.0244
     -3608.1724      -2811.5624         48.2504         35.2504
 -21241124.83249 -16528157.98048  23332098.5134   23332096.7554
       229.6564        178.9534         54.0004         47.0004
 00  7  4  0 45  0.0090000  0  8G20G21G30G29G 1G11G15G25
  -9681823.91849  -7539376.73947  25907573.9114   25907573.1264
      2871.5634       2237.5814         43.5004         29.7504
 -11724623.93749  -9119086.08447  25419330.9194   25419331.8644
     -2435.7664      -1897.9994         46.5004         31.0004
  -2935959.08249  -2278798.85447  27116845.5204   27116847.7944
       213.7664        166.5714         44.0004         26.5004
  -6601113.75449  -5124348.16547  25730020.5204   25730021.1494
     -2423.1874      -1888.1984         46.0004         30.7504
  -1607185.64149  -1243965.29446  27412000.0134   27412005.6384
      2476.2814       1929.5704         44.2504         24.2504
 -18657390.97749 -14524497.54148  23813402.4584   23813400.8524
      -170.2034       -132.6264         52.2504         42.7504
 -10609150.29749  -8198115.85447  25149763.8564   25149765.4664
     -3615.6564      -2817.3944         48.7504         34.7504
 -21247756.57849 -16533325.55348  23330836.5134   23330834.4974
       212.4384        165.5364         55.0004         47.0004
 00  7  4  0 45 30.0090000  0  8G20G21G30G29G 1G11G15G25
  -9767941.34049  -7606481.12847  25891186.1384   25891185.3494
      2869.7664       2236.1814         42.5004         29.2504
 -11651401.15649  -9062029.44747  25433264.7084   25433265.8804
     -2445.7034      -1905.7434         46.5004         31.0004
  -2942120.45749  -2283599.78846  27115673.4664   27115675.5914
       197.0944        153.5804         44.5004         22.0004
  -6528401.35249  -5067689.20747  25743857.2244   25743857.8414
     -2424.1874      -1888.9774         45.7504         30.7504
  -1681413.19949  -1301804.50546  27397873.9194   27397880.4074
      2472.2974       1926.4654         41.7504         21.7504
 -18651992.75449 -14520291.14048  23814429.6534   23814427.6144
      -189.5314       -147.6874         52.7504         42.5004
 -10500564.80949  -8113503.92147  25170427.4354   25170428.7904
     -3623.2194      -2823.2874         47.7504         34.7504
 -21253865.70349 -16538085.87148  23329673.9894   23329671.8024
       194.9844        151.9364         55.0004         46.7504
 00  7  4  0 46  0.0090000  0  8G20G21G30G29G 1G11G15G25
  -9854008.14549  -7673546.10247  25874808.4894   25874807.3844
      2868.0314       2234.8304         44.5004         28.7504
 -11577886.37149  -9004745.29547  25447254.2944   25447255.5954
     -2455.3124      -1913.2314         47.0004         31.0004
  -2947789.78549  -2288017.54346  27114594.8254   27114596.1574
       180.7814        140.8694         44.0004         23.0004
  -6455664.87149  -5011011.48347  25757698.5914   25757699.5524
     -2424.9224      -1889.5504         46.5004         29.2504
  -1755526.61749  -1359554.71946  27383769.7084   27383776.1264
      2468.5474       1923.5434         39.5004         19.5004
 -18646020.96549 -14515637.79948  23815566.1854   23815564.2204
      -208.5624       -162.5164         53.0004         42.2504
 -10391760.61349  -8028721.56147  25191132.7944   25191133.6184
     -3630.3594      -2828.8514         48.5004         34.5004
 -21259459.23849 -16542444.44948  23328609.5364   23328607.2274
       177.9384        138.6534         54.0004         47.0004
 00  7  4  0 46 30.0090000  0  8G20G21G30G29G 1G11G15G25
  -9940016.07449  -7740565.18247  25858441.5444   25858440.2784
      2865.9064       2233.1744         45.0004         29.0004
 -11504072.65649  -8947228.22247  25461300.4744   25461302.1884
     -2465.5004      -1921.1694         46.0004         30.0004
  -2952958.52749  -2292044.95046  27113611.6144   27113612.9384
       163.9224        127.7314         44.5004         25.2504
  -6382897.69549  -4954309.83347  25771546.2634   25771546.4744
     -2426.1564      -1890.5114         46.7504         30.0004
  -1829518.47749  -1417210.28346  27369690.7944   27369696.1104
      2464.4064       1920.3174         42.7504         22.0004
 -18639468.94549 -14510532.34448  23816812.8884   23816810.7674
      -228.1414       -177.7724         52.7504         42.7504
 -10282733.50449  -7943765.51147  25211879.6384   25211881.0954
     -3638.0004      -2834.8054         48.2504         34.2504
 -21264530.27349 -16546395.87248  23327644.5204   23327641.9584
       160.2974        124.9074         54.5004         47.0004
 00  7  4  0 47  0.0090000  0  8G20G21G30G29G 1G11G15G25
 -10025964.55949  -7807537.92147  25842085.7944   25842084.9274
      2863.9224       2231.6274         45.2504         28.5004
 -11429961.63349  -8889479.46747  25475403.5674   25475405.0204
     -2475.2504      -1928.7664         46.2504         30.5004
  -2957627.02749  -2295682.73046  27112723.0994   27112724.9664
       147.3134        114.7894         44.0004         25.0004
  -6310101.61749  -4897585.68047  25785398.8724   25785399.2594
     -2426.9224      -1891.1084         46.0004         30.2504
  -1903390.24249  -1474772.24246  27355632.0134   27355637.1694
      2460.4224       1917.2124         41.7504         19.5004
 -18632338.02349 -14504975.79348  23818170.0204   23818168.1964
      -247.3124       -192.7114         52.7504         43.0004
 -10173487.46149  -7858638.86647  25232668.1924   25232670.2274
     -3645.1724      -2840.3944         48.2504         34.5004
 -21269080.50449 -16549941.48048  23326778.8174   23326776.7944
       143.0474        111.4654         54.5004         47.0004
 00  7  4  0 47 30.0090000  0  8G20G21G30G29G 1G11G15G25
 -10111853.66849  -7874464.39947  25825741.9034   25825740.6654
      2861.8754       2230.0324         45.0004         28.0004
 -11355555.80549  -8831500.98247  25489562.6064   25489563.9424
     -2485.1874      -1936.5104         46.5004         30.5004
  -2961795.90249  -2298931.19146  27111928.9114   27111931.2904
       130.5474        101.7254         43.7504         24.5004
  -6237278.76649  -4840840.63347  25799256.8254   25799256.8644
     -2427.9374      -1891.8994         44.5004         30.0004
  -1977143.27049  -1532241.67246  27341596.4194   27341602.7824
      2456.2814       1913.9854         40.7504         22.2504
 -18624630.56249 -14498969.98148  23819636.4584   23819634.7434
      -266.6414       -207.7724         52.5004         43.0004
 -10064026.97749  -7773345.12347  25253497.9354   25253499.7744
     -3652.3914      -2846.0194         47.7504         34.2504
 -21273111.34849 -16553082.37248  23326011.6774   23326009.2124
       125.6094         97.8774         54.7504         47.0004
 00  7  4  0 48  0.0090000  0  8G20G21G30G29G 1G11G15G25
 -10197676.69549  -7941339.39147  25809410.2634   25809409.0324
      2859.5314       2228.2064         45.5004         28.2504
 -11280849.36349  -8773288.27147  25503778.6384   25503780.6654
     -2495.3594      -1944.4364         47.0004         31.0004
  -2965458.81249  -2301785.32347  27111232.5674   27111234.3254
       113.5164         88.4544         44.0004         27.0004
  -6164424.39149  -4784071.05047  25813121.0054   25813120.8494
     -2429.1094      -1892.8124         45.2504         29.5004
  -2050772.17649  -1589614.41246  27327585.6774   27327591.7634
      2452.0944       1910.7224         42.5004         22.7504
 -18616341.46549 -14492510.95848  23821213.6694   23821211.7514
      -286.1254       -222.9554         52.5004         42.5004
  -9954350.03949  -7687882.72347  25274368.7784   25274370.6424
     -3659.6564      -2851.6804         48.2504         34.0004
 -21276617.77049 -16555814.62248  23325344.2164   23325342.0634
       108.0634         84.2054         55.5004         47.0004
 00  7  4  0 48 30.0090000  0  8G20G21G30G29G 1G11G15G25
 -10283433.00049  -8008162.39847  25793091.3564   25793090.0174
      2857.4534       2226.5874         45.2504         29.0004
 -11205843.76249  -8714842.44747  25518051.9354   25518053.1424
     -2505.1094      -1952.0334         46.0004         30.0004
  -2968615.50849  -2304245.12946  27110631.6854   27110633.6064
        96.7974         75.4264         44.0004         23.5004
  -6091539.94549  -4727278.02947  25826989.9354   25826990.0954
     -2429.9374      -1893.4584         45.0004         29.7504
  -2124277.88349  -1646891.20146  27313597.2784   27313602.9464
      2448.1724       1907.6664         40.0004         20.0004
 -18607471.74249 -14485599.50048  23822902.1694   23822899.9424
      -305.2664       -237.8694         52.5004         42.5004
  -9844460.18449  -7602254.40547  25295280.6454   25295282.2274
     -3666.4064      -2856.9404         48.2504         34.2504
 -21279600.91449 -16558139.12948  23324776.7864   23324774.6924
        90.8134         70.7634         54.2504         47.2504
 00  7  4  0 49  0.0090000  0  8G20G21G30G29G 1G11G15G25
 -10369125.30949  -8074935.52147  25776784.5444   25776783.1344
      2855.4224       2225.0044         45.5004         29.7504
 -11130544.07849  -8656167.46347  25532380.9354   25532382.8104
     -2514.8444      -1959.6194         46.2504         30.2504
  -2971269.49249  -2306313.01546  27110126.0674   27110128.9194
        80.1254         62.4354         44.2504         22.7504
  -6018630.26249  -4670465.31847  25840863.9974   25840864.0444
     -2430.5784      -1893.9574         45.0004         28.5004
  -2197664.86749  -1704075.38646  27299632.3104   27299637.7984
      2444.4064       1904.7324         41.7504         22.5004
 -18598026.40249 -14478239.50048  23824699.1384   23824697.3844
      -324.3284       -252.7234         53.0004         42.5004
  -9734364.57449  -7516465.77347  25316231.5284   25316232.9194
     -3673.1414      -2862.1874         48.2504         33.7504
 -21282065.74249 -16560059.75048  23324307.5674   23324305.1144
        73.6254         57.3704         54.5004         47.0004
 00  7  4  0 49 30.0090000  0  8G20G21G30G29G 1G11G15G25
 -10454747.22749  -8141653.80247  25760490.7554   25760490.1884
      2852.7814       2222.9464         46.2504         29.7504
 -11054945.44149  -8597259.54647  25546767.5754   25546768.9814
     -2524.9374      -1967.4844         46.5004         30.0004
  -2973414.79749  -2307984.62746  27109718.0364   27109720.2784
        62.9844         49.0794         43.5004         21.7504
  -5945690.84449  -4613629.45547  25854743.7314   25854744.4234
     -2431.8914      -1894.9804         44.5004         30.2504
  -2270927.87149  -1761162.97646  27285690.2474   27285696.2674
      2440.1564       1901.4204         42.0004         22.7504
 -18588000.89549 -14470427.43048  23826607.1774   23826605.2124
      -343.8594       -267.9424         53.2504         42.0004
  -9624061.37149  -7430515.37547  25337221.6224   25337222.9744
     -3680.2344      -2867.7154         48.0004         33.7504
 -21284007.72749 -16561572.95648  23323938.0524   23323936.0054
        56.0164         43.6494         54.0004         47.0004
 00  7  4  0 50  0.0090000  0  8G20G21G30G29G 1G11G15G25
 -10540299.65249  -8208317.93647  25744210.8414   25744209.2674
      2850.3594       2221.0594         46.0004         29.2504
 -10979051.22349  -8538121.28947  25561209.1854   25561210.2744
     -2534.9224      -1975.2644         46.2504         30.7504
  -2975053.05149  -2309261.09946  27109406.2704   27109408.5874
        45.9844         35.8324         43.7504         25.0004
  -5872724.90249  -4556772.91647  25868628.7004   25868629.2944
     -2432.7664      -1895.6624         44.0004         28.7504
  -2344069.58649  -1818156.16646  27271771.7314   27271777.0054
      2435.7814       1898.0114         41.2504         21.5004
 -18577398.08649 -14462165.50848  23828624.9194   23828623.1304
      -363.2664       -283.0644         53.0004         42.2504
  -9513555.94549  -7344407.39647  25358249.8104   25358251.6344
     -3687.0314      -2873.0114         47.7504         33.7504
 -21285429.98049 -16562681.19848  23323667.4504   23323665.4584
        38.5634         30.0494         54.7504         46.7504
 00  7  4  0 50 30.0090000  0  8G20G21G30G29G 1G11G15G25
 -10625775.02049  -8274922.02847  25727944.9504   25727944.1264
      2847.9384       2219.1724         45.5004         29.0004
 -10902855.47749  -8478748.07047  25575709.1144   25575710.7394
     -2544.7974      -1982.9594         46.0004         30.2504
  -2976177.34849  -2310137.15746  27109191.8954   27109194.4504
        28.9224         22.5374         43.0004         22.7504
  -5799727.09449  -4499891.53747  25882519.9974   25882520.7674
     -2433.7034      -1896.3924         42.5004         29.2504
  -2417084.09449  -1875050.14846  27257877.7004   27257882.9384
      2431.7664       1894.8824         43.2504         24.0004
 -18566212.77349 -14453449.69048  23830753.2164   23830751.0754
      -382.5474       -298.0884         52.0004         42.2504
  -9402845.32849  -7258139.53247  25379317.5674   25379319.3954
     -3693.7814      -2878.2714         47.7504         34.0004
 -21286326.90249 -16563380.06748  23323496.8884   23323494.6144
        21.1414         16.4734         55.0004         47.0004
 00  7  4  0 51  0.0090000  0  8G20G21G30G29G 1G11G15G25
 -10711179.32449  -8341470.72547  25711693.2784   25711692.1064
      2845.6254       2217.3704         45.7504         30.0004
 -10826366.92249  -8419146.71247  25590264.5364   25590266.3454
     -2554.5164      -1990.5324         46.2504         30.5004
  -2976794.35249  -2310617.95346  27109075.4424   27109076.8104
        12.0164          9.3634         42.7504         24.5004
  -5726705.09849  -4442991.33147  25896415.8024   25896415.8804
     -2434.5784      -1897.0744         43.2504         28.2504
  -2489978.77049  -1931850.73246  27244005.1534   27244010.7784
      2427.8754       1891.8514         41.2504         23.7504
 -18554452.96549 -14444286.20748  23832990.9664   23832988.7784
      -401.5624       -312.9064         53.2504         42.2504
  -9291939.76649  -7171719.77147  25400422.1694   25400424.3604
     -3700.1094      -2883.2024         48.0004         33.5004
 -21286706.14849 -16563675.57848  23323424.6224   23323422.0794
         4.0004          3.1174         54.7504         47.0004
 00  7  4  0 51 30.0090000  0  8G20G21G30G29G 1G11G15G25
 -10796507.33249  -8407959.98047  25695456.0604   25695454.4154
      2843.1884       2215.4714         46.0004         29.7504
 -10749582.13749  -8359314.48947  25604875.8954   25604877.5174
     -2564.1724      -1998.0564         46.0004         30.5004
  -2976899.60949  -2310699.83546  27109054.5284   27109057.2354
        -4.8444         -3.7744         43.7504         23.7504
  -5653655.90649  -4386069.94047  25910316.4744   25910316.9464
     -2435.2504      -1897.5974         42.2504         29.0004
  -2562749.87949  -1988555.14446  27230157.4194   27230161.8494
      2423.8444       1888.7094         42.7504         22.7504
 -18542115.43049 -14434672.55448  23835338.8334   23835336.6614
      -420.6414       -327.7724         53.0004         43.0004
  -9180838.51249  -7085147.51747  25421564.7784   25421565.9114
     -3706.4064      -2888.1094         48.2504         34.0004
 -21286564.62949 -16563565.28148  23323451.3254   23323448.9974
       -13.1564        -10.2524         54.2504         46.7504
 00  7  4  0 52  0.0090000  0  8G20G21G30G29G 1G11G15G25
 -10881764.29349  -8474393.85847  25679231.8414   25679230.4584
      2840.5784       2213.4384         46.5004         29.5004
 -10672508.39549  -8299257.11447  25619543.0444   25619544.2394
     -2574.0944      -2005.7874         45.0004         29.0004
  -2976498.92249  -2310387.57746  27109130.8334   27109133.2864
       -22.0314        -17.1674         43.2504         22.7504
  -5580586.98049  -4329133.16647  25924221.2784   25924221.3334
     -2436.1414      -1898.2914         40.5004         28.5004
  -2635404.24249  -2045168.51446  27216331.3804   27216336.6884
      2419.6254       1885.4224         42.5004         22.5004
 -18529207.62549 -14424614.53948  23837795.2004   23837793.3804
      -439.9374       -342.8084         52.2504         42.7504
  -9069551.46949  -6998430.49247  25442741.4894   25442743.6224
     -3712.8124      -2893.1014         47.7504         33.7504
 -21285909.46149 -16563054.74248  23323576.0364   23323573.5994
       -30.6254        -23.8644         54.0004         47.0004
 00  7  4  0 52 30.0090000  0  8G20G21G30G29G 1G11G15G25
 -10966943.96549  -8540767.53147  25663022.6224   25663020.9854
      2837.9384       2211.3804         47.0004         30.0004
 -10595141.40649  -8238971.24047  25634265.4664   25634267.0204
     -2583.8914      -2013.4214         46.0004         29.7504
  -2975587.04749  -2309676.93246  27109304.0364   27109306.9854
       -39.1414        -30.4994         43.0004         23.0004
  -5507494.22349  -4272177.80747  25938129.8804   25938130.5244
     -2436.8444      -1898.8394         42.0004         29.2504
  -2707937.23049  -2101687.32946  27202528.5444   27202533.2204
      2415.6884       1882.3544         42.5004         22.0004
 -18515725.39849 -14414108.90748  23840360.8174   23840358.7554
      -459.0944       -357.7354         52.7504         42.5004
  -8958076.98849  -6911567.42547  25463955.6144   25463956.8454
     -3719.0314      -2897.9464         48.0004         33.0004
 -21284736.91849 -16562141.04748  23323799.1534   23323797.0134
       -47.7664        -37.2204         54.0004         47.0004
 00  7  4  0 53  0.0090000  0  8G20G21G30G29G 1G11G15G25
 -11052046.19149  -8607080.85347  25646827.8954   25646827.0834
      2835.2664       2209.2984         46.5004         30.5004
 -10517483.18049  -8178458.44447  25649043.4744   25649044.5954
     -2593.6724      -2021.0434         46.5004         29.5004
  -2974164.36349  -2308568.42046  27109575.3024   27109577.1424
       -56.2194        -43.8074         43.0004         23.0004
  -5434379.39549  -4215205.27247  25952043.2164   25952044.1734
     -2437.7974      -1899.5824         41.2504         28.7504
  -2780350.47349  -2158112.81046  27188748.0284   27188753.0524
      2411.5944       1879.1644         42.5004         22.2504
 -18501670.89549 -14403157.35348  23843035.2084   23843032.7434
      -478.2344       -372.6504         53.5004         42.0004
  -8846419.62149  -6824561.82647  25485202.4194   25485204.7634
     -3725.1414      -2902.7074         48.2504         33.5004
 -21283048.99249 -16560825.76548  23324120.2784   23324117.5094
       -65.0474        -50.6864         54.0004         47.0004
 00  7  4  0 53 30.0090000  0  8G20G21G30G29G 1G11G15G25
 -11137069.91849  -8673333.02147  25630648.0444   25630647.2084
      2832.5944       2207.2164         46.7504         30.2504
 -10439534.98849  -8117719.69047  25663876.2474   25663877.8104
     -2603.2504      -2028.5064         46.7504         30.5004
  -2972230.93049  -2307061.75546  27109942.7474   27109944.8174
       -73.0164        -56.8954         43.5004         22.5004
  -5361243.46149  -4158216.28447  25965960.9664   25965961.6574
     -2438.3594      -1900.0204         42.0004         28.7504
  -2852644.32849  -2214445.27346  27174991.2634   27174995.7354
      2407.6564       1876.0964         42.5004         24.7504
 -18487045.28549 -14391760.78148  23845818.3414   23845816.3064
      -497.2034       -387.4314         53.5004         42.0004
  -8734582.69549  -6737416.34147  25506484.7314   25506485.8134
     -3731.0164      -2907.2854         48.2504         32.5004
 -21280846.62949 -16559109.61448  23324539.3494   23324537.2864
       -82.1874        -64.0424         54.0004         47.0004
 00  7  4  0 54  0.0090000  0  8G20G21G30G29G 1G11G15G25
 -11222009.47349  -8739519.57947  25614484.8024   25614483.5484
      2829.9384       2205.1464         45.7504         31.5004
 -10361293.02049  -8056752.00547  25678765.8334   25678767.1424
     -2613.0004      -2036.1044         45.7504         30.7504
  -2969781.83649  -2305153.35346  27110408.6384   27110411.4354
       -90.3124        -70.3734         42.7504         23.2504
  -5288083.03149  -4101208.19847  25979883.0444   25979883.1424
     -2439.1874      -1900.6664         43.7504         30.2504
  -2924814.73849  -2270681.58846  27161257.1304   27161261.4034
      2403.5784       1872.9184         41.5004         22.7504
 -18471845.50449 -14379916.80348  23848710.7634   23848708.7044
      -516.2344       -402.2614         54.0004         42.2504
  -8622564.97349  -6650129.95647  25527800.8494   25527802.8684
     -3736.9374      -2911.8994         48.2504         32.5004
 -21278126.14549 -16556989.74148  23325057.0754   23325054.5014
       -99.3444        -77.4114         54.5004         47.0004
 00  7  4  0 54 30.0090000  0  8G20G21G30G29G 1G11G15G25
 -11306870.29349  -8805644.81147  25598336.7474   25598335.0564
      2827.1564       2202.9794         44.7504         30.7504
 -10282764.91849  -7995561.36947  25693708.8884   25693710.2704
     -2622.5474      -2043.5434         45.7504         30.2504
  -2966823.27349  -2302847.85746  27110972.3804   27110974.1494
      -107.3284        -83.6324         42.5004         24.2504
  -5214905.39549  -4044186.71747  25993807.8884   25993808.7244
     -2439.7344      -1901.0924         44.5004         29.2504
  -2996868.79749  -2326827.27446  27147544.3254   27147549.9154
      2399.5944       1869.8134         41.5004         23.0004
 -18456078.93049 -14367631.17148  23851710.9744   23851708.9814
      -535.2664       -417.0904         53.5004         42.7504
  -8510376.43749  -6562710.48947  25549150.2004   25549151.6384
     -3742.6724      -2916.3684         48.7504         32.5004
 -21274895.32449 -16554472.19848  23325671.7554   23325670.0014
      -116.4064        -90.7064         53.5004         47.0004
 00  7  4  0 55  0.0090000  0  8G20G21G30G29G 1G11G15G25
 -11391643.82849  -8871702.01447  25582204.3884   25582203.1964
      2824.1724       2200.6534         45.0004         31.2504
 -10203944.35249  -7934142.83047  25708708.1144   25708709.5364
     -2632.4224      -2051.2384         44.5004         30.5004
  -2963347.63749  -2300139.51746  27111632.6144   27111634.8024
      -124.5474        -97.0504         42.0004         22.7504
  -5141704.19549  -3987146.87647  26007738.0204   26007738.1734
     -2440.6094      -1901.7744         44.5004         29.5004
  -3068799.70349  -2382876.87147  27133857.8174   27133862.2164
      2395.5004       1866.6234         39.7504         26.5004
 -18439739.54349 -14354899.18148  23854820.3804   23854818.1184
      -554.3284       -431.9444         52.7504         43.0004
  -8398013.34849  -6475154.97947  25570531.8414   25570533.9314
     -3748.5314      -2920.9334         47.7504         33.2504
 -21271148.16849 -16551552.31048  23326384.8804   23326382.3764
      -133.6414       -104.1364         54.2504         47.0004
 00  7  4  0 55 30.0090000  0  8G20G21G30G29G 1G11G15G25
 -11476328.75849  -8937690.18147  25566089.3174   25566088.1264
      2821.4694       2198.5474         43.7504         31.0004
 -10124832.08249  -7872497.00447  25723762.5284   25723763.9704
     -2641.8444      -2058.5804         44.0004         30.5004
  -2959354.64849  -2297028.15446  27112393.5364   27112395.0324
      -141.6564       -110.3814         42.2504         22.7504
  -5068480.13749  -3930089.23947  26021671.9744   26021672.3334
     -2441.1414      -1902.1874         44.0004         29.2504
  -3140607.75449  -2438830.86246  27120192.6854   27120196.1574
      2391.6564       1863.6284         41.7504         24.5004
 -18422828.23049 -14341721.55148  23858038.5674   23858036.5714
      -573.1254       -446.5914         53.5004         42.0004
  -8285478.36749  -6387465.56047  25591946.4504   25591948.8844
     -3753.9224      -2925.1344         48.0004         31.5004
 -21266884.91449 -16548230.27548  23327196.2944   23327194.1534
      -150.6414       -117.3824         53.5004         46.7504
 00  7  4  0 56  0.0090000  0  8G20G21G30G29G 1G11G15G25
 -11560924.77349  -9003609.08547  25549991.5284   25549989.9934
      2818.5164       2196.2464         43.7504         32.2504
 -10045430.74249  -7810625.93047  25738872.2554   25738873.5204
     -2651.4374      -2066.0554         43.5004         30.0004
  -2954845.21549  -2293514.19746  27113251.2084   27113253.1384
      -158.8444       -123.7744         43.0004         22.5004
  -4995235.17649  -3873015.30747  26035610.5754   26035610.3174
     -2441.7504      -1902.6624         43.7504         30.0004
  -3212294.70749  -2494690.47746  27106550.7004   27106554.0754
      2387.6724       1860.5244         39.5004         22.7504
 -18405347.41049 -14328100.14148  23861364.9894   23861362.9854
      -592.0784       -461.3604         53.5004         42.2504
  -8172776.09449  -6299645.77347  25613393.2554   25613395.3294
     -3759.3754      -2929.3834         47.2504         32.5004
 -21262107.81649 -16544507.83648  23328105.3494   23328103.3254
      -167.7034       -130.6784         53.5004         46.7504
 00  7  4  0 56 30.0090000  0  8G20G21G30G29G 1G11G15G25
 -11645430.00449  -9069457.23947  25533910.2474   25533908.7904
      2815.0314       2193.5314         44.2504         31.5004
  -9965740.10249  -7748529.42947  25754037.3804   25754039.2744
     -2661.4534      -2073.8604         43.2504         28.7504
  -2949818.04749  -2289596.89546  27114207.6924   27114209.4664
      -176.4064       -137.4594         43.2504         22.5004
  -4921969.52049  -3815925.24747  26049551.9744   26049552.8254
     -2442.7664      -1903.4544         44.0004         29.2504
  -3283859.97349  -2550455.25647  27092931.4504   27092936.4314
      2383.2974       1857.1144         40.2504         26.0004
 -18387297.59849 -14314035.36248  23864799.7314   23864797.4704
      -611.3914       -476.4084         52.7504         42.5004
  -8059909.13749  -6211697.66147  25634870.6144   25634873.6614
     -3765.2034      -2933.9254         47.0004         32.5004
 -21256817.48449 -16540385.47448  23329111.6384   23329109.6884
      -185.1564       -144.2784         54.0004         46.5004
 00  7  4  0 57  0.0090000  0  9G20G21G30G29G 1G11G15G25G22
 -11729839.08249  -9135230.47547  25517847.5524   25517846.3294
      2812.1254       2191.2664         44.5004         32.0004
  -9885757.11749  -7686205.12147  25769257.0134   25769259.1574
     -2670.8754      -2081.2014         44.5004         29.7504
  -2944269.41449  -2285273.28546  27115263.7084   27115265.1654
      -193.5474       -150.8164         43.0004         22.7504
  -4848679.94549  -3758816.56547  26063498.0674   26063499.3374
     -2443.2344      -1903.8194         45.0004         29.0004
  -3355300.13349  -2606122.54646  27079336.0674   27079340.6884
      2379.4844       1854.1444         38.7504         22.7504
 -18368675.98449 -14299525.02048  23868343.3174   23868341.2354
      -630.1414       -491.0194         52.7504         41.7504
  -7946876.90249  -6123620.76647  25656381.1384   25656383.0404
     -3770.3594      -2937.9424         47.0004         32.0004
 -21251010.91849 -16535860.85448  23330216.9664   23330214.6384
      -202.0164       -157.4154         54.2504         47.0004
   -105024.99259    -69043.49656  27604952.4584   27604962.4314
      3162.9064       2464.6024         37.5004         16.7504
 00  7  4  0 57 30.0090000  0  9G20G21G30G29G 1G11G15G25G22
 -11814154.94149  -9200931.06847  25501803.2394   25501801.1814
      2808.6414       2188.5514         45.2504         33.0004
  -9805487.26249  -7623657.26547  25784532.5444   25784534.3524
     -2680.6724      -2088.8354         41.5004         30.5004
  -2938202.93449  -2280546.10946  27116418.4194   27116419.8064
      -211.0784       -164.4764         41.5004         25.5004
  -4775371.35949  -3701693.05247  26077449.1854   26077449.7474
     -2444.1874      -1904.5624         44.7504         30.0004
  -3426619.44149  -2661695.73247  27065764.5994   27065768.8804
      2375.0004       1850.6494         39.0004         26.0004
 -18349488.01649 -14284573.35648  23871994.5134   23871992.5094
      -649.2504       -505.9094         51.7504         42.0004
  -7833687.05149  -6035421.05847  25677920.4194   25677922.3564
     -3775.8594      -2942.2284         47.2504         32.2504
 -21244693.15249 -16530937.90948  23331419.2164   23331416.8414
      -219.3754       -170.9424         54.5004         47.0004
   -199975.91449   -143030.76246  27586883.2634   27586892.0134
      3166.9844       2467.7804         37.5004         14.7504
 00  7  4  0 58  0.0090000  0  9G20G21G30G29G 1G11G15G25G22
 -11898377.68449  -9266559.11947  25485776.3174   25485775.0834
      2805.7504       2186.2994         44.7504         32.5004
  -9724932.91049  -7560887.76647  25799861.3104   25799863.3924
     -2689.8754      -2096.0064         45.0004         29.0004
  -2931619.82049  -2275416.32246  27117671.1854   27117672.6104
      -228.2034       -177.8214         40.5004         22.7504
  -4702046.03149  -3644556.50147  26091402.1144   26091402.8884
     -2444.5004      -1904.8054         44.5004         30.0004
  -3497820.02049  -2717176.34946  27052216.0134   27052219.7084
      2371.2504       1847.7274         40.7504         24.2504
 -18329736.13349 -14269182.29048  23875753.1854   23875751.2274
      -667.7974       -520.3614         51.5004         42.7504
  -7720344.11749  -5947102.04847  25699489.3174   25699491.0174
     -3780.6724      -2945.9784         47.0004         32.0004
 -21237867.00849 -16525618.81748  23332717.8334   23332715.9974
      -236.0314       -183.9204         53.5004         46.7504
   -295060.12549   -217121.93446  27568788.7314   27568796.8994
      3171.5944       2471.3724         38.0004         12.5004
 00  7  4  0 58 30.0090000  0  9G20G21G30G29G 1G11G15G25G22
 -11982506.81649  -9332114.21447  25469766.7164   25469765.1024
      2802.7344       2183.9494         45.7504         33.0004
  -9644095.82849  -7497897.90347  25815244.4504   25815246.3024
     -2699.2664      -2103.3244         43.7504         29.0004
  -2924521.09449  -2269884.87846  27119021.3644   27119023.6454
      -245.0944       -190.9824         38.2504         22.5004
  -4628705.50049  -3587408.10247  26105358.6854   26105359.2164
     -2444.9064      -1905.1224         44.5004         28.7504
  -3568903.16849  -2772565.51046  27038689.4894   27038692.6884
      2367.5314       1844.8304         43.0004         23.5004
 -18309422.60549 -14253353.57248  23879618.5994   23879617.0834
      -686.4534       -534.8994         52.5004         42.0004
  -7606852.13349  -5858666.91847  25721085.5524   25721088.1694
     -3785.5784      -2949.8014         46.5004         32.0004
 -21230534.39849 -16519905.07948  23334113.2784   23334111.2514
      -252.8124       -196.9974         54.0004         47.0004
   -390275.85549   -291315.48846  27550670.1774   27550677.8844
      3176.0314       2474.8304         38.2504         15.5004
 00  7  4  0 59  0.0090000  0  9G20G21G30G29G 1G11G15G25G22
 -12066537.51249  -9397592.61847  25453776.6534   25453774.9384
      2799.2034       2181.1974         46.2504         33.5004
  -9562973.84049  -7434686.07747  25830680.9274   25830683.4464
     -2708.8444      -2110.7874         43.2504         27.7504
  -2916902.68749  -2263948.35946  27120470.5914   27120473.7594
      -262.5474       -204.5824         37.5004         22.2504
  -4555347.17249  -3530245.82347  26119318.5284   26119319.3954
     -2445.7194      -1905.7554         44.5004         29.5004
  -3639865.95349  -2827860.93046  27025184.9664   27025188.1064
      2363.3134       1841.5424         42.5004         24.2504
 -18288545.30149 -14237085.54748  23883591.7004   23883589.7474
      -705.5314       -549.7654         53.0004         42.2504
  -7493211.12149  -5770115.66247  25742711.2944   25742713.6184
     -3790.6874      -2953.7824         46.5004         31.5004
 -21222693.07449 -16513794.94348  23335605.2474   23335603.1344
      -270.0474       -210.4264         54.2504         46.7504
   -485617.85549   -365607.52346  27532526.6454   27532534.5954
      3179.9224       2477.8614         38.0004         16.7504
 00  7  4  0 59 30.0090000  0  9G20G21G30G29G 1G11G15G25G22
 -12150472.30949  -9462996.30247  25437803.7554   25437801.7864
      2796.1724       2178.8354         46.5004         33.0004
  -9481571.79749  -7371256.01247  25846171.3174   25846173.8884
     -2718.0784      -2117.9834         43.2504         29.0004
  -2908768.81249  -2257610.32646  27122019.0134   27122021.2554
      -279.7814       -218.0114         37.2504         25.0004
  -4481975.70349  -3473073.34847  26133280.4274   26133281.0794
     -2445.9374      -1905.9254         44.0004         29.7504
  -3710712.52749  -2883065.71246  27011702.5524   27011706.7594
      2359.6414       1838.6814         43.2504         25.5004
 -18267109.60949 -14220382.42748  23887670.7634   23887668.9194
      -723.8594       -564.0464         52.5004         42.2504
  -7379428.26249  -5681453.87347  25764363.2784   25764366.2084
     -3795.0944      -2957.2164         45.5004         31.7504
 -21214347.93749 -16507292.21548  23337193.6144   23337191.2244
      -286.5944       -223.3204         53.7504         46.5004
   -581088.17249   -439999.52746  27514359.6454   27514365.8214
      3184.2664       2481.2464         37.5004         15.5004
 00  7  4  1  0  0.0090000  0  9G20G21G30G29G 1G11G15G25G22
 -12234305.71949  -9528320.95947  25421850.9664   25421849.3294
      2792.5944       2176.0474         48.0004         33.0004
  -9399886.41849  -7307605.17147  25861715.4814   25861717.7554
     -2727.7194      -2125.4954         43.7504         29.0004
  -2900114.96949  -2250867.06846  27123666.1144   27123668.0174
      -297.3124       -231.6724         37.0004         22.5004
  -4408587.58249  -3415887.85547  26147246.0674   26147246.9234
     -2446.6254      -1906.4614         45.0004         30.2504
  -3781438.99249  -2938176.93846  26998243.8334   26998247.1574
      2355.4384       1835.4064         44.2504         25.5004
 -18245112.34849 -14203241.70848  23891856.5134   23891855.1774
      -742.7344       -578.7544         52.2504         42.0004
  -7265502.69949  -5592680.88547  25786043.0134   25786045.3134
     -3800.0004      -2961.0394         45.0004         32.0004
 -21205495.81249 -16500394.44448  23338877.8644   23338875.6064
      -303.6564       -236.6154         53.5004         46.7504
   -676680.03549   -514486.12346  27496168.4894   27496175.0284
      3188.3444       2484.4244         37.0004         18.5004
 00  7  4  1  0 30.0090000  0  9G20G21G30G29G 1G11G15G25G22
 -12318035.09449  -9593564.58047  25405917.6144   25405915.8764
      2789.2034       2173.4054         48.2504         33.7504
  -9317917.37949  -7243733.31447  25877314.2554   25877316.4744
     -2737.0784      -2132.7884         43.2504         28.5004
  -2890939.71949  -2243717.37546  27125412.3884   27125413.5484
      -314.4534       -245.0284         37.5004         22.0004
  -4335182.28149  -3358689.00547  26161214.3724   26161214.7904
     -2447.1564      -1906.8754         45.0004         29.2504
  -3852044.44949  -2993193.84946  26984808.1064   26984811.0794
      2351.4384       1832.2894         44.5004         25.2504
 -18222553.73049 -14185663.57548  23896149.5284   23896147.4154
      -761.3444       -593.2554         51.7504         42.2504
  -7151436.42649  -5503798.26347  25807749.1454   25807751.4894
     -3804.5474      -2964.5824         44.5004         31.0004
 -21196136.89149 -16493101.76048  23340658.8724   23340656.7354
      -320.4694       -249.7164         54.7504         46.7504
   -772389.63349   -589064.62146  27477954.6534   27477961.7314
      3192.2504       2487.4684         37.5004         18.2504
 00  7  4  1  1  0.0090000  0  9G20G21G30G29G 1G11G15G25G22
 -12401659.68749  -9658726.52747  25390004.6774   25390002.8174
      2785.6564       2170.6414         48.7504         33.7504
  -9235666.36349  -7179641.69547  25892966.5834   25892968.3684
     -2746.4844      -2140.1184         43.2504         28.5004
  -2881243.68749  -2236162.06246  27127257.6224   27127258.3524
      -332.1564       -258.8234         37.0004         22.5004
  -4261761.25049  -3301477.89447  26175185.6224   26175186.6304
     -2447.7344      -1907.3254         44.7504         28.7504
  -3922530.15649  -3048117.47046  26971394.5994   26971397.9034
      2347.3754       1829.1234         44.0004         23.2504
 -18199435.95749 -14167649.74148  23900548.5284   23900547.1184
      -779.9694       -607.7684         51.7504         41.7504
  -7037233.39849  -5414809.08447  25829481.7554   25829483.9464
     -3809.0624      -2968.1014         43.7504         31.7504
 -21186272.76249 -16485415.41748  23342536.1224   23342533.6184
      -337.2504       -262.7924         53.7504         47.0004
   -868215.38349   -663733.47746  27459719.7634   27459726.0914
      3196.1254       2490.4874         37.2504         18.5004
 00  7  4  1  1 30.0090000  0  9G20G21G30G29G 1G11G15G25G22
 -12485176.07849  -9723804.16247  25374111.8174   25374110.1964
      2782.0784       2167.8534         48.0004         34.0004
  -9153132.67249  -7115329.86447  25908671.7004   25908673.9504
     -2755.8914      -2147.4474         43.5004         28.5004
  -2871025.17249  -2228199.65646  27129201.1304   27129203.6264
      -349.1564       -272.0704         37.5004         23.0004
  -4188323.26249  -3244253.53947  26189161.0674   26189161.6424
     -2448.1414      -1907.6424         45.0004         30.0004
  -3992894.59049  -3102946.61646  26958004.7704   26958007.6424
      2343.4694       1826.0804         44.0004         25.0004
 -18175758.30949 -14149199.62748  23905054.2474   23905052.3524
      -798.5164       -622.2204         52.2504         42.0004
  -6922894.70349  -5325714.17647  25851239.5524   25851241.8804
     -3813.4694      -2971.5344         44.5004         31.5004
 -21175902.96149 -16477335.03448  23344509.4974   23344507.0874
      -354.0164       -275.8564         54.5004         47.0004
   -964153.09449   -738489.75446  27441464.0284   27441469.6144
      3199.7504       2493.3124         36.5004         15.5004
 00  7  4  1  2  0.0090000  0  9G20G21G30G29G 1G11G15G25G22
 -12568581.55549  -9788795.38047  25358239.9664   25358238.2554
      2778.2974       2164.9074         47.7504         34.5004
  -9070315.96549  -7050797.47847  25924431.4424   25924433.6694
     -2765.2504      -2154.7404         42.0004         28.7504
  -2860282.32049  -2219828.50646  27131245.4354   27131248.0404
      -366.6724       -285.7184         37.2504         25.2504
  -4114867.43049  -3187015.28647  26203139.1614   26203139.6184
     -2448.8124      -1908.1664         44.5004         28.5004
  -4063136.84049  -3157680.51046  26944637.7004   26944640.9464
      2339.4224       1822.9264         44.2504         25.0004
 -18151520.82849 -14130313.29648  23909666.3174   23909664.4424
      -817.2034       -636.7824         51.5004         42.2504
  -6808422.09849  -5236514.93847  25873023.0914   25873025.7704
     -3817.9534      -2975.0284         43.2504         31.5004
 -21165027.17649 -16468860.39148  23346579.0834   23346576.5324
      -370.9694       -289.0674         54.0004         46.7504
  -1060199.38349   -813330.59546  27423185.8024   27423192.2204
      3203.3284       2496.1004         37.2504         19.2504
 00  7  4  1  2 30.0090000  0  9G20G21G30G29G 1G11G15G25G22
 -12651879.10549  -9853702.49047  25342388.9664   25342387.6534
      2774.7814       2162.1674         48.2504         35.0004
  -8987221.51249  -6986048.67547  25940243.4354   25940245.6734
     -2774.3914      -2161.8634         41.7504         28.5004
  -2849019.65249  -2211052.37747  27133389.6304   27133391.7944
      -384.0004       -299.2214         37.5004         26.0004
  -4041398.97749  -3129767.18847  26217119.8024   26217120.1774
     -2449.0944      -1908.3854         43.7504         29.5004
  -4133261.74649  -3212323.04246  26931292.7244   26931296.3104
      2335.6724       1820.0044         43.0004         23.7504
 -18126729.59449 -14110995.47148  23914384.2394   23914382.3804
      -835.5474       -651.0754         51.7504         42.0004
  -6693823.50049  -5147217.50947  25894830.5994   25894833.3104
     -3822.0004      -2978.1824         43.2504         31.0004
 -21153650.75049 -16459995.62948  23348743.7244   23348741.8104
      -387.5164       -301.9604         55.0004         46.5004
  -1156356.28949   -888257.56346  27404886.8644   27404893.9114
      3207.2344       2499.1444         38.5004         19.5004
 00  7  4  1  3  0.0090000  0  9G20G21G30G29G 1G11G15G25G22
 -12735066.52049  -9918523.78747  25326558.6534   25326556.8104
      2771.1094       2159.3064         48.5004         34.0004
  -8903849.73449  -6921083.78447  25956109.1144   25956111.0794
     -2783.6414      -2169.0714         43.0004         28.7504
  -2837236.66049  -2201870.82046  27135630.9814   27135632.7244
      -401.4064       -312.7844         38.5004         23.5004
  -3967917.99249  -3072509.32547  26231102.4034   26231103.2474
     -2449.5004      -1908.7014         42.0004         30.2504
  -4203268.77749  -3266873.67147  26917970.8804   26917973.9704
      2331.5784       1816.8144         44.0004         26.0004
 -18101385.11349 -14091246.54648  23919207.1614   23919205.4894
      -854.0004       -665.4554         52.7504         41.5004
  -6579101.57049  -5057823.99747  25916661.8564   25916664.0364
     -3826.1724      -2981.4334         43.0004         31.0004
 -21141774.36749 -16450741.29948  23351003.8104   23351001.5994
      -404.1724       -314.9394         53.7504         46.7504
  -1252620.34449   -963268.07046  27386568.7634   27386574.8764
      3210.5474       2501.7254         39.2504         19.7504
 00  7  4  1  3 30.0090000  0  9G20G21G30G29G 1G11G15G25G22
 -12818138.59049  -9983255.19347  25310750.6384   25310748.9704
      2767.1564       2156.2264         48.0004         34.7504
  -8820198.32049  -6855900.98447  25972027.6224   25972029.5444
     -2793.0164      -2176.3764         42.5004         29.2504
  -2824929.34449  -2192280.76146  27137973.3254   27137975.4894
      -418.9064       -326.4204         37.2504         24.5004
  -3894421.47349  -3015239.37447  26245089.1614   26245089.9544
     -2450.0474      -1909.1274         41.5004         29.0004
  -4273154.78949  -3321329.96546  26904672.0524   26904675.0204
      2327.5634       1813.6854         43.5004         25.5004
 -18075485.32849 -14071064.91148  23924135.6774   23924133.7164
      -872.4844       -679.8584         52.5004         41.7504
  -6464255.86349  -4968334.02147  25938516.2394   25938518.6814
     -3830.0944      -2984.4894         44.5004         30.5004
 -21129395.88349 -16441095.70548  23353359.4194   23353356.9384
      -420.8594       -327.9424         54.0004         46.7504
  -1348985.39149  -1038357.27646  27368230.8494   27368236.6774
      3213.9384       2504.3674         39.5004         19.0004
 00  7  4  1  4  0.0090000  0  9G20G21G30G29G 1G11G15G25G22
 -12901092.47349 -10047894.51247  25294965.1774   25294963.5634
      2762.9694       2152.9634         49.0004         34.7504
  -8736266.51649  -6790499.70047  25987999.6064   25988001.5564
     -2802.5314      -2183.7914         43.5004         28.5004
  -2812096.59049  -2182281.08846  27140415.5914   27140418.3564
      -436.5784       -340.1914         39.2504         25.0004
  -3820908.71149  -2957956.78747  26259078.0994   26259078.6344
     -2450.6414      -1909.5904         41.0004         28.7504
  -4342918.74249  -3375691.20346  26891396.2084   26891398.6304
      2323.3284       1810.3864         43.5004         25.0004
 -18049030.00049 -14050450.39548  23929170.0134   23929168.1694
      -891.1414       -694.3954         52.5004         42.2504
  -6349287.87149  -4878748.76147  25960393.7084   25960396.8294
     -3834.3754      -2987.8254         43.0004         31.0004
 -21116515.11749 -16431058.73448  23355810.2554   23355807.9854
      -437.8444       -341.1774         55.0004         46.7504
  -1445447.85549  -1113522.35046  27349873.7164   27349880.4114
      3216.9844       2506.7414         40.0004         20.0004
 00  7  4  1  4 30.0090000  0  9G20G21G30G29G 1G11G15G25G22
 -12983931.53549 -10112444.35447  25279201.3954   25279199.6534
      2759.3754       2150.1624         48.7504         35.2504
  -8652060.55149  -6724884.76647  26004023.3174   26004025.6814
     -2811.4374      -2190.7314         43.7504         28.2504
  -2798743.12549  -2171875.79746  27142955.7554   27142957.6694
      -453.8914       -353.6814         37.5004         24.5004
  -3747384.84849  -2900665.55247  26273069.2784   26273069.7164
     -2450.9224      -1909.8094         40.0004         29.7504
  -4412566.03949  -3429961.53146  26878142.5444   26878144.9744
      2319.5944       1807.4764         43.5004         25.5004
 -18022025.88749 -14029408.25548  23934308.8954   23934306.8134
      -909.2814       -708.5314         52.5004         42.0004
  -6234205.74249  -4789074.57847  25982293.1854   25982296.6224
     -3837.9844      -2990.6374         42.0004         31.5004
 -21103137.84049 -16420634.86848  23358356.0364   23358353.6924
      -454.1564       -353.8884         53.2504         46.7504
  -1542010.59849  -1188765.53846  27331497.8104   27331504.5134
      3220.3444       2509.3594         41.5004         20.7504
 00  7  4  1  5  0.0090000  0  9G20G21G30G29G 1G11G15G25G22
 -13066649.37149 -10176899.74647  25263460.3494   25263458.5524
      2755.2504       2146.9484         49.0004         34.5004
  -8567576.93049  -6659053.50447  26020100.3494   26020102.3884
     -2820.7504      -2197.9874         44.5004         27.5004
  -2784864.29349  -2161061.16947  27145598.0444   27145599.1534
      -471.4224       -367.3424         39.7504         26.2504
  -3673845.90649  -2843362.54747  26287063.2164   26287063.8924
     -2451.4374      -1910.2114         41.5004         30.0004
  -4482092.07449  -3484137.34546  26864911.9114   26864914.4384
      2315.5474       1804.3224         43.5004         25.5004
 -17994469.41449 -14007935.71048  23939552.6064   23939550.7594
      -927.7664       -722.9344         52.7504         42.0004
  -6119007.94549  -4699310.25347  26004214.7784   26004218.0364
     -3841.7974      -2993.6084         44.5004         30.0004
 -21089260.53549 -16409821.37348  23360996.7944   23360994.5284
      -470.8594       -366.9034         53.7504         47.0004
  -1638666.09849  -1264081.08546  27313105.1454   27313111.3494
      3223.4694       2511.7944         40.5004         21.5004
 00  7  4  1  5 30.0090000  0  9G20G21G30G29G 1G11G15G25G22
 -13149241.69149 -10241257.33547  25247743.7244   25247741.7244
      2750.7814       2143.4664         48.5004         34.5004
  -8482813.59449  -6593004.27047  26036229.7864   26036231.9584
     -2830.2034      -2205.3534         44.0004         28.2504
  -2770457.77049  -2149835.30447  27148338.5674   27148340.8024
      -489.1414       -381.1494         39.0004         26.0004
  -3600289.49249  -2786045.92847  26301060.7164   26301061.3214
     -2452.2814      -1910.8694         40.2504         28.5004
  -4551494.46549  -3538216.82246  26851704.1924   26851707.6494
      2311.2504       1800.9744         43.5004         24.5004
 -17966359.32049 -13986031.77048  23944902.0754   23944899.8374
      -946.4374       -737.4844         53.2504         42.5004
  -6003694.97749  -4609456.18947  26026158.2704   26026161.5714
     -3845.7664      -2996.7004         45.0004         31.0004
 -21074881.34049 -16398616.79348  23363733.1924   23363730.5834
      -487.7974       -380.1014         53.5004         46.7504
  -1735408.68449  -1339464.51246  27294694.8104   27294700.6694
      3225.9844       2513.7544         40.7504         21.2504
 00  7  4  1  6  0.0090000  0  9G20G21G30G29G 1G11G15G25G22
 -13231703.60949 -10305513.29947  25232051.8334   25232050.1964
      2746.5784       2140.1914         48.7504         34.7504
  -8397768.47349  -6526735.47147  26052413.2784   26052415.9194
     -2839.5314      -2212.6224         44.0004         28.0004
  -2755519.85949  -2138195.30446  27151181.0054   27151183.0054
      -506.8284       -394.9314         38.2504         24.0004
  -3526713.12549  -2728713.74347  26315061.5364   26315062.4664
     -2452.8594      -1911.3194         42.0004         29.5004
  -4620770.28149  -3592197.67546  26838521.4034   26838524.7824
      2307.0164       1797.6754         43.5004         25.0004
 -17937693.83249 -13963695.06348  23950356.8024   23950355.3524
      -964.7504       -751.7534         53.2504         41.7504
  -5888266.85549  -4519512.41147  26048123.8724   26048127.0284
     -3849.4224      -2999.5504         44.7504         30.2504
 -21059998.81249 -16387020.00448  23366565.0674   23366562.6534
      -504.4844       -393.1054         53.7504         46.5004
  -1832232.58249  -1414911.25946  27276269.4504   27276276.2084
      3228.8444       2515.9824         41.5004         20.7504
 00  7  4  1  6 30.0090000  0  9G20G21G30G29G 1G11G15G25G22
 -13314035.36349 -10369667.83247  25216384.7864   25216382.3494
      2742.0784       2136.6844         49.5004         35.5004
  -8312444.39149  -6460249.30947  26068650.5364   26068652.7904
     -2848.7974      -2219.8424         44.7504         28.5004
  -2740052.22349  -2126142.73346  27154125.2474   27154127.3214
      -524.5004       -408.7014         38.2504         24.0004
  -3453119.07049  -2671367.79547  26329066.4894   26329066.9934
     -2453.5164      -1911.8304         44.0004         29.7504
  -4689921.53549  -3646081.55847  26825362.3494   26825365.2864
      2302.8754       1794.4484         43.0004         26.7504
 -17908476.18749 -13940928.09548  23955916.7864   23955914.6734
      -983.1724       -766.1084         53.0004         42.2504
  -5772728.18749  -4429482.46747  26070109.9354   26070113.2044
     -3853.2194      -3002.5084         44.5004         31.0004
 -21044615.87549 -16375033.28948  23369491.9664   23369490.0094
      -521.1414       -406.0844         54.5004         46.7504
  -1929137.34449  -1490421.05046  27257829.1774   27257835.2314
      3231.3284       2517.9184         41.5004         20.7504
 00  7  4  1  7  0.0090000  0  9G20G21G30G29G 1G11G15G25G22
 -13396237.05949 -10433721.03547  25200741.7314   25200740.0634
      2737.8754       2133.4094         50.0004         35.0004
  -8226843.87549  -6393547.74047  26084939.9274   26084942.2434
     -2857.9064      -2226.9404         44.5004         28.5004
  -2724056.91049  -2113678.71746  27157168.2004   27157170.5174
      -541.8754       -422.2404         38.0004         23.7504
  -3379509.55549  -2614009.77147  26343074.2314   26343074.5634
     -2453.9694      -1912.1834         45.0004         29.5004
  -4758950.44949  -3699870.10446  26812226.1614   26812228.8494
      2298.8284       1791.2954         43.0004         24.7504
 -17878709.71949 -13917733.47648  23961581.2244   23961579.0564
     -1001.3444       -780.2684         52.7504         41.7504
  -5657083.95749  -4339370.29247  26092116.6614   26092119.9974
     -3856.5164      -3005.0774         44.5004         30.0004
 -21028735.57449 -16362659.02248  23372513.8494   23372511.9234
      -537.6254       -418.9294         54.2504         46.7504
  -2026122.48849  -1565993.40546  27239373.1384   27239378.5364
      3234.1564       2520.1224         42.2504         22.5004
 00  7  4  1  7 30.0090000  0  9G20G21G30G29G 1G11G15G25G22
 -13478304.67249 -10497669.76147  25185124.9354   25185123.1424
      2733.2034       2129.7694         49.5004         35.5004
  -8140965.71149  -6326629.81647  26101282.0674   26101284.2944
     -2867.3914      -2234.3304         44.5004         28.2504
  -2707531.57449  -2100801.71746  27160313.0134   27160315.2434
      -559.8914       -436.2784         37.5004         23.2504
  -3305882.67249  -2556638.28147  26357084.6774   26357085.4624
     -2454.7344      -1912.7804         46.0004         29.5004
  -4827854.99649  -3753561.69947  26799114.2944   26799116.5324
      2294.5944       1787.9954         42.5004         26.2504
 -17848393.58649 -13894110.54848  23967350.1384   23967348.0994
     -1019.8284       -794.6714         52.5004         42.0004
  -5541334.85549  -4249176.39647  26114142.4814   26114146.5204
     -3860.1254      -3007.8904         44.2504         29.5004
 -21012356.54749 -16349896.14248  23375630.8564   23375628.4424
      -554.4844       -432.0664         54.5004         46.5004
  -2123182.69149  -1641624.29346  27220903.0914   27220908.8374
      3236.4534       2521.9124         42.0004         21.0004
 00  7  4  1  8  0.0090000  0  9G20G21G30G29G 1G11G15G25G22
 -13560235.91849 -10561512.22147  25169533.5604   25169532.1534
      2728.7504       2126.2994         49.0004         35.5004
  -8054810.62549  -6259496.12147  26117676.4034   26117679.3374
     -2876.4534      -2241.3924         44.5004         27.7504
  -2690475.88749  -2087511.67846  27163558.8644   27163560.4584
      -577.4694       -449.9764         37.2504         24.0004
  -3232238.50049  -2499253.27647  26371098.7394   26371099.5284
     -2455.0784      -1913.0484         45.2504         29.2504
  -4896634.87549  -3807156.13346  26786025.2474   26786027.9664
      2290.4844       1784.7934         43.2504         24.5004
 -17817528.96149 -13870060.23448  23973223.4894   23973221.7634
     -1037.8754       -808.7344         53.0004         41.7504
  -5425483.67649  -4158902.94847  26136189.3954   26136192.5994
     -3863.3594      -3010.4104         45.0004         29.5004
 -20995480.12149 -16336745.66548  23378842.3104   23378839.9034
      -570.7814       -444.7654         54.7504         46.7504
  -2220314.64549  -1717311.09046  27202418.5204   27202424.5564
      3238.9844       2523.8844         42.0004         22.0004
 00  7  4  1  8 30.0090000  0  9G20G21G30G29G 1G11G15G25G22
 -13642033.90649 -10625250.84247  25153968.0754   25153966.1144
      2724.1414       2122.7074         49.0004         35.5004
  -7968383.83649  -6192150.68247  26134123.2084   26134125.5914
     -2885.7344      -2248.6244         44.0004         27.5004
  -2672894.72349  -2073812.03946  27166904.5284   27166906.3024
      -595.2344       -463.8194         37.7504         23.7504
  -3158581.95749  -2441858.66247  26385114.7944   26385116.1344
     -2455.6414      -1913.4864         44.5004         28.5004
  -4965295.16449  -3860657.44246  26772960.0604   26772962.2554
      2286.5164       1781.7004         43.0004         25.0004
 -17786122.17249 -13845587.45348  23979199.9664   23979197.9354
     -1056.1094       -822.9424         52.5004         42.0004
  -5309537.85949  -4068555.78147  26158252.9274   26158256.0994
     -3866.6094      -3012.9424         44.5004         28.7504
 -20978111.66449 -16323211.79648  23382147.5284   23382145.2594
      -587.3284       -457.6584         54.0004         46.7504
  -2317520.44149  -1793055.41846  27183920.7704   27183926.2904
      3241.2344       2525.6374         42.5004         22.7504
 00  7  4  1  9  0.0090000  0  9G20G21G30G29G 1G11G15G25G22
 -13723695.52349 -10688883.21847  25138428.3334   25138426.7514
      2719.6414       2119.2004         50.0004         36.0004
  -7881685.21149  -6124593.41747  26150621.5444   26150624.4894
     -2894.5474      -2255.4914         44.5004         26.0004
  -2654787.09449  -2059702.16046  27170350.2474   27170351.5284
      -612.4224       -477.2124         37.2504         25.2504
  -3084912.41449  -2384453.88647  26399133.9744   26399134.7274
     -2455.9224      -1913.7054         44.0004         28.7504
  -5033834.78149  -3914064.69646  26759917.3104   26759919.3994
      2282.6094       1778.6574         43.7504         25.5004
 -17754173.32449 -13820692.27048  23985279.3724   23985277.9274
     -1074.0784       -836.9444         53.0004         41.5004
  -5193499.12549  -3978136.20447  26180334.5134   26180338.2744
     -3869.6094      -3015.2804         44.2504         29.0004
 -20960251.25849 -16309294.59148  23385546.2164   23385543.6064
      -603.5944       -470.3334         54.0004         46.5004
  -2414796.42649  -1868854.46646  27165409.7244   27165415.3214
      3243.5474       2527.4394         41.5004         22.0004
 00  7  4  1  9 30.0090000  0  9G20G21G30G29G 1G11G15G25G22
 -13805218.87149 -10752407.84547  25122915.0914   25122913.7394
      2714.8914       2115.4994         49.7504         36.0004
  -7794715.72749  -6056825.13747  26167171.9894   26167173.9074
     -2903.7664      -2262.6754         44.0004         27.5004
  -2636152.41049  -2045181.71946  27173895.5914   27173897.7784
      -630.2974       -491.1404         37.2504         23.7504
  -3011229.77749  -2327038.92147  26413155.5604   26413155.8064
     -2456.4694      -1914.1314         45.0004         28.5004
  -5102253.69549  -3967377.91447  26746897.1064   26746899.7354
      2278.3914       1775.3694         42.2504         26.5004
 -17721683.57049 -13795375.62248  23991462.3564   23991460.1924
     -1092.2344       -851.0924         52.2504         41.5004
  -5077370.40249  -3887646.50747  26202433.0914   26202437.2244
     -3872.6564      -3017.6544         44.0004         29.2504
 -20941900.16849 -16294995.03648  23389038.4584   23389036.2314
      -620.0944       -483.1904         54.0004         46.2504
  -2512140.02749  -1944706.21146  27146885.0604   27146890.9584
      3245.6884       2529.1074         41.5004         22.5004
 00  7  4  1 10  0.0090000  0  9G20G21G30G29G 1G11G15G25G22
 -13886596.09449 -10815818.61347  25107429.7084   25107427.7354
      2710.3754       2111.9814         49.5004         35.7504
  -7707470.43049  -5988841.90347  26183773.9664   26183776.6104
     -2912.5474      -2269.5174         43.5004         28.0004
  -2616984.96549  -2030246.05246  27177543.1064   27177545.6224
      -647.5784       -504.6064         39.2504         21.5004
  -2937528.47349  -2269609.37947  26427180.1064   26427181.0634
     -2456.8284      -1914.4124         45.2504         29.5004
  -5170545.99649  -4020592.49547  26733900.6614   26733903.8134
      2274.4534       1772.3014         41.5004         25.7504
 -17688648.44149 -13769633.99748  23997748.7164   23997746.9034
     -1110.0474       -864.9724         52.5004         42.2504
  -4961148.36349  -3797084.09047  26224549.6694   26224553.3804
     -3875.3754      -3019.7734         43.7504         29.2504
 -20923053.26249 -16280309.13248  23392624.6454   23392622.5204
      -636.2504       -495.7794         54.2504         46.5004
  -2609541.74249  -2020603.21446  27128350.1064   27128355.2634
      3247.8914       2530.8244         41.2504         22.5004
 00  7  4  1 10 30.0090000  0  9G20G21G30G29G 1G11G15G25G22
 -13967834.74649 -10879121.39947  25091970.0444   25091968.3064
      2705.6254       2108.2794         49.2504         36.0004
  -7619959.68449  -5920651.83447  26200426.3724   26200429.2634
     -2921.4374      -2276.4454         43.7504         27.5004
  -2597294.01649  -2014902.48746  27181290.7944   27181292.7124
      -665.2664       -518.3894         42.0004         22.5004
  -2863818.28549  -2212172.95847  26441206.8724   26441207.6454
     -2457.1564      -1914.6674         45.2504         28.2504
  -5238721.43049  -4073716.00346  26720927.6534   26720930.4854
      2270.4694       1769.1964         41.0004         25.5004
 -17655079.21149 -13743476.18948  24004136.5674   24004134.7984
     -1127.8594       -878.8514         52.5004         41.0004
  -4844845.67649  -3706458.84747  26246680.9894   26246685.1734
     -3877.9844      -3021.8064         43.0004         28.0004
 -20903721.52049 -16265245.43048  23396303.3104   23396301.0244
      -652.4844       -508.4294         55.0004         47.0004
  -2707008.31249  -2096550.74646  27109802.2394   27109807.6454
      3249.9534       2532.4314         43.0004         22.7504
 00  7  4  1 11  0.0090000  0  9G20G21G30G29G 1G11G15G25G22
 -14048927.46949 -10942310.47147  25076538.6774   25076536.9194
      2700.7664       2104.4934         49.7504         36.2504
  -7532178.85949  -5852251.34647  26217130.5054   26217133.4114
     -2930.4064      -2283.4334         44.0004         26.5004
  -2577074.23449  -1999146.83446  27185138.4504   27185140.2744
      -682.7034       -531.9764         42.2504         23.7504
  -2790093.94949  -2154725.46047  26455235.5204   26455237.1494
     -2457.6094      -1915.0204         45.0004         28.5004
  -5306774.63749  -4126744.28146  26707977.3334   26707979.9384
      2266.4534       1766.0674         41.5004         24.5004
 -17620971.58649 -13716898.84548  24010626.9274   24010625.8604
     -1145.8124       -892.8414         53.0004         42.0004
  -4728459.65649  -3615768.68647  26268829.1854   26268832.9704
     -3880.7194      -3023.9374         44.5004         28.0004
 -20883900.59449 -16249800.55348  23400075.2944   23400073.1964
      -668.7814       -521.1284         54.5004         46.5004
  -2804531.47349  -2172542.37346  27091244.0054   27091249.0444
      3251.7814       2533.8564         41.5004         23.0004
 00  7  4  1 11 30.0090000  0  9G20G21G30G29G 1G11G15G25G22
 -14129871.38749 -11005383.60447  25061135.3494   25061133.0634
      2695.5314       2100.4144         49.0004         35.7504
  -7444127.83649  -5783640.27947  26233886.3884   26233889.1774
     -2939.6094      -2290.6054         44.7504         26.2504
  -2556324.84849  -1982978.40546  27189086.3564   27189088.5324
      -700.6254       -545.9424         41.7504         22.5004
  -2716354.75849  -2097266.38547  26469268.1774   26469269.5874
     -2458.3594      -1915.6054         44.7504         28.2504
  -5374704.94149  -4179676.83047  26695050.2634   26695052.8064
      2262.1724       1762.7314         41.2504         27.0004
 -17586326.25449 -13689902.51948  24017220.0914   24017218.1344
     -1163.8444       -906.8914         53.0004         41.7504
  -4611992.36749  -3525015.17147  26290992.3024   26290995.8174
     -3883.6564      -3026.2264         44.5004         28.2504
 -20863590.50849 -16233974.49948  23403940.0754   23403937.7904
      -685.2034       -533.9254         54.2504         46.2504
  -2902107.95749  -2248575.60046  27072676.1144   27072680.5754
      3253.3914       2535.1104         41.7504         23.5004
 00  7  4  1 12  0.0090000  0  9G20G21G30G29G 1G11G15G25G22
 -14210667.48849 -11068341.54447  25045760.6384   25045758.7904
      2690.7814       2096.7134         49.2504         36.2504
  -7355810.59449  -5714821.76647  26250692.7394   26250695.5634
     -2948.4064      -2297.4594         45.0004         28.0004
  -2535048.94949  -1966399.74146  27193135.0444   27193137.5714
      -717.9534       -559.4444         42.7504         22.7504
  -2642603.86349  -2039798.23547  26483302.9664   26483303.7274
     -2458.6094      -1915.8004         44.2504         28.5004
  -5442515.46549  -4232516.03447  26682146.7084   26682149.3844
      2258.3134       1759.7244         40.0004         27.0004
 -17551147.73049 -13662490.71448  24023914.3174   24023912.6454
     -1181.4694       -920.6254         53.0004         41.7504
  -4495449.27749  -3434202.58547  26313170.5524   26313174.0284
     -3885.9064      -3027.9794         44.2504         28.0004
 -20842795.02349 -16217770.22748  23407897.4814   23407895.2244
      -701.2034       -546.3924         54.5004         46.5004
  -2999737.64849  -2324650.26446  27054097.2084   27054102.1494
      3255.2194       2536.5344         39.7504         22.5004
 00  7  4  1 12 30.0090000  0  9G20G21G30G29G 1G11G15G25G22
 -14291313.00849 -11131182.16047  25030413.9894   25030412.5204
      2685.6564       2092.7194         49.7504         36.0004
  -7267227.39149  -5645796.04547  26267549.5444   26267552.3564
     -2957.2504      -2304.3514         44.5004         27.5004
  -2513245.71549  -1949410.20146  27197283.9974   27197286.3884
      -735.5944       -573.1904         42.7504         22.0004
  -2568840.69549  -1982320.48747  26497339.2634   26497340.3524
     -2459.0474      -1916.1404         44.0004         29.2504
  -5510205.24249  -4285261.10747  26669266.0054   26669267.5284
      2254.2814       1756.5834         40.0004         27.0004
 -17515436.41449 -13634663.73148  24030709.7634   24030708.1964
     -1199.2504       -934.4814         52.7504         42.0004
  -4378832.32849  -3343332.48047  26335361.7084   26335365.2674
     -3888.4064      -3029.9274         44.5004         27.5004
 -20821514.95349 -16201188.34548  23411946.7784   23411944.6024
      -717.3284       -558.9574         53.5004         46.5004
  -3097416.39849  -2400763.20346  27035509.7394   27035514.1424
      3256.6094       2537.6184         38.7504         24.0004
 00  7  4  1 13  0.0090000  0  9G20G21G30G29G 1G11G15G25G22
 -14371806.32449 -11193904.17547  25015096.8334   25015095.0014
      2680.5004       2088.7014         49.5004         35.7504
  -7178379.42649  -5576563.99947  26284457.2704   26284459.8334
     -2966.0164      -2311.1814         45.2504         28.0004
  -2490915.72349  -1932010.19346  27201533.8494   27201535.8924
      -753.0474       -586.7904         43.2504         23.7504
  -2495065.71949  -1924833.53347  26511378.0994   26511379.6064
     -2459.3754      -1916.3964         43.7504         28.0004
  -5577774.83249  -4337912.57747  26656408.0134   26656409.9664
      2250.1254       1753.3444         40.5004         28.2504
 -17479194.61749 -13606423.41348  24037606.5834   24037604.9114
     -1216.9534       -948.2754         52.0004         41.5004
  -4262145.07449  -3252407.57547  26357567.0754   26357570.3844
     -3890.8284      -3031.8144         44.5004         28.0004
 -20799752.18749 -16184230.35248  23416088.2244   23416086.0524
      -733.5944       -571.6314         54.0004         46.2504
  -3195141.73049  -2476912.41147  27016911.8104   27016916.7984
      3258.2194       2538.8724         39.7504         26.0004
 00  7  4  1 13 30.0090000  0  9G20G21G30G29G 1G11G15G25G22
 -14452145.43049 -11256506.02547  24999808.1384   24999806.8064
      2675.1414       2084.5254         50.0004         36.5004
  -7089267.55149  -5507126.31947  26301414.7084   26301417.3454
     -2975.0004      -2318.1824         45.5004         27.0004
  -2468059.26249  -1914199.98146  27205882.4194   27205885.5874
      -770.9064       -600.7064         41.5004         22.7504
  -2421279.22349  -1867337.63147  26525419.5364   26525420.6854
     -2459.9064      -1916.8104         44.2504         28.0004
  -5645224.19549  -4390470.40347  26643571.9194   26643574.1064
      2246.1884       1750.2764         39.5004         26.7504
 -17442423.81249 -13577770.87048  24044603.8334   24044602.3374
     -1234.6874       -962.0944         52.7504         41.0004
  -4145390.12149  -3161429.93247  26379784.3174   26379788.3104
     -3893.1094      -3033.5924         43.7504         28.0004
 -20777507.81249 -16166897.06448  23420321.3494   23420318.8684
      -749.7034       -584.1844         53.5004         46.5004
  -3292910.70349  -2553095.59946  26998306.6064   26998311.4744
      3259.5164       2539.8824         40.5004         22.7504
 00  7  4  1 14  0.0090000  0  9G20G21G30G29G 1G11G15G25G22
 -14532328.04749 -11318985.93147  24984550.4504   24984548.3924
      2669.9844       2080.5074         48.0004         36.5004
  -6999892.48049  -5437483.56047  26318422.4814   26318425.0604
     -2983.6874      -2324.9514         45.2504         28.0004
  -2444675.93449  -1895979.25646  27210332.6854   27210334.5204
      -788.3594       -614.3064         41.5004         22.7504
  -2347481.09049  -1809832.65347  26539462.6924   26539463.8604
     -2460.2504      -1917.0784         44.0004         28.0004
  -5712553.32449  -4442934.47647  26630760.0524   26630761.7744
      2242.1724       1747.1474         38.7504         26.5004
 -17405125.21949 -13548707.05948  24051701.4274   24051699.7784
     -1252.2034       -975.7434         52.0004         41.0004
  -4028570.45749  -3070401.87447  26402014.5914   26402018.8334
     -3895.2034      -3035.2234         43.7504         27.2504
 -20754782.31649 -16149188.88248  23424645.6534   23424643.0714
      -765.6564       -596.6154         54.0004         46.2504
  -3390720.67649  -2629310.80046  26979693.5364   26979699.0634
      3260.8914       2540.9544         38.7504         24.5004
 00  7  4  1 14 30.0090000  0  9G20G21G30G29G 1G11G15G25G22
 -14612350.31649 -11381340.89747  24969322.5834   24969320.5284
      2664.9224       2076.5634         49.0004         36.5004
  -6910253.09449  -5367634.79147  26335480.3174   26335483.5484
     -2992.1564      -2331.5504         45.7504         26.5004
  -2420763.86349  -1877346.49746  27214883.1224   27214885.4664
      -805.6254       -627.7604         42.0004         22.5004
  -2273669.47749  -1752317.14247  26553508.4504   26553509.8884
     -2460.4694      -1917.2484         44.0004         29.0004
  -5779760.33249  -4495303.41247  26617970.8724   26617973.0634
      2238.4224       1744.2254         39.5004         27.0004
 -17367298.54349 -13519231.76648  24058899.8254   24058898.0674
     -1269.4374       -989.1724         51.7504         42.0004
  -3911686.71949  -2979323.88047  26424257.1224   26424261.5874
     -3896.9534      -3036.5874         44.0004         27.7504
 -20731575.45349 -16131105.61048  23429061.8564   23429059.3644
      -781.2974       -608.8034         54.0004         46.5004
  -3488566.57849  -2705554.01046  26961074.7004   26961078.9814
      3262.3134       2542.0624         40.7504         24.5004
 00  7  4  1 15  0.0090000  0  9G20G21G30G29G 1G11G15G25G22
 -14692214.35249 -11443572.56347  24954125.0134   24954122.9074
      2659.4694       2072.3134         48.5004         37.2504
  -6820354.25449  -5297583.90647  26352587.7944   26352590.3134
     -3000.8754      -2338.3444         45.2504         28.0004
  -2396327.41849  -1858305.10046  27219532.9034   27219534.7044
      -823.2194       -641.4694         42.0004         22.7504
  -2199848.82049  -1694794.61747  26567557.2164   26567557.6774
     -2460.7504      -1917.4684         44.0004         28.0004
  -5846849.47749  -4547580.55547  26605204.6694   26605205.6694
      2234.4694       1741.1444         41.7504         27.7504
 -17328949.50849 -13489349.44148  24066197.0674   24066195.6964
     -1286.9064      -1002.7844         51.7504         41.2504
  -3794746.02049  -2888201.47747  26446510.1304   26446514.6774
     -3899.0164      -3038.1944         44.5004         27.5004
 -20707892.43749 -16112651.31648  23433568.6304   23433566.3374
      -797.2814       -621.2584         55.0004         46.5004
  -3586449.14549  -2781825.74646  26942447.6384   26942452.1884
      3263.3914       2542.9024         41.0004         25.0004
 00  7  4  1 15 30.0090000  0  9G20G21G30G29G 1G11G15G25G22
 -14771915.25049 -11505677.10547  24938958.2164   24938956.3804
      2653.9534       2068.0154         46.7504         36.7504
  -6730194.45749  -5227329.67047  26369744.5754   26369747.3494
     -3009.7814      -2345.2844         45.0004         26.7504
  -2371364.08249  -1838853.14846  27224283.5444   27224285.4704
      -840.9064       -655.2524         42.0004         22.0004
  -2126016.27349  -1637262.80347  26581606.3174   26581607.8414
     -2461.2974      -1917.8944         43.5004         27.2504
  -5913818.02349  -4599763.69847  26592460.0674   26592462.4354
      2230.2664       1737.8694         40.0004         27.5004
 -17290077.15249 -13459059.32048  24073594.3334   24073592.6304
     -1304.4374      -1016.4454         51.0004         41.2504
  -3677748.15649  -2797034.56747  26468774.2394   26468778.9464
     -3900.8754      -3039.6434         44.0004         27.5004
 -20683731.43749 -16093824.55448  23438166.4744   23438164.2314
      -813.3124       -633.7504         54.2504         46.2504
  -3684362.60549  -2858121.63846  26923814.8024   26923819.9504
      3264.2344       2543.5594         42.7504         24.0004
 00  7  4  1 16  0.0090000  0  9G20G21G30G29G 1G11G15G25G22
 -14851447.54749 -11567650.26547  24923823.7394   24923821.6854
      2648.3134       2063.6204         47.5004         36.5004
  -6639771.44149  -5156870.31847  26386951.9114   26386954.2004
     -3018.4534      -2352.0414         45.2504         27.5004
  -2345870.74649  -1818988.23646  27229134.4744   27229136.6424
      -858.5314       -668.9854         42.7504         22.0004
  -2052168.65249  -1579719.26847  26595659.0914   26595660.4974
     -2461.6874      -1918.1984         43.7504         27.5004
  -5980662.90249  -4651850.43547  26579739.7314   26579741.9894
      2226.1094       1734.6314         40.0004         26.7504
 -17250679.59449 -13428359.95748  24081091.6694   24081090.0524
     -1321.9064      -1030.0574         51.5004         41.5004
  -3560692.60549  -2705822.69647  26491049.5674   26491053.9464
     -3902.7344      -3041.0924         43.0004         26.7504
 -20659090.75049 -16074624.01348  23442855.2004   23442852.7824
      -829.2664       -646.1814         54.0004         46.5004
  -3782300.81649  -2934436.77147  26905177.9114   26905182.6774
      3265.0784       2544.2174         43.0004         26.2504
 00  7  4  1 16 30.0090000  0  9G20G21G30G29G 1G11G15G25G22
 -14930810.90249 -11629491.79047  24908721.3024   24908719.2394
      2642.2974       2058.9334         48.2504         37.0004
  -6549087.31249  -5086207.54247  26404207.7784   26404211.4194
     -3027.4064      -2359.0184         45.7504         27.0004
  -2319849.30949  -1798711.71546  27234086.5204   27234088.2274
      -876.5474       -683.0244         42.7504         22.2504
  -1978307.74249  -1522165.33547  26609714.6064   26609715.6144
     -2462.6254      -1918.9294         43.7504         27.2504
  -6047385.48049  -4703841.89647  26567043.1144   26567044.7704
      2221.6724       1731.1734         43.5004         27.0004
 -17210760.03549 -13397253.83948  24088688.4034   24088686.4154
     -1339.7344      -1043.9494         51.7504         41.7504
  -3443583.51249  -2614569.08347  26513335.0994   26513339.4894
     -3904.8444      -3042.7354         41.2504         25.7504
 -20633973.28949 -16055051.97048  23447634.8564   23447632.4504
      -845.5784       -658.8924         54.2504         46.5004
  -3880262.73849  -3010770.39646  26886535.7784   26886540.4424
      3265.4534       2544.5094         43.7504         25.5004
 00  7  4  1 17  0.0090000  0  9G20G21G30G29G 1G11G15G25G22
 -15010000.09449 -11691197.59147  24893652.1614   24893650.3764
      2636.9384       2054.7564         49.7504         36.2504
  -6458140.16449  -5015339.78447  26421515.0604   26421518.1064
     -3035.7504      -2365.5194         44.2504         27.7504
  -2293296.80549  -1778021.42246  27239139.3334   27239141.3604
      -893.6414       -696.3434         42.5004         22.5004
  -1904430.58649  -1464598.81147  26623772.8024   26623773.7984
     -2462.5624      -1918.8804         44.0004         27.0004
  -6113983.00449  -4755735.91947  26554370.2704   26554370.8524
      2218.0004       1728.3124         43.7504         26.2504
 -17170316.96149 -13365739.78948  24096384.2314   24096382.5604
     -1356.6254      -1057.1104         52.5004         41.5004
  -3326420.52749  -2523273.49047  26535630.6064   26535635.1654
     -3906.1874      -3043.7824         43.2504         27.5004
 -20608377.24249 -16035106.99048  23452505.6854   23452503.4744
      -861.0164       -670.9214         54.0004         46.5004
  -3978242.02349  -3087117.53046  26867891.2394   26867895.4544
      3266.4224       2545.2644         44.2504         25.2504
 00  7  4  1 17 30.0090000  0  9G20G21G30G29G 1G11G15G25G22
 -15089021.63749 -11752772.76047  24878614.6774   24878612.1924
      2630.8914       2050.0454         50.2504         37.0004
  -6366939.38349  -4944274.39747  26438870.1304   26438873.2274
     -3044.5784      -2372.3994         45.0004         27.7504
  -2266222.22349  -1756924.41646  27244292.1064   27244293.1494
      -911.4374       -710.2114         42.2504         23.0004
  -1830545.77049  -1407026.26147  26637832.8334   26637834.1144
     -2463.3914      -1919.5254         43.7504         27.2504
  -6180463.98849  -4807539.11647  26541719.1854   26541719.8804
      2213.7974       1725.0374         46.0004         29.7504
 -17129360.77049 -13333825.91148  24104178.1614   24104176.4974
     -1374.0784      -1070.7104         52.7504         41.2504
  -3209214.96149  -2431944.74047  26557934.1144   26557938.0244
     -3907.8594      -3045.0854         40.2504         26.0004
 -20582312.29349 -16014796.63948  23457465.7004   23457463.6024
      -876.9374       -683.3284         53.5004         46.5004
  -4076243.85549  -3163482.27947  26849242.0754   26849246.4814
      3266.8754       2545.6174         42.7504         26.0004
 00  7  4  1 18  0.0090000  0  9G20G21G30G29G 1G11G15G25G22
 -15167867.56649 -11814211.08347  24863610.8564   24863608.8294
      2625.4534       2045.8084         49.0004         36.7504
  -6275480.03149  -4873007.52747  26456274.4744   26456277.5284
     -3052.7194      -2378.7424         44.5004         27.2504
  -2238620.10549  -1735416.29746  27249543.9114   27249546.0244
      -928.6414       -723.6164         41.7504         22.0004
  -1756647.60249  -1349443.33547  26651894.6144   26651896.1024
     -2463.2034      -1919.3794         42.5004         28.2504
  -6246822.50449  -4859246.89647  26529091.0054   26529091.8994
      2210.1564       1722.2004         44.5004         27.7504
 -17087887.28549 -13301508.92648  24112070.1694   24112068.5914
     -1390.7974      -1083.7384         51.7504         41.7504
  -3091963.73849  -2340580.40247  26580246.5284   26580251.2164
     -3908.9064      -3045.9014         39.5004         26.0004
 -20555773.84449 -15994117.30948  23462515.6694   23462513.2594
      -892.2194       -695.2354         54.0004         46.2504
  -4174259.21949  -3239857.57847  26830590.0834   26830593.7984
      3267.7034       2546.2624         43.5004         26.2504
 00  7  4  1 18 30.0090000  0  9G20G21G30G29G 1G11G15G25G22
 -15246538.78149 -11875513.25847  24848640.0054   24848638.4624
      2619.5784       2041.2304         47.2504         37.0004
  -6183766.81249  -4801542.84047  26473726.7394   26473729.8844
     -3061.0944      -2385.2684         44.5004         26.5004
  -2210493.40249  -1713499.43046  27254896.3174   27254898.3954
      -946.1874       -737.2894         39.0004         22.2504
  -1682739.10549  -1291852.40047  26665958.8254   26665961.5174
     -2463.5314      -1919.6354         42.2504         28.0004
  -6313061.86349  -4910861.80947  26516486.2314   26516486.8844
      2206.1564       1719.0834         43.0004         28.5004
 -17045901.36749 -13268792.64348  24120059.6924   24120058.3524
     -1407.9064      -1097.0704         51.0004         41.5004
  -2974672.72349  -2249185.07147  26602566.4274   26602571.5444
     -3910.2194      -3046.9244         39.0004         27.0004
 -20528766.13749 -15973072.34348  23467655.0364   23467652.7164
      -907.8594       -707.4234         53.7504         46.5004
  -4272288.57849  -3316243.78447  26811935.2084   26811939.6304
      3267.9694       2546.4694         43.0004         26.0004
 00  7  4  1 19  0.0090000  0  9G20G21G30G29G 1G11G15G25G22
 -15325034.98849 -11936679.07647  24833702.4974   24833700.8804
      2613.4384       2036.4454         47.5004         37.0004
  -6091801.89549  -4729882.01946  26491227.6534   26491230.4464
     -3069.8594      -2392.0984         44.2504         25.2504
  -2181844.19149  -1691175.38546  27260348.1534   27260350.0914
      -964.0314       -751.1934         36.5004         22.2504
  -1608822.01649  -1234254.70347  26680025.6454   26680026.8954
     -2464.2814      -1920.2194         40.7504         27.5004
  -6379183.91449  -4962385.33547  26503904.0204   26503904.7044
      2201.9224       1715.7834         45.7504         28.7504
 -17003406.32049 -13235679.65948  24128146.2244   24128144.5914
     -1425.2034      -1110.5484         50.5004         40.7504
  -2857346.38349  -2157762.22047  26624892.8644   26624897.5714
     -3911.5624      -3047.9714         39.5004         26.5004
 -20501292.25449 -15951664.12048  23472883.1534   23472880.9744
      -923.7194       -719.7814         53.2504         46.2504
  -4370330.68049  -3392639.94047  26793277.7864   26793281.8994
      3268.1254       2546.5914         43.7504         26.2504
 00  7  4  1 19 30.0090000  0  9G20G21G30G29G 1G11G15G25G22
 -15403350.40249 -11997704.00347  24818799.5604   24818797.7164
      2607.2814       2031.6484         47.0004         37.5004
  -5999582.83649  -4658023.16247  26508776.4274   26508779.1184
     -3078.3284      -2398.6974         44.5004         26.2504
  -2152669.47749  -1668441.80646  27265899.7864   27265901.6694
      -981.4224       -764.7444         42.0004         22.0004
  -1534892.82649  -1176647.66247  26694093.4894   26694094.9114
     -2464.7194      -1920.5604         38.5004         28.0004
  -6445185.12549  -5013814.67847  26491343.0284   26491345.3764
      2197.9224       1712.6664         43.0004         28.0004
 -16960400.53549 -13202168.68148  24136330.2164   24136328.8724
     -1442.2344      -1123.8194         49.7504         41.5004
  -2739983.82849  -2066311.14846  26647226.5754   26647231.3174
     -3912.7664      -3048.9084         38.5004         24.2504
 -20473350.31649 -15929891.18148  23478200.5364   23478198.1694
      -939.3594       -731.9684         54.0004         46.0004
  -4468378.60249  -3469040.61846  26774620.1384   26774624.3724
      3268.1564       2546.6154         44.7504         25.5004
 00  7  4  1 20  0.0090000  0  9G20G21G30G29G 1G11G15G25G22
 -15481487.79349 -12058590.21247  24803930.5524   24803928.6454
      2601.6094       2027.2284         49.0004         37.0004
  -5907115.62549  -4585970.97647  26526372.5364   26526375.2864
     -3086.3444      -2404.9434         44.7504         25.7504
  -2122974.44549  -1645302.79846  27271550.5134   27271552.9664
      -998.3754       -777.9554         42.5004         22.5004
  -1460956.77749  -1119035.23647  26708163.5674   26708165.1104
     -2464.6724      -1920.5244         39.2504         28.2504
  -6511070.39549  -5065153.66047  26478806.3174   26478807.2824
      2194.2194       1709.7814         45.5004         29.2504
 -16916890.63349 -13168264.89448  24144609.8564   24144608.1024
     -1458.7194      -1136.6644         51.5004         41.5004
  -2622592.83249  -1974837.90946  26669565.7084   26669570.2354
     -3913.5314      -3049.5054         40.2504         24.7504
 -20444946.40649 -15907758.26748  23483605.5674   23483603.2984
      -954.4694       -743.7424         54.2504         46.0004
  -4566434.00849  -3545447.12247  26755960.6144   26755964.4774
      3268.5634       2546.9324         43.7504         25.7504
 00  7  4  1 20 30.0090000  0  9G20G21G30G29G 1G11G15G25G22
 -15559441.23449 -12119333.09447  24789096.7084   24789095.0204
      2595.1884       2022.2244         48.7504         37.5004
  -5814397.23849  -4513723.03647  26544015.9504   26544019.1614
     -3094.9534      -2411.6524         45.5004         26.0004
  -2092755.70349  -1621755.70046  27277300.9274   27277303.5174
     -1016.1254       -791.7864         42.0004         21.2504
  -1387009.74649  -1061414.25447  26722235.0364   26722236.5014
     -2465.3594      -1921.0594         40.0004         27.2504
  -6576835.98049  -5116399.45047  26466291.0994   26466292.6614
      2190.0004       1706.4944         45.0004         28.2504
 -16872874.58649 -13133966.70548  24152985.6924   24152983.9584
     -1475.7974      -1149.9724         51.0004         41.2504
  -2505172.31649  -1883341.68246  26691910.6454   26691914.9664
     -3914.5944      -3050.3334         41.2504         25.0004
 -20416078.17249 -15885263.54048  23489098.7394   23489096.3644
      -970.1874       -755.9904         54.2504         46.2504
  -4664489.92649  -3621854.01746  26737300.3644   26737304.9354
      3268.3754       2546.7864         44.0004         25.2504
 00  7  4  1 21  0.0090000  0  9G20G21G30G29G 1G11G15G25G22
 -15637204.19549 -12179927.55747  24774298.4744   24774296.4154
      2589.2814       2017.6224         49.7504         36.7504
  -5721424.34049  -4441276.77546  26561708.4974   26561711.2944
     -3102.9374      -2417.8734         44.7504         25.5004
  -2062009.33249  -1597797.50846  27283151.4114   27283153.5714
     -1033.3284       -805.1914         41.2504         22.2504
  -1313047.57849  -1003781.46947  26736309.5604   26736311.1884
     -2465.2814      -1920.9984         40.7504         26.2504
  -6642477.70749  -5167548.62447  26453799.1224   26453801.4664
      2186.3914       1703.6814         44.5004         27.5004
 -16828349.75849 -13099272.06748  24161458.5204   24161457.2634
     -1492.2034      -1162.7564         51.7504         41.5004
  -2387720.55549  -1791821.12446  26714261.0444   26714265.7944
     -3915.0624      -3050.6984         43.5004         24.5004
 -20386742.27049 -15862404.38848  23494681.5994   23494679.3104
      -985.2344       -767.7154         54.7504         46.7504
  -4762539.26249  -3698255.80747  26718642.3334   26718645.7004
      3268.6094       2546.9684         43.5004         25.7504
 00  7  4  1 21 30.0090000  0  9G20G21G30G29G 1G11G15G25G22
 -15714786.29349 -12240381.07247  24759535.6454   24759533.4974
      2582.9534       2012.6914         50.5004         37.2504
  -5628209.94549  -4368642.38847  26579446.7554   26579449.9034
     -3111.2194      -2424.3264         44.5004         26.0004
  -2030747.49649  -1573437.60346  27289100.0754   27289102.3954
     -1050.8754       -818.8644         36.5004         22.2504
  -1239082.09849   -946146.14647  26750384.9504   26750386.5174
     -2465.5474      -1921.2054         40.0004         26.7504
  -6708007.30949  -5218610.51447  26441329.6454   26441330.5444
      2182.3284       1700.5154         45.0004         28.5004
 -16783329.75849 -13064191.58048  24170025.3724   24170023.9274
     -1508.9534      -1175.8084         52.0004         41.0004
  -2270251.79349  -1700287.29646  26736614.5444   26736619.6264
     -3915.9534      -3051.3924         43.5004         23.7504
 -20356952.37549 -15839191.49248  23500350.2944   23500347.6654
     -1000.6724       -779.7444         55.0004         46.2504
  -4860590.82849  -3774659.36747  26699983.8254   26699987.5444
      3268.2194       2546.6644         44.5004         26.2504
 00  7  4  1 22  0.0090000  0  9G20G21G30G29G 1G11G15G25G22
 -15792177.91049 -12300686.15747  24744807.9354   24744805.6814
      2576.1414       2007.3824         50.2504         37.5004
  -5534747.81649  -4295814.91546  26597231.6384   26597235.6534
     -3119.8754      -2431.0714         44.2504         25.5004
  -1998963.52349  -1548670.91346  27295148.8884   27295151.2434
     -1068.4534       -832.5614         37.7504         22.2504
  -1165105.76249   -888502.31247  26764462.2394   26764463.7394
     -2466.5164      -1921.9604         39.5004         27.5004
  -6773417.59849  -5269579.40247  26428882.4894   26428884.5484
      2178.0634       1697.1924         44.5004         27.7504
 -16737809.24649 -13028721.07148  24178688.0674   24178686.5524
     -1526.0164      -1189.1034         52.5004         40.5004
  -2152761.56649  -1608736.75347  26758972.0994   26758977.3334
     -3917.0314      -3052.2324         43.5004         25.7504
 -20326702.22349 -15815619.93848  23506106.6064   23506104.2124
     -1016.3444       -791.9564         54.5004         46.0004
  -4958633.85549  -3851056.22747  26681326.1144   26681329.8524
      3267.6094       2546.1894         44.2504         25.7504
 00  7  4  1 22 30.0090000  0  9G20G21G30G29G 1G11G15G25G22
 -15869373.39549 -12360838.42947  24730118.0914   24730116.4974
      2570.0164       2002.6104         50.0004         38.0004
  -5441035.10549  -4222792.21647  26615065.1224   26615068.3214
     -3127.8284      -2437.2694         44.5004         25.7504
  -1966653.99249  -1523494.71446  27301297.1614   27301299.2704
     -1085.8124       -846.0884         36.2504         21.2504
  -1091115.27749   -830847.47647  26778541.8174   26778543.4744
     -2466.3754      -1921.8514         39.2504         26.5004
  -6838705.04749  -5320452.62247  26416458.6304   26416459.5564
      2174.3284       1694.2824         45.0004         28.2504
 -16691786.20749 -12992859.00148  24187445.8174   24187444.5284
     -1542.2974      -1201.7904         52.5004         41.5004
  -2035249.07449  -1517168.89246  26781334.5054   26781339.2784
     -3917.2974      -3052.4394         44.0004         24.0004
 -20295989.29749 -15791687.78848  23511950.9354   23511948.4384
     -1031.2974       -803.6084         54.7504         46.2504
  -5056661.23449  -3927440.95347  26662672.1224   26662675.4464
      3267.4224       2546.0434         44.2504         26.7504
 00  7  4  1 23  0.0090000  0  9G20G21G30G29G 1G11G15G25G22
 -15946377.03549 -12420841.20147  24715465.2784   24715462.8724
      2563.5944       1997.6064         50.0004         37.2504
  -5347079.66849  -4149580.27346  26632944.1224   26632947.4504
     -3135.9224      -2443.5754         43.7504         25.0004
  -1933826.21549  -1497914.60446  27307543.9354   27307546.9624
     -1102.9694       -859.4564         38.5004         22.5004
  -1017116.87949   -773186.48047  26792623.1454   26792625.2044
     -2466.7504      -1922.1434         42.5004         26.7504
  -6903876.31249  -5371235.24647  26404056.3884   26404057.6694
      2170.4534       1691.2624         44.5004         26.7504
 -16645269.35249 -12956612.14148  24196297.8104   24196296.5014
     -1558.7664      -1214.6234         53.0004         41.0004
  -1917723.30149  -1425590.63646  26803699.4814   26803704.2594
     -3917.6414      -3052.7074         43.5004         25.5004
 -20264822.30549 -15767401.81848  23517881.8644   23517879.8924
     -1046.4224       -815.3944         55.0004         46.0004
  -5154676.43449  -4003816.14047  26644020.1454   26644024.0754
      3267.0004       2545.7144         44.2504         26.2504
 00  7  4  1 23 30.0090000  0  9G20G21G30G29G 1G11G15G25G22
 -16023182.14849 -12480689.29247  24700849.3494   24700847.5284
      2556.8754       1992.3704         50.0004         38.0004
  -5252877.89849  -4076176.47446  26650870.3954   26650874.1224
     -3144.0784      -2449.9314         43.5004         25.2504
  -1900475.87949  -1471927.39746  27313890.8104   27313892.8024
     -1120.4534       -873.0804         40.5004         22.2504
   -943106.35549   -715515.99346  26806706.8644   26806708.8294
     -2467.2344      -1922.5204         42.2504         25.2504
  -6968926.80549  -5421923.79347  26391677.5444   26391678.6024
      2166.3754       1688.0844         45.5004         27.7504
 -16598255.94149 -12919978.35248  24205244.1614   24205242.6184
     -1575.3284      -1227.5284         53.0004         41.0004
  -1800182.32449  -1334000.55346  26826066.7554   26826071.8494
     -3918.1724      -3053.1214         42.0004         24.0004
 -20233197.61349 -15742759.20648  23523899.9274   23523897.4384
     -1061.7664       -827.3504         54.2504         46.0004
  -5252672.25849  -4080176.26347  26625372.1924   26625375.5524
      3266.1094       2545.0204         43.7504         26.5004
 00  7  4  1 24  0.0090000  0  9G20G21G30G29G 1G11G15G25G22
 -16099792.53149 -12540385.64047  24686270.8414   24686268.7204
      2550.5004       1987.4034         50.0004         38.0004
  -5158436.40249  -4002585.87946  26668841.4894   26668845.5364
     -3151.8914      -2456.0194         43.5004         25.0004
  -1866609.55549  -1445538.09446  27320335.5444   27320337.2204
     -1137.4224       -886.3034         37.0004         22.5004
   -869089.55549   -657840.66846  26820792.5674   26820793.9974
     -2467.2194      -1922.5084         42.5004         25.2504
  -7033862.60249  -5472522.97347  26379320.6774   26379322.4114
      2162.7504       1685.2604         43.7504         28.2504
 -16550754.00049 -12882963.88248  24214283.4034   24214281.6854
     -1591.4224      -1240.0694         52.0004         41.0004
  -1682635.07049  -1242405.56546  26848435.3724   26848441.1614
     -3918.2504      -3053.1824         43.0004         25.0004
 -20201122.86749 -15717765.89348  23530003.6614   23530000.9974
     -1076.5784       -838.8924         53.7504         46.0004
  -5350651.65649  -4156523.57447  26606727.1854   26606730.2634
      3265.8444       2544.8134         44.7504         27.2504
 00  7  4  1 24 30.0090000  0  9G20G21G30G29G 1G11G15G25G22
 -16176204.02349 -12599927.02047  24671730.1384   24671728.0794
      2543.7664       1982.1554         50.2504         38.0004
  -5063754.83649  -3928808.16246  26686859.5914   26686863.0634
     -3160.0784      -2462.3994         42.5004         25.5004
  -1832226.07849  -1418745.82946  27326878.0754   27326879.7904
     -1154.6564       -899.7324         42.5004         22.0004
   -795064.55949   -600158.92347  26834878.9274   26834880.4584
     -2467.5784      -1922.7884         41.0004         26.0004
  -7098682.09049  -5523031.52047  26366985.7554   26366987.0794
      2158.7344       1682.1314         44.5004         27.7504
 -16502763.34449 -12845568.60548  24223415.8564   24223414.2274
     -1607.8284      -1252.8534         52.5004         41.0004
  -1565082.21549  -1150806.25446  26870805.2474   26870810.2474
     -3918.4694      -3053.3524         43.2504         23.0004
 -20168597.36749 -15692421.34848  23536193.0054   23536190.3764
     -1091.6564       -850.6414         54.5004         46.0004
  -5448609.16049  -4232853.86847  26588085.6614   26588089.6854
      3264.8444       2544.0344         44.2504         26.7504
 00  7  4  1 25  0.0090000  0  9G20G21G30G29G 1G11G15G25G22
 -16252412.44549 -12659310.16347  24657227.8334   24657226.1264
      2536.9694       1976.8594         50.5004         38.0004
  -4968831.77049  -3854842.31846  26704922.8104   26704926.3104
     -3167.9694      -2468.5474         41.7504         22.7504
  -1797323.83749  -1391549.22546  27333519.3414   27333522.4234
     -1172.0474       -913.2834         41.7504         22.0004
   -721029.18449   -542469.15647  26848967.3254   26848969.2594
     -2467.8594      -1923.0074         40.7504         26.2504
  -7163382.95349  -5573447.61847  26354672.9194   26354675.0634
      2154.8444       1679.0994         42.5004         27.0004
 -16454283.78549 -12807792.36748  24232641.2004   24232639.5674
     -1624.0474      -1265.4914         52.2504         41.0004
  -1447524.13749  -1059202.84646  26893176.0134   26893180.8724
     -3918.6254      -3053.4744         43.2504         22.5004
 -20135620.60549 -15666725.16948  23542468.2634   23542465.6734
     -1106.6414       -862.3174         54.5004         46.0004
  -5546539.07049  -4309162.63547  26569450.3494   26569454.4854
      3263.8914       2543.2914         44.7504         26.7504
 00  7  4  1 25 30.0090000  0  9G20G21G30G29G 1G11G15G25G22
 -16328419.03949 -12718536.03847  24642764.7004   24642762.5054
      2530.2034       1971.5874         50.0004         38.5004
  -4873672.27749  -3780692.23347  26723030.9974   26723034.8884
     -3175.8594      -2474.6964         42.0004         25.7504
  -1761906.93449  -1363951.62946  27340258.9814   27340261.3064
     -1189.1414       -926.6034         37.2504         22.0004
   -646987.05149   -484774.03947  26863057.3414   26863058.9034
     -2468.2814      -1923.3364         42.2504         25.7504
  -7227968.99249  -5623774.28547  26342382.9814   26342384.2314
      2150.9224       1676.0434         44.0004         29.0004
 -16405321.12949 -12769639.68748  24241958.4194   24241956.9544
     -1640.0944      -1277.9954         52.2504         41.0004
  -1329967.10549   -967600.29846  26915547.1144   26915551.7944
     -3918.5314      -3053.4014         43.0004         22.7504
 -20102197.52749 -15640681.20548  23548828.3804   23548826.1534
     -1121.5164       -873.9084         54.2504         46.0004
  -5644441.96949  -4385450.38047  26550820.0834   26550823.2864
      3262.8444       2542.4764         45.0004         27.5004
 00  7  4  1 26  0.0090000  0  9G20G21G30G29G 1G11G15G25G22
 -16404220.99249 -12777602.44747  24628339.7394   24628337.2984
      2523.3594       1966.2544         50.5004         38.0004
  -4778276.94549  -3706358.38046  26741184.5284   26741188.5794
     -3183.8124      -2480.8934         42.2504         24.5004
  -1725975.67249  -1335953.30746  27347096.7474   27347099.3644
     -1206.2974       -939.9724         42.0004         20.7504
   -572937.48849   -427073.14847  26877148.4504   26877149.9384
     -2468.3914      -1923.4214         40.7504         26.2504
  -7292439.77049  -5674011.09547  26330115.7314   26330115.7784
      2147.1724       1673.1214         45.5004         28.5004
 -16355876.58649 -12731111.52148  24251367.3254   24251365.9934
     -1656.1094      -1290.4754         52.5004         40.5004
  -1212413.47749   -876000.41046  26937916.7004   26937922.3024
     -3918.3124      -3053.2314         42.5004         22.5004
 -20068329.09049 -15614290.22548  23555273.2944   23555270.8524
     -1136.2344       -885.3774         54.5004         46.0004
  -5742314.62149  -4461714.50747  26532195.2864   26532198.7204
      3261.9694       2541.7944         44.5004         28.0004
 00  7  4  1 26 30.0090000  0  9G20G21G30G29G 1G11G15G25G22
 -16479816.34449 -12836507.87747  24613954.9034   24613952.6734
      2516.2344       1960.7024         50.7504         38.5004
  -4682647.06649  -3631841.73946  26759381.9664   26759386.2434
     -3191.7194      -2487.0544         41.2504         22.5004
  -1689530.80549  -1307554.69346  27354032.1854   27354034.3954
     -1223.5624       -953.4254         41.2504         20.7504
   -498881.07849   -369366.91646  26891240.9194   26891242.8104
     -2468.7034      -1923.6654         42.0004         24.5004
  -7356795.78549  -5724158.52147  26317868.3254   26317869.0324
      2143.1414       1669.9804         43.7504         27.7504
 -16305952.60549 -12692209.77448  24260867.6384   24260866.2944
     -1672.2344      -1303.0404         53.0004         40.7504
  -1094865.99249   -784405.20146  26960285.3494   26960291.1384
     -3918.2974      -3053.2184         42.5004         23.7504
 -20034017.43449 -15587553.87148  23561802.3024   23561800.2674
     -1151.2034       -897.0414         54.7504         46.0004
  -5840154.18049  -4537952.91047  26513576.9424   26513579.9354
      3260.5474       2540.6864         43.0004         28.0004
 00  7  4  1 27  0.0090000  0  9G20G21G30G29G 1G11G15G25G22
 -16555199.73849 -12895248.15047  24599609.7084   24599607.4744
      2509.1094       1955.1504         50.7504         38.7504
  -4586780.39549  -3557140.57246  26777624.9504   26777629.4114
     -3199.6564      -2493.2394         40.0004         25.5004
  -1652569.73049  -1278753.88546  27361066.4584   27361068.6304
     -1240.7974       -966.8554         43.0004         22.0004
   -424814.26249   -311652.60746  26905335.7554   26905337.5754
     -2469.1724      -1924.0304         41.5004         25.2504
  -7421033.54349  -5774213.80947  26305643.9744   26305644.3024
      2139.1724       1666.8874         45.0004         27.0004
 -16255548.00849 -12652933.50248  24270459.6384   24270458.0604
     -1688.2814      -1315.5444         52.7504         40.5004
   -977323.94149   -692814.33346  26982653.4194   26982658.7004
     -3918.0624      -3053.0364         42.5004         22.2504
 -19999260.46949 -15560470.53248  23568416.7554   23568413.8994
     -1166.1414       -908.6814         54.0004         45.5004
  -5937953.62549  -4614160.05547  26494966.0134   26494968.6734
      3259.2504       2539.6754         42.7504         28.0004
 00  7  4  1 27 30.0090000  0  9G20G21G16G29G 1G11G15G25G22
 -16630367.71949 -12953820.57847  24585305.4814   24585303.3104
      2502.1094       1949.6964         50.5004         38.5004
  -4490677.23849  -3482255.17646  26795913.1144   26795917.1814
     -3207.3444      -2499.2294         39.5004         24.7504
    -82853.59859    -56162.86356  27342228.3254   27342227.3454
      3171.7974       2471.5304         36.7504         17.7504
   -350735.96149   -253929.38347  26919432.3334   26919433.7674
     -2469.3754      -1924.1884         41.0004         26.0004
  -7485152.41849  -5824176.42747  26293442.8174   26293443.6734
      2135.3284       1663.8924         44.0004         27.7504
 -16204663.57449 -12613283.35248  24280142.5204   24280141.2314
     -1704.0474      -1327.8294         51.7504         40.5004
   -859789.23849   -601229.16946  27005019.4504   27005025.1304
     -3917.5624      -3052.6464         41.7504         22.5004
 -19964058.61349 -15533040.51148  23575115.5054   23575112.7634
     -1180.6874       -920.0164         54.5004         46.0004
  -6035708.68049  -4690332.61147  26476364.1534   26476366.7984
      3257.7664       2538.5194         42.2504         28.0004
 00  7  4  1 28  0.0090000  0  9G20G21G16G29G 1G11G15G25G22
 -16705319.82049 -13012224.77647  24571042.5994   24571040.0284
      2494.5474       1943.8034         51.0004         38.7504
  -4394340.19549  -3407187.49546  26814245.6144   26814249.5174
     -3215.2504      -2505.3904         37.7504         22.7504
   -178014.60949   -130314.20345  27324119.2244   27324119.6494
      3172.0474       2471.7254         37.0004         10.7504
   -276647.84849   -196198.42746  26933531.1774   26933532.8494
     -2469.9224      -1924.6144         41.0004         25.0004
  -7549153.67649  -5874047.43347  26281262.9424   26281264.2204
      2131.1724       1660.6534         43.5004         28.5004
 -16153302.81649 -12573262.03748  24289915.8644   24289914.7044
     -1720.1094      -1340.3454         52.2504         40.0004
   -742265.77049   -509652.79646  27027383.4974   27027389.4894
     -3917.5314      -3052.6224         42.5004         22.0004
 -19928415.18749 -15505266.42248  23581898.1694   23581896.1184
     -1195.6094       -931.6444         54.0004         46.0004
  -6133417.61349  -4766469.21047  26457769.6614   26457773.4664
      3255.9534       2537.1064         43.0004         27.7504
 00  7  4  1 28 30.0090000  0  9G20G21G16G29G 1G11G15G25G22
 -16780054.79749 -13070459.79347  24556821.1304   24556818.6424
      2487.5634       1938.3604         51.5004         39.2504
  -4297771.21549  -3331939.06746  26832621.9744   26832626.6384
     -3222.7344      -2511.2224         37.5004         23.0004
   -273183.30149   -204471.48846  27306009.1774   27306009.7474
      3172.4384       2472.0294         38.2504         15.5004
   -202550.85549   -138460.60846  26947631.0134   26947632.8954
     -2469.9844      -1924.6634         42.0004         24.5004
  -7613038.59849  -5923827.79147  26269106.5754   26269106.5714
      2127.6254       1657.8904         44.7504         29.2504
 -16101469.37549 -12532872.39448  24299779.7784   24299778.1384
     -1735.5784      -1352.3994         52.2504         40.0004
   -624757.38349   -418088.11346  27049745.1144   27049751.2434
     -3916.5624      -3051.8674         41.2504         22.5004
 -19892333.12949 -15477150.53948  23588764.2244   23588762.1574
     -1210.0164       -942.8694         54.5004         46.0004
  -6231078.94149  -4842568.71047  26439186.0754   26439188.8804
      3254.5944       2536.0474         43.0004         29.0004
 00  7  4  1 29  0.0090000  0  9G20G21G16G29G 1G11G15G25G22
 -16854570.20749 -13128523.72147  24542641.2944   24542638.9114
      2480.3594       1932.7484         51.0004         38.2504
  -4200971.66049  -3256511.03946  26851042.8644   26851047.3104
     -3230.2814      -2517.1024         39.0004         23.5004
   -368357.89849   -278633.37546  27287898.2554   27287899.0874
      3172.7974       2472.3094         39.0004         16.7504
   -128444.77749    -80715.74046  26961733.0364   26961734.3454
     -2470.1724      -1924.8094         40.5004         25.0004
  -7676807.33249  -5973517.57247  26256971.3104   26256971.8104
      2123.8594       1654.9554         44.5004         28.7504
 -16049164.85549 -12492115.67848  24309732.7634   24309731.4384
     -1751.1094      -1364.5014         51.7504         39.7504
   -507266.29349   -326536.97146  27072103.0444   27072109.1924
     -3915.8594      -3051.3194         41.2504         21.5004
 -19855813.48049 -15448693.67648  23595713.9194   23595711.5874
     -1224.4064       -954.0834         54.0004         45.5004
  -6328689.15649  -4918628.40647  26420610.8564   26420613.9744
      3253.0314       2534.8304         43.5004         28.0004
 00  7  4  1 29 30.0090000  0  9G20G21G16G29G 1G11G15G25G22
 -16928866.39149 -13186416.82447  24528502.9034   24528500.4274
      2472.6884       1926.7694         51.5004         39.0004
  -4103945.71949  -3180906.62246  26869506.3024   26869510.4384
     -3238.0164      -2523.1294         38.0004         22.5004
   -463539.86349   -352801.04446  27269785.1224   27269786.3454
      3172.7814       2472.2974         37.2504         18.2504
    -54332.27349    -22965.78746  26975836.5524   26975838.0834
     -2470.6724      -1925.1994         42.2504         22.7504
  -7740462.62149  -6023119.00647  26244857.9034   26244858.5674
      2119.7974       1651.7904         44.0004         29.7504
 -15996394.15249 -12450995.71148  24319774.8804   24319773.5714
     -1766.9694      -1376.8594         51.2504         40.0004
   -389797.82049   -235003.48546  27094456.7634   27094462.8104
     -3915.3124      -3050.8934         41.2504         21.7504
 -19818860.26649 -15419898.97148  23602745.7084   23602743.5714
     -1239.0624       -965.5034         53.7504         45.5004
  -6426247.25449  -4994647.45347  26402045.9274   26402049.0204
      3250.8914       2533.1624         43.0004         28.5004
 00  7  4  1 30  0.0090000  0  9G20G21G16G29G 1G11G15G25G22
 -17002935.76249 -13244133.17648  24514408.1454   24514405.6184
      2465.0784       1920.8404         52.0004         39.5004
  -4006688.87149  -3105122.15646  26888013.1384   26888018.4624
     -3245.8124      -2529.2054         40.5004         22.7504
   -558722.03948   -426968.81246  27251672.1144   27251674.1184
      3172.5474       2472.1144         35.5004         17.2504
     19792.12149     34793.39846  26989941.7314   26989943.6494
     -2471.1564      -1925.5764         41.7504         23.7504
  -7803998.99649  -6072627.76747  26232767.7244   26232767.9194
      2115.8444       1648.7094         45.2504         29.5004
 -15943154.02049 -12409509.95148  24329906.3254   24329905.0914
     -1782.5624      -1389.0104         51.7504         40.0004
   -272349.14849   -143485.29646  27116806.9894   27116813.0204
     -3914.7974      -3050.4914         41.0004         21.5004
 -19781469.97349 -15390763.68948  23609860.8174   23609858.7744
     -1253.7344       -976.9364         54.7504         45.7504
  -6523744.35249  -5070619.01647  26383492.7244   26383495.4584
      3248.7194       2531.4694         43.0004         29.7504
 00  7  4  1 30 30.0090000  0  9G20G21G16G29G 1G11G15G25G22
 -17076779.18749 -13301673.47947  24500356.1304   24500353.8884
      2457.7504       1915.1304         51.7504         38.5004
  -3909205.21549  -3029161.02446  26906563.9894   26906568.7784
     -3253.0474      -2534.8424         38.2504         22.5004
   -653905.81248   -501137.84046  27233559.6534   27233560.6534
      3172.9384       2472.4194         35.5004         16.7504
     93925.54749     92559.57246  27004048.8494   27004050.1854
     -2471.1724      -1925.5884         41.5004         24.0004
  -7867419.80549  -6122046.48347  26220698.3334   26220699.2004
      2112.3134       1645.9584         44.2504         29.2504
 -15889449.71949 -12367662.50248  24340125.9424   24340124.5404
     -1797.7034      -1400.8084         51.2504         40.0004
   -154926.19549    -51987.26746  27139151.8174   27139158.3994
     -3913.5624      -3049.5294         42.0004         21.0004
 -19743647.14849 -15361291.36248  23617058.4114   23617055.8884
     -1267.8284       -987.9184         54.5004         46.0004
  -6621180.68449  -5146543.21847  26364950.9424   26364954.0674
      3247.0164       2530.1424         43.2504         29.0004
 00  7  4  1 31  0.0090000  0  9G20G21G16G29G 1G11G15G25G22
 -17150392.75049 -13359034.65547  24486348.1774   24486345.7394
      2449.8914       1909.0064         51.5004         39.2504
  -3811493.87549  -2953022.52446  26925158.8564   26925162.3064
     -3260.7974      -2540.8814         37.5004         22.0004
   -749088.42648   -575306.03146  27215447.1694   27215447.7434
      3172.6414       2472.1884         35.2504         17.7504
    168069.44949    150333.95346  27018157.8954   27018159.5404
     -2471.6254      -1925.9424         41.5004         22.5004
  -7930723.46149  -6171373.92247  26208652.0204   26208653.1304
      2108.2034       1642.7564         44.2504         28.5004
 -15835281.80149 -12325453.79848  24350433.7004   24350432.4744
     -1813.3124      -1412.9714         51.2504         40.5004
    -37529.85549     39490.08846  27161492.7164   27161498.3294
     -3912.7974      -3048.9334         42.0004         20.7504
 -19705391.97349 -15331482.14548  23624337.9584   23624335.4774
     -1282.3444       -999.2294         54.0004         45.5004
  -6718551.71949  -5222416.55347  26346421.7784   26346424.2394
      3244.4534       2528.1454         43.0004         28.7504
 00  7  4  1 31 30.0090000  0  9G20G21G16G29G 1G11G15G25G22
 -17223775.96149 -13416216.34248  24472383.4274   24472381.5714
      2442.2664       1903.0644         52.0004         39.5004
  -3713559.03149  -2876709.78646  26943795.0364   26943799.3134
     -3268.1564      -2546.6154         39.2504         22.5004
   -844269.79748   -649473.19446  27197334.4034   27197335.6064
      3172.7344       2472.2614         35.0004         19.5004
    242222.12149    208115.21446  27032269.0284   27032271.0524
     -2471.9374      -1926.1854         42.5004         22.7504
  -7993912.02749  -6220611.63147  26196627.7784   26196629.2594
      2104.4694       1639.8464         42.5004         28.7504
 -15780654.43449 -12282887.08648  24360828.9114   24360827.6614
     -1828.5164      -1424.8174         51.5004         39.7504
     79835.27749    130943.09546  27183827.0444   27183832.3684
     -3911.6094      -3048.0074         41.2504         21.0004
 -19666708.09449 -15301338.86648  23631699.3954   23631697.2634
     -1296.5944      -1010.3334         54.2504         45.5004
  -6815855.94549  -5298237.84647  26327904.9974   26327908.1224
      3242.2974       2526.4654         43.5004         28.5004
 00  7  4  1 32  0.0090000  0  9G20G21G16G29G 1G11G15G25G22
 -17296922.99649 -13473213.99948  24458463.7394   24458461.7004
      2434.5164       1897.0254         51.7504         39.7504
  -3615397.75449  -2800220.69146  26962473.8254   26962478.8764
     -3275.4374      -2552.2894         37.0004         22.5004
   -939444.91449   -723635.51646  27179222.9894   27179223.6534
      3172.4534       2472.0414         36.7504         17.7504
    316387.10549    265906.00147  27046382.1144   27046384.0054
     -2472.1414      -1926.3434         42.0004         26.0004
  -8056982.04749  -6269757.01247  26184626.2314   26184626.8134
      2100.5634       1636.8024         43.5004         29.5004
 -15725566.05949 -12239961.14548  24371312.2314   24371310.6424
     -1843.7194      -1436.6644         52.0004         39.7504
    197170.42649    222372.74046  27206154.2944   27206160.8804
     -3910.4374      -3047.0944         40.5004         20.7504
 -19627593.37149 -15270859.86748  23639142.7004   23639139.9504
     -1310.7344      -1021.3514         53.7504         45.5004
  -6913086.02349  -5374001.35347  26309402.3954   26309405.8524
      3239.9224       2524.6144         44.5004         29.5004
 00  7  4  1 32 30.0090000  0  9G20G21G16G29G 1G11G15G25G22
 -17369836.44549 -13530029.62048  24444589.0524   24444586.5404
      2426.4064       1890.7064         51.7504         40.0004
  -3517016.20349  -2723559.90446  26981196.0444   26981200.8954
     -3283.1564      -2558.3044         40.0004         21.5004
  -1034616.91449   -797795.39646  27161112.4504   27161112.7904
      3172.1724       2471.8224         36.7504         20.2504
    390559.75049    323702.80246  27060497.0134   27060498.9934
     -2472.6874      -1926.7694         41.2504         22.7504
  -8119938.21549  -6318813.66647  26172646.6854   26172646.2244
      2096.5634       1633.6854         43.0004         29.5004
 -15670023.61749 -12196681.38348  24381881.5834   24381880.0364
     -1859.1094      -1448.6574         51.2504         40.2504
    314468.13749    313773.11646  27228475.6384   27228481.8884
     -3909.3284      -3046.2304         38.7504         19.5004
 -19588053.68749 -15240049.74048  23646666.8024   23646664.2904
     -1325.1564      -1032.5894         54.0004         45.2504
  -7010243.39849  -5449708.21747  26290914.3644   26290917.0054
      3237.1414       2522.4474         44.5004         29.7504
 00  7  4  1 33  0.0090000  0  9G20G21G16G29G 1G11G15G25G22
 -17442511.41849 -13586659.42848  24430759.5364   24430757.3684
      2418.6414       1884.6554         52.0004         39.7504
  -3418413.14549  -2646726.52646  26999959.6774   26999964.2274
     -3290.3284      -2563.8924         39.5004         22.0004
  -1129781.89149   -871949.86446  27143002.8804   27143003.7984
      3172.3444       2471.9564         37.5004         18.5004
    464742.43849    381507.43846  27074613.3644   27074615.0284
     -2472.7194      -1926.7944         42.0004         22.5004
  -8182778.14149  -6367779.75947  26160687.7634   26160688.4704
      2092.8284       1630.7754         43.5004         28.2504
 -15614026.97749 -12153047.70748  24392537.4974   24392535.7944
     -1873.9694      -1460.2354         51.7504         40.0004
    431728.16449    405144.27246  27250790.6614   27250796.7674
     -3907.9064      -3045.1224         39.0004         20.7504
 -19548088.97749 -15208908.41748  23654271.9034   23654269.5134
     -1339.1094      -1043.4624         54.2504         45.2504
  -7107322.73449  -5525354.24147  26272440.6854   26272443.1264
      3234.7504       2520.5844         45.0004         29.2504
 00  7  4  1 33 30.0090000  0  9G20G21G16G29G 1G11G15G25G22
 -17514944.20749 -13643100.51448  24416975.8644   24416973.3884
      2410.3444       1878.1904         51.2504         40.0004
  -3319587.93049  -2569719.99346  27018764.8174   27018770.0604
     -3297.8754      -2569.7734         39.0004         22.2504
  -1224936.82849   -946096.45146  27124894.8254   27124896.8804
      3171.7034       2471.4574         36.7504         19.2504
    538937.00449    439321.33546  27088732.3724   27088734.2314
     -2473.3124      -1927.2564         42.5004         22.2504
  -8245500.50049  -6416654.23647  26148751.8564   26148752.4234
      2088.8284       1627.6584         43.2504         30.0004
 -15557576.85249 -12109060.65547  24403279.3954   24403278.3524
     -1889.2344      -1472.1314         51.2504         39.2504
    548949.43449    496485.17046  27273096.8414   27273103.2674
     -3906.6564      -3044.1484         38.5004         20.5004
 -19507699.04349 -15177435.74648  23661957.9664   23661955.4384
     -1353.3914      -1054.5904         54.5004         45.5004
  -7204319.50049  -5600935.94147  26253982.5054   26253984.8924
      3231.8134       2518.2954         44.0004         29.2504
 00  7  4  1 34  0.0090000  0  9G20G21G16G29G 1G11G15G25G22
 -17587134.27049 -13699352.46948  24403238.8804   24403236.2594
      2402.4224       1872.0174         51.7504         39.7504
  -3220544.10949  -2492543.22146  27037612.7084   27037617.6964
     -3304.8754      -2575.2274         39.5004         21.5004
  -1320081.60549  -1020235.20246  27106789.6614   27106790.7164
      3171.3914       2471.2134         39.7504         19.0004
    613141.69949    497143.10146  27102852.6224   27102854.8214
     -2473.5314      -1927.4274         42.5004         23.0004
  -8308107.29749  -6465438.64247  26136837.5834   26136839.2004
      2085.2344       1624.8584         43.0004         29.0004
 -15500677.56649 -12064723.61748  24414107.3334   24414105.6264
     -1903.9374      -1483.5884         51.5004         39.5004
    666127.64549    587792.46946  27295396.0364   27295401.6654
     -3905.0944      -3042.9304         36.7504         19.2504
 -19466887.62949 -15145634.65748  23669724.0524   23669721.6774
     -1367.2814      -1065.4144         54.0004         45.0004
  -7301232.03949  -5676452.02247  26235540.4504   26235543.1774
      3229.1094       2516.1894         44.5004         30.0004
 00  7  4  1 34 30.0090000  0  9G20G21G16G29G 1G11G15G25G22
 -17659082.32049 -13755415.84448  24389547.1924   24389544.9354
      2394.1564       1865.5764         52.2504         40.0004
  -3121285.63749  -2415199.07946  27056501.6694   27056506.0014
     -3312.1724      -2580.9134         40.7504         22.0004
  -1415217.53149  -1094366.99846  27088685.9664   27088687.5174
      3170.9694       2470.8854         40.7504         20.0004
    687353.32049    554970.29346  27116974.9584   27116977.2634
     -2473.8284      -1927.6584         41.5004         22.5004
  -8370601.55149  -6514135.33747  26124945.6224   26124946.7674
      2081.1414       1621.6684         44.5004         29.0004
 -15443334.18749 -12020040.53148  24425019.4034   24425018.1614
     -1918.9064      -1495.2524         51.5004         39.5004
    783257.24249    679061.82846  27317684.9114   27317691.0754
     -3903.5004      -3041.6884         38.2504         18.2504
 -19425659.23049 -15113508.63848  23677569.3494   23677567.0444
     -1381.2814      -1076.3234         54.5004         45.2504
  -7398059.64849  -5751901.91847  26217115.0284   26217117.4464
      3226.1094       2513.8514         45.2504         29.5004
 00  7  4  1 35  0.0090000  0  9G20G21G16G29G 1G11G15G25G22
 -17730782.49249 -13811286.06548  24375902.9194   24375900.9194
      2385.9694       1859.1964         51.0004         40.7504
  -3021810.31649  -2337685.96546  27075430.8334   27075436.2744
     -3319.3444      -2586.5024         41.0004         20.7504
  -1510339.60249  -1168487.97546  27070584.4584   27070585.7514
      3170.5944       2470.5934         41.5004         21.7504
    761576.07849    612806.12946  27131098.8104   27131101.0204
     -2474.2194      -1927.9634         41.5004         22.7504
  -8432979.59849  -6562741.49547  26113075.6534   26113075.9354
      2077.4844       1618.8194         44.7504         30.2504
 -15385545.28949 -11975010.28747  24436016.6304   24436015.3214
     -1933.5784      -1506.6844         52.2504         39.2504
    900339.69149    770294.53146  27339965.4034   27339971.7124
     -3901.8124      -3040.3734         38.5004         18.5004
 -19384011.69149 -15081056.01848  23685494.9974   23685492.3724
     -1395.1254      -1087.1104         54.5004         45.5004
  -7494795.29349  -5827280.12847  26198706.5134   26198708.7704
      3223.0314       2511.4534         44.7504         29.5004
 00  7  4  1 35 30.0090000  0  9G20G21G16G29G 1G11G15G25G22
 -17802236.79749 -13866964.68648  24362305.9664   24362303.4934
      2377.5784       1852.6584         52.0004         40.5004
  -2922123.84449  -2260008.43646  27094401.1534   27094405.8524
     -3326.5314      -2592.1024         41.2504         20.5004
  -1605450.58249  -1242600.33546  27052485.2554   27052486.3294
      3170.0164       2470.1424         41.0004         22.2504
    835805.46949    670647.17946  27145224.0994   27145226.4934
     -2474.5314      -1928.2064         40.2504         24.5004
  -8495245.84849  -6611260.58147  26101227.1144   26101227.7704
      2073.5004       1615.7144         44.7504         30.0004
 -15327317.46949 -11929638.02647  24447097.0834   24447095.7164
     -1948.3754      -1518.2144         51.2504         39.0004
   1017367.75449    861484.87846  27362235.0284   27362241.8724
     -3900.2034      -3039.1194         37.5004         19.5004
 -19341950.94549 -15048281.41748  23693498.4814   23693496.5284
     -1409.0314      -1097.9464         54.0004         45.2504
  -7591440.43049  -5902587.83647  26180315.3884   26180318.0134
      3219.8284       2508.9574         45.5004         30.0004
 00  7  4  1 36  0.0090000  0  9G20G21G16G29G 1G11G15G25G22
 -17873441.66849 -13922448.96648  24348756.0674   24348753.7554
      2369.2664       1846.1814         51.5004         40.5004
  -2822226.03949  -2182166.16646  27113410.9194   27113415.6774
     -3333.5944      -2597.6064         41.0004         20.2504
  -1700547.56649  -1316701.76946  27034389.9034   27034390.5014
      3169.6724       2469.8744         41.0004         21.5004
    910042.91849    728494.50046  27159351.1454   27159353.7514
     -2474.8284      -1928.4374         38.5004         23.0004
  -8557399.28949  -6659691.73547  26089398.8804   26089399.3414
      2069.8284       1612.8534         44.5004         29.7504
 -15268652.05549 -11883924.79347  24458260.5914   24458259.3254
     -1962.8444      -1529.4894         51.7504         39.0004
   1134340.00049    952631.63346  27384494.4114   27384500.8104
     -3898.1094      -3037.4884         37.0004         16.7504
 -19299477.84849 -15015185.50548  23701580.8564   23701578.8884
     -1422.6414      -1108.5514         54.0004         45.5004
  -7687990.68449  -5977821.58647  26161941.9814   26161944.5284
      3216.6094       2506.4494         44.7504         29.5004
 00  7  4  1 36 30.0090000  0  9G20G21G16G29G 1G11G15G25G22
 -17944392.78149 -13977735.49148  24335254.3724   24335252.2434
      2360.7504       1839.5454         52.0004         41.0004
  -2722116.38349  -2104158.79246  27132461.0284   27132465.9584
     -3340.4694      -2602.9634         41.0004         21.5004
  -1795626.56649  -1390789.19546  27016296.1854   27016296.8804
      3168.9224       2469.2904         41.5004         22.7504
    984290.32849    786349.59146  27173479.8174   27173482.1614
     -2475.1414      -1928.6814         40.5004         22.2504
  -8619438.10549  -6708033.56147  26077593.0994   26077593.4314
      2066.0164       1609.8824         44.2504         30.2504
 -15209549.27749 -11837870.74648  24469507.5674   24469506.0994
     -1977.3284      -1540.7754         51.5004         39.5004
   1251256.07049   1043734.68046  27406743.0604   27406750.1064
     -3896.2814      -3036.0634         39.5004         17.7504
 -19256592.09049 -14981768.03448  23709741.8884   23709739.8174
     -1436.4064      -1119.2784         55.0004         45.0004
  -7784440.45349  -6052977.06947  26143588.4274   26143590.7204
      3213.2504       2503.8314         44.5004         30.2504
 00  7  4  1 37  0.0090000  0  9G20G21G16G29G 1G11G15G25G22
 -18015084.81649 -14032820.15448  24321802.0914   24321799.6734
      2351.9224       1832.6664         52.0004         40.5004
  -2621793.32049  -2025985.12746  27151552.3024   27151557.0324
     -3347.7974      -2608.6734         41.5004         20.0004
  -1890683.06649  -1464859.01746  26998207.3644   26998208.4504
      3168.0004       2468.5714         39.2504         22.5004
   1058550.90649    844214.98146  27187611.4584   27187613.5954
     -2475.8594      -1929.2414         40.2504         22.0004
  -8681359.58649  -6756283.94647  26065809.9114   26065810.6264
      2061.9224       1606.6924         44.2504         30.0004
 -15150008.57849 -11791475.47248  24480837.7864   24480836.3334
     -1992.1094      -1552.2934         52.0004         39.5004
   1368116.49649   1134794.43046  27428981.5204   27428987.6184
     -3894.4374      -3034.6274         38.0004         13.7504
 -19213292.53549 -14948028.13748  23717981.7784   23717979.3764
     -1450.3594      -1130.1504         54.7504         45.0004
  -7880783.27049  -6128049.20747  26125254.5054   26125256.9624
      3209.4384       2500.8604         44.2504         29.2504
 00  7  4  1 37 30.0090000  0  9G20G21G16G29G 1G11G15G25G22
 -18085517.77749 -14087702.93948  24308399.0834   24308396.9584
      2343.3284       1825.9704         51.5004         40.0004
  -2521260.21549  -1947647.85046  27170683.2474   27170687.8764
     -3354.7034      -2614.0544         41.5004         20.0004
  -1985717.89849  -1538912.04446  26980123.1064   26980124.1694
      3167.2814       2468.0114         38.2504         23.5004
   1132822.38349    902088.80646  27201745.7784   27201747.2354
     -2476.0164      -1929.3634         38.2504         22.2504
  -8743165.89149  -6804444.58647  26054049.2554   26054049.3564
      2058.1884       1603.7824         45.2504         30.5004
 -15090034.55549 -11744742.53847  24492250.1614   24492248.8454
     -2006.4224      -1563.4464         51.7504         39.0004
   1484916.43449   1225807.03146  27451208.2474   27451214.4384
     -3892.5164      -3033.1294         39.0004         16.2504
 -19169583.15649 -14913968.88948  23726299.0754   23726296.8884
     -1463.9534      -1140.7434         54.5004         45.0004
  -7977017.95349  -6203037.07947  26106940.8644   26106943.4034
      3205.7974       2498.0244         43.0004         29.2504
 00  7  4  1 38  0.0090000  0  9G20G21G16G29G 1G11G15G25G22
 -18155689.63749 -14142382.27348  24295046.0834   24295043.4544
      2334.6564       1819.2134         52.0004         40.7504
  -2420518.81249  -1869148.16646  27189853.8494   27189858.6424
     -3361.5164      -2619.3634         41.5004         18.5004
  -2080729.68749  -1612947.08246  26962042.5674   26962044.0604
      3166.6254       2467.5004         39.2504         22.7504
   1207104.56649    959970.97546  27215880.8174   27215882.9114
     -2476.0624      -1929.3994         37.7504         22.5004
  -8804857.65649  -6852515.99347  26042309.0834   26042309.7784
      2054.4694       1600.8854         45.0004         31.0004
 -15029629.80549 -11697673.97047  24503744.9664   24503743.6064
     -2020.7194      -1574.5864         51.2504         39.0004
   1601652.72349   1316770.02946  27473422.5444   27473428.9274
     -3890.2034      -3031.3274         39.2504         19.7504
 -19125466.00449 -14879591.89148  23734694.4894   23734692.0754
     -1477.3914      -1151.2134         55.0004         45.2504
  -8073142.08649  -6277938.80447  26088650.0364   26088652.0954
      3202.2194       2495.2354         43.5004         30.0004
 00  7  4  1 38 30.0090000  0  9G20G21G16G29G 1G11G15G25G22
 -18225601.33249 -14196858.88248  24281741.9664   24281739.8374
      2326.0474       1812.5044         52.0004         41.2504
  -2319573.65249  -1790489.82646  27209062.8174   27209067.3684
     -3368.0474      -2624.4524         40.2504         19.5004
  -2175719.70349  -1686965.14046  26943966.7554   26943967.9544
      3166.0474       2467.0504         41.5004         22.0004
   1281394.54349   1017859.21946  27230017.7864   27230019.6574
     -2476.4534      -1929.7044         40.0004         21.5004
  -8866438.05149  -6900500.61247  26030590.9974   26030590.8924
      2050.8134       1598.0364         46.2504         29.7504
 -14968800.12549 -11650274.29247  24515320.2314   24515319.3214
     -2034.6724      -1585.4594         51.0004         39.0004
   1718320.12949   1407679.30146  27495623.8254   27495630.5404
     -3887.8754      -3029.5134         38.0004         16.7504
 -19080945.83249 -14844900.85048  23743166.2704   23743163.9274
     -1490.6874      -1161.5754         54.2504         45.0004
  -8169155.55149  -6352754.29247  26070378.8494   26070380.8884
      3198.5784       2492.3994         44.5004         29.7504
 00  7  4  1 39  0.0090000  0  9G20G21G16G29G 1G11G15G25G22
 -18295248.32849 -14251129.23948  24268488.6774   24268486.4894
      2317.2664       1805.6624         52.0004         41.0004
  -2218423.69949  -1711671.80746  27228312.1924   27228315.9624
     -3374.9694      -2629.8464         41.2504         19.0004
  -2270683.88749  -1760963.09346  26925895.6694   26925896.5874
      3165.1884       2466.3804         42.2504         23.2504
   1355694.44949   1075755.15846  27244157.1384   27244158.7004
     -2476.7504      -1929.9354         38.5004         22.5004
  -8927905.00449  -6948396.81147  26018893.9034   26018893.5604
      2047.2344       1595.2484         46.0004         29.5004
 -14907545.72749 -11602543.66247  24526976.9744   24526975.8524
     -2048.7344      -1596.4164         51.0004         38.5004
   1834918.20349   1498534.55146  27517812.6144   27517818.7244
     -3885.5004      -3027.6624         36.2504         12.5004
 -19036022.34849 -14809895.54148  23751714.8884   23751712.8764
     -1504.0624      -1171.9974         55.0004         45.0004
  -8265052.41849  -6427478.92347  26052130.7554   26052132.4624
      3194.7194       2489.3914         45.0004         30.0004
 00  7  4  1 39 30.0090000  0  9G20G21G16G29G 1G11G15G25G22
 -18364629.13349 -14305192.16248  24255285.8414   24255283.4234
      2308.1094       1798.5274         51.5004         41.5004
  -2117071.12149  -1632695.89446  27247598.3174   27247603.4194
     -3381.9064      -2635.2524         40.7504         19.5004
  -2365621.93049  -1834940.66046  26907829.4814   26907830.3414
      3164.1094       2465.5404         43.0004         22.7504
   1430003.69549   1133658.36546  27258297.0524   27258299.2044
     -2477.2664      -1930.3374         40.7504         22.0004
  -8989259.32449  -6996205.26847  26007218.1384   26007218.2824
      2043.2034       1592.1064         46.5004         30.0004
 -14845869.80949 -11554484.57447  24538714.0134   24538712.4034
     -2062.9534      -1607.4964         51.5004         38.0004
   1951443.61748                  27539986.1614
     -3882.9694                         32.7504
 -18990697.94549 -14774577.83448  23760339.8644   23760337.7164
     -1517.5314      -1182.4924         54.5004         45.0004
  -8360830.07449  -6502110.67847  26033903.9114   26033906.0094
      3190.4844       2486.0924         44.5004         29.7504
 00  7  4  1 40  0.0090000  0  9G20G30G16G29G 1G11G15G25G22
 -18433740.46149 -14359045.10948  24242134.3414   24242132.0054
      2299.2664       1791.6364         51.2504         41.5004
     39408.56359     21370.19556  27577809.7084   27577812.7594
     -1675.6564      -1305.7064         37.5004         16.2504
  -2460530.86749  -1908895.51346  26889768.6384   26889769.5674
      3163.1724       2464.8094         42.5004         24.0004
   1504322.86349   1191569.35846  27272439.7474   27272441.8104
     -2477.2344      -1930.3124         40.0004         21.2504
  -9050500.42649  -7043925.52347  25995564.3804   25995565.0604
      2039.5784       1589.2824         47.2504         31.5004
 -14783774.11349 -11506098.39247  24550530.0444   24550528.5014
     -2076.7034      -1618.2104         51.0004         38.5004
   2067894.34048                  27562146.7634
     -3880.1414                         28.2504
 -18944973.85549 -14738948.68748  23769040.8494   23769038.5484
     -1530.6414      -1192.7074         53.7504         45.0004
  -8456484.42249  -6576646.32547  26015701.2554   26015703.4664
      3186.4844       2482.9754         44.5004         29.7504
 00  7  4  1 40 30.0090000  0  8G20G30G16G29G 1G11G25G22
 -18502576.80549 -14412683.78548  24229035.1144   24229032.9074
      2289.9534       1784.3794         52.0004         41.5004
     89932.14149     60739.25446  27587423.3104   27587426.7274
     -1692.2194      -1318.6124         37.0004         13.7504
  -2555405.91849  -1982824.03546  26871714.8254   26871715.1854
      3161.9064       2463.8234         43.5004         25.0004
   1578656.01249   1249491.24746  27286585.0134   27286586.5174
     -2478.0314      -1930.9334         39.7504         21.2504
  -9111625.05149  -7091554.97747  25983933.0994   25983933.4354
      2035.6254       1586.2014         46.5004         31.5004
 -14721257.69549 -11457384.37247  24562426.6454   24562425.5324
     -2090.8124      -1629.2054         51.7504         38.2504
 -18898848.51249 -14703006.87348  23777818.1224   23777816.3134
     -1544.1724      -1203.2514         54.5004         45.0004
  -8552009.10949  -6651080.94547  25997523.7554   25997525.6614
      3181.9384       2479.4324         45.5004         30.0004
 00  7  4  1 41  0.0090000  0  8G20G30G16G29G 1G11G25G22
 -18571135.92249 -14466106.43448  24215988.7944   24215986.7514
      2280.6564       1777.1354         51.5004         41.5004
    140945.04348    100489.59046  27597131.2164   27597134.0484
     -1708.5474      -1331.3354         35.5004         13.7504
  -2650245.30949  -2056724.71146  26853666.7944   26853667.6064
      3160.6254       2462.8254         43.5004         24.7504
   1653002.66849   1307423.63246  27300733.3174   27300734.8104
     -2478.4534      -1931.2624         39.7504         21.5004
  -9172633.67249  -7139094.03147  25972323.4664   25972323.6534
      2031.7034       1583.1454         46.0004         29.7504
 -14658323.37149 -11408344.71647  24574402.3724   24574401.4504
     -2104.7504      -1640.0654         51.0004         38.0004
 -18852323.90249 -14666753.93048  23786671.4814   23786669.1264
     -1557.4694      -1213.6124         54.0004         45.0004
  -8647401.08649  -6725412.18047  25979370.8804   25979373.3294
      3177.4384       2475.9254         44.0004         29.7504
 00  7  4  1 41 30.0090000  0  8G20G30G16G29G 1G11G25G22
 -18639416.50449 -14519312.06448  24202995.3564   24202993.0444
      2271.3444       1769.8784         52.0004         41.7504
    192444.94548    140619.30146  27606930.8724   27606933.6964
     -1724.7664      -1343.9734         35.0004         14.7504
  -2745048.43449  -2130597.14847  26835626.4664   26835627.4504
      3159.5164       2461.9604         42.7504         25.7504
   1727361.96949   1365365.85346  27314882.8414   27314884.2904
     -2478.8594      -1931.5794         41.7504         22.0004
  -9233527.11349  -7186543.35247  25960735.3104   25960735.3064
      2027.8754       1580.1624         46.2504         29.2504
 -14594974.42649 -11358981.97347  24586457.7084   24586456.7004
     -2118.5164      -1650.7914         51.7504         38.2504
 -18805402.59449 -14630191.88148  23795600.4194   23795598.1694
     -1570.6564      -1223.8884         54.2504         44.7504
  -8742657.67249  -6799637.90747  25961244.0134   25961245.8994
      3172.9224       2472.4074         44.2504         30.2504
 00  7  4  1 42  0.0090000  0  8G20G30G16G29G 1G11G25G22
 -18707418.66849 -14572300.71748  24190054.9114   24190052.7244
      2261.9844       1762.5854         51.5004         41.7504
    244428.17649    181125.67646  27616823.9504   27616826.5634
     -1740.8914      -1356.5384         36.7504         16.7504
  -2839816.02049  -2204441.91047  26817592.8954   26817593.8134
      3158.1724       2460.9134         43.2504         26.2504
   1801731.77049   1423316.30746  27329034.2704   27329036.4314
     -2479.3444      -1931.9564         42.0004         20.7504
  -9294308.02349  -7233905.00647  25949168.8644   25949169.1734
      2024.0314       1577.1674         47.0004         30.5004
 -14531215.52349 -11309299.78647  24598590.2944   24598589.6424
     -2132.2034      -1661.4574         51.5004         38.0004
 -18758088.92249 -14593324.09648  23804604.0284   23804601.4894
     -1583.8284      -1234.1524         54.5004         44.7504
  -8837777.58249  -6873757.15547  25943143.0604   25943145.4624
      3168.1884       2468.7184         44.5004         29.5004
 00  7  4  1 42 30.0090000  0  8G20G30G16G29G 1G11G25G22
 -18775139.25449 -14625069.97848  24177168.1454   24177165.9544
      2252.7344       1755.3774         51.7504         42.0004
    296894.24249    222008.29746  27626808.2634   27626810.3844
     -1756.9224      -1369.0304         37.2504         15.5004
  -2934545.26649  -2278256.75447  26799566.3724   26799566.6454
      3156.9844       2459.9884         43.5004         27.2504
   1876113.00849   1481275.57246  27343189.3804   27343190.9584
     -2479.6564      -1932.2004         41.0004         19.7504
  -9354975.69949  -7281178.43947  25937624.2314   25937624.5834
      2020.4064       1574.3434         47.0004         30.7504
 -14467048.80549 -11259299.81847  24610801.0994   24610800.3134
     -2145.6564      -1671.9404         51.0004         38.0004
 -18710384.12149 -14556151.53148  23813682.0364   23813679.1884
     -1596.6254      -1244.1234         53.7504         45.0004
  -8932756.93049  -6947766.84347  25925069.5284   25925071.0364
      3163.6414       2465.1754         44.5004         30.7504
 00  7  4  1 43  0.0090000  0  8G20G30G16G29G 1G11G25G22
 -18842573.45749 -14677616.08748  24164335.6534   24164333.6454
      2242.9224       1747.7314         51.7504         42.0004
    349844.44948    263268.10246  27636883.9424   27636886.6424
     -1773.1254      -1381.6564         35.5004         15.5004
  -3029232.18049  -2352038.62047  26781547.4354   26781548.4744
      3155.4224       2458.7704         43.7504         28.0004
   1950508.19549   1539245.82246  27357346.2474   27357348.1774
     -2480.1874      -1932.6144         41.0004         19.7504
  -9415527.77049  -7328361.78347  25926101.5134   25926101.5134
      2016.3914       1571.2134         46.0004         30.0004
 -14402474.14849 -11208981.98247  24623089.3644   24623088.2744
     -2159.3444      -1682.6064         51.2504         38.5004
 -18662287.54349 -14518673.69248  23822834.2084   23822831.7124
     -1609.7814      -1254.3754         53.2504         45.0004
  -9027590.24649  -7021662.77147  25907023.6694   25907024.6494
      3158.6094       2461.2544         44.0004         30.0004
 00  7  4  1 43 30.0090000  0  8G20G30G16G29G 1G11G25G22
 -18909715.75449 -14729934.73548  24151559.1774   24151556.5874
      2233.1254       1740.0974         52.0004         42.0004
    403280.15248    304906.32846  27647053.2314   27647054.7904
     -1789.2344      -1394.2094         34.2504         15.5004
  -3123871.64849  -2425783.56047  26763538.3334   26763539.5094
      3153.7344       2457.4554         44.5004         28.2504
   2024920.54749   1597229.37346  27371506.4424   27371508.5714
     -2480.7664      -1933.0644         41.0004         20.7504
  -9475961.56249  -7375452.92247  25914601.3494   25914602.0914
      2012.4694       1568.1574         46.5004         31.2504
 -14337491.16049 -11158345.95847  24635455.4354   24635454.4424
     -2172.9374      -1693.1984         51.5004         38.5004
 -18613797.95749 -14480889.60848  23832061.7474   23832059.4114
     -1622.8754      -1264.5784         54.7504         45.2504
  -9122271.03949  -7095439.83347  25889006.5054   25889007.5874
      3153.4224       2457.2124         45.5004         31.5004
 00  7  4  1 44  0.0090000  0  8G20G30G16G29G 1G11G25G22
 -18976563.73849 -14782024.04848  24138838.3564   24138835.9074
      2223.2974       1732.4394         52.2504         42.2504
    457200.22348    346921.96945  27657312.5834   27657315.7124
     -1805.3594      -1406.7744         34.2504         10.7504
  -3218461.82849  -2499490.03247  26745538.8174   26745539.3134
      3152.2344       2456.2874         42.5004         27.7504
   2099350.28149   1655226.50546  27385669.9974   27385672.3884
     -2481.3124      -1933.4904         39.7504         21.2504
  -9536276.81649  -7422451.72647  25903123.7314   25903124.0054
      2008.5474       1565.1014         47.5004         32.2504
 -14272102.11349 -11107393.53347  24647898.5204   24647897.2394
     -2186.4224      -1703.7054         51.5004         38.7504
 -18564917.04349 -14442800.59748  23841363.4114   23841360.7944
     -1635.8914      -1274.7204         54.7504         45.2504
  -9216795.41049  -7169095.01147  25871018.2944   25871019.8414
      3148.0634       2453.0364         45.0004         31.2504
 00  7  4  1 44 30.0090000  0  8G20G30G16G29G 1G11G25G22
 -19043118.20749 -14833884.63148  24126173.6854   24126170.9354
      2213.5784       1724.8664         52.0004         42.0004
    511600.47748    389311.72746  27667665.5204   27667668.0014
     -1821.2814      -1419.1804         35.5004         12.5004
  -3313004.09449  -2573159.21647  26727548.1614   26727548.0794
      3150.6414       2455.0454         43.2504         28.0004
   2173794.78949   1713235.24046  27399836.5204   27399838.2354
     -2481.7034      -1933.7954         39.7504         19.2504
  -9596476.64549  -7469360.56747  25891667.8414   25891668.4234
      2004.8134       1562.1924         47.5004         31.5004
 -14206312.80149 -11056129.20047  24660418.1774   24660416.5674
     -2199.5474      -1713.9334         51.5004         38.0004
 -18515649.57849 -14404410.37748  23850738.8724   23850736.9034
     -1648.5624      -1284.5944         53.7504         44.5004
  -9311162.98849  -7242628.02347  25853060.5054   25853062.4744
      3142.9694       2449.0674         44.5004         31.5004
 00  7  4  1 45  0.0090000  0  8G20G30G16G29G 1G11G25G22
 -19109379.78549 -14885516.99748  24113564.2164   24113561.6774
      2203.8594       1717.2934         51.7504         43.0004
    566476.35248    432072.15245  27678107.5604   27678109.6884
     -1837.1414      -1431.5384         34.0004          7.7504
  -3407499.34449  -2646791.72847  26709565.4354   26709566.2084
      3149.0314       2453.7914         42.2504         28.2504
   2248251.10949   1771253.08246  27414004.9354   27414007.0794
     -2482.1094      -1934.1114         40.5004         17.2504
  -9656564.06249  -7516181.85447  25880233.2784   25880232.9934
      2001.0634       1559.2694         47.0004         31.0004
 -14140128.52349 -11004557.11147  24673012.3494   24673011.5014
     -2212.7194      -1724.1964         51.0004         38.0004
 -18466000.54749 -14365722.83148  23860186.4424   23860184.2944
     -1661.2814      -1294.5054         54.7504         44.7504
  -9405373.44949  -7316038.61547  25835133.0524   25835133.6694
      3137.6414       2444.9154         43.7504         32.2504
 00  7  4  1 45 30.0090000  0  8G20G30G16G29G 1G11G25G22
 -19175345.33249 -14936918.69048  24101011.4274   24101009.0524
      2193.9694       1709.5864         52.5004         42.0004
    621827.00848    475202.39545  27688639.3174   27688643.2244
     -1852.8284      -1443.7624         35.7504         10.7504
  -3501945.25049  -2720385.84347  26691593.1064   26691593.9894
      3147.4534       2452.5614         42.7504         29.2504
   2322719.91449   1829280.65246  27428176.1304   27428177.9584
     -2482.5004      -1934.4164         40.0004         20.2504
  -9716538.48849  -7562915.09247  25868820.7554   25868821.0954
      1997.3284       1556.3604         46.5004         31.7504
 -14073551.37949 -10952678.89747  24685681.5134   24685680.6884
     -2225.7194      -1734.3264         51.5004         37.5004
 -18415970.99649 -14326738.78748  23869706.7864   23869704.9504
     -1673.9374      -1304.3674         53.2504         44.5004
  -9499423.16049  -7389323.95147  25817235.5674   25817237.2704
      3132.2814       2440.7394         43.7504         31.0004
 00  7  4  1 46  0.0090000  0  7G20G16G29G 1G11G25G22
 -19241015.44949 -14988090.17048  24088514.7864   24088512.6224
      2183.9844       1701.8064         52.0004         42.2504
  -3596343.06649  -2793942.44447  26673629.6774   26673630.5874
      3145.7344       2451.2224         42.5004         29.0004
   2397198.37549   1887315.69546  27442348.6534   27442350.6264
     -2482.7974      -1934.6474         40.0004         19.5004
  -9776403.34049  -7609562.89447  25857428.6534   25857429.2204
      1993.5784       1553.4384         46.7504         32.0004
 -14006587.03949 -10900498.96447  24698424.7084   24698423.5754
     -2238.6564      -1744.4074         51.2504         37.5004
 -18365565.84049 -14287462.05748  23879298.8174   23879296.2984
     -1686.4374      -1314.1074         54.0004         44.7504
  -9593311.68049  -7462483.65947  25799369.3724   25799370.3804
      3126.7814       2436.4534         44.5004         31.2504
 00  7  4  1 46 30.0090000  0  7G20G16G29G 1G11G25G22
 -19306388.85949 -15039030.46048  24076074.5754   24076072.2044
      2174.0784       1694.0874         51.0004         43.0004
  -3690691.78149  -2867460.80547  26655675.8024   26655676.3684
      3144.0784       2449.9314         40.7504         29.0004
   2471685.70349   1945357.81846  27456522.9354   27456525.3644
     -2483.1254      -1934.9034         39.7504         18.2504
  -9836159.58249  -7656126.10547  25846057.1304   25846057.8954
      1989.9844       1550.6374         47.5004         31.7504
 -13939239.00849 -10848020.05147  24711240.4814   24711239.3334
     -2251.3754      -1754.3184         51.0004         37.5004
 -18314787.60249 -14247894.61048  23888961.7474   23888959.7864
     -1698.8754      -1323.7994         54.5004         44.5004
  -9687036.14849  -7535515.57147  25781533.8254   25781535.2824
      3121.2664       2432.1554         43.2504         31.2504
 00  7  4  1 47  0.0090000  0  7G20G16G29G 1G11G25G22
 -19371457.97749 -15089733.63048  24063692.3414   24063689.8994
      2163.6254       1685.9424         51.0004         43.0004
  -3784984.77049  -2940935.71547  26637732.3334   26637733.0054
      3141.9534       2448.2754         40.7504         30.0004
   2546187.30149   2003410.92346  27470700.3494   27470702.6024
     -2483.8914      -1935.4994         39.2504         18.2504
  -9895802.03549  -7702600.66147  25834707.5444   25834707.8374
      1986.0474       1547.5694         47.0004         31.5004
 -13871504.59849 -10795240.07347  24724130.0994   24724128.9544
     -2264.3914      -1764.4604         50.5004         37.5004
 -18263633.24249 -14208034.09148  23898695.9504   23898693.7784
     -1711.5474      -1333.6734         54.5004         44.7504
  -9780587.93049  -7608412.90147  25763731.6614   25763733.0404
      3115.3134       2427.5164         43.5004         31.5004
 00  7  4  1 47 30.0090000  0  7G20G16G29G 1G11G25G22
 -19436215.96149 -15140194.35148  24051369.2084   24051366.4934
      2153.5474       1678.0884         51.5004         42.5004
  -3879215.34449  -3014362.03347  26619800.2314   26619801.1614
      3140.0474       2446.7904         41.7504         29.7504
   2620707.84449   2061478.85546  27484880.8414   27484883.4154
     -2484.2344      -1935.7674         39.5004         17.2504
  -9955326.32049  -7748983.13347  25823380.8954   25823380.6814
      1982.3284       1544.6714         47.0004         31.5004
 -13803382.03949 -10742157.63147  24737093.1924   24737092.3064
     -2277.0314      -1774.3104         50.5004         37.5004
 -18212100.71149 -14167878.88848  23908502.0674   23908499.7784
     -1723.9374      -1343.3284         55.0004         44.5004
  -9873959.46549  -7681169.80047  25745963.7474   25745964.8454
      3109.4844       2422.9754         43.7504         32.0004
 00  7  4  1 48  0.0090000  0  7G20G16G29G 1G11G25G22
 -19500662.59849 -15190412.46748  24039105.5604   24039102.5874
      2142.8284       1669.7364         50.5004         42.2504
  -3973383.65649  -3087739.81947  26601880.2634   26601881.6494
      3137.6564       2444.9274         40.2504         30.0004
   2695245.29749   2119559.96746  27499065.8104   27499066.8994
     -2485.1254      -1936.4614         39.5004         19.0004
 -10014734.64549  -7795275.24447  25812075.2314   25812075.6814
      1978.1564       1541.4204         47.7504         32.2504
 -13734876.05549 -10688776.42347  24750129.2864   24750128.8254
     -2290.0784      -1784.4764         50.7504         37.2504
 -18160193.33249 -14127431.60348  23918379.9274   23918377.7744
     -1736.6414      -1353.2264         54.5004         44.5004
  -9967149.69549  -7753785.40647  25728230.1694   25728230.5674
      3103.1094       2418.0074         42.2504         31.7504
 00  7  4  1 48 30.0090000  0  7G20G16G29G 1G11G25G22
 -19564792.30949 -15240383.63248  24026901.7394   24026899.3294
      2132.4064       1661.6154         51.5004         43.0004
  -4067484.95349  -3161065.39147  26583973.6454   26583973.8024
      3135.6564       2443.3694         42.0004         30.2504
   2769802.94549   2177656.79046  27513253.4744   27513254.8294
     -2485.4694      -1936.7294         40.0004         18.2504
 -10074024.07049  -7841474.70147  25800792.9894   25800793.8254
      1974.3914       1538.4864         49.0004         33.2504
 -13665986.23049 -10635096.12747  24763238.9274   24763237.6884
     -2302.5944      -1794.2294         50.2504         36.7504
 -18107910.04749 -14086691.40148  23928329.1304   23928326.6574
     -1749.0164      -1362.8694         53.5004         44.5004
 -10060151.89849  -7826254.51147  25710531.7004   25710532.8764
      3096.9534       2413.2104         42.2504         30.7504
 00  7  4  1 49  0.0090000  0  7G20G16G29G 1G11G25G22
 -19628606.89149 -15290109.23048  24014758.4744   24014755.7004
      2121.7504       1653.3124         52.5004         43.0004
  -4161521.18749  -3234340.26847  26566079.3564   26566079.4854
      3133.2814       2441.5184         40.7504         29.2504
   2844377.09449   2235766.48446  27527444.4504   27527446.1924
     -2486.1564      -1937.2654         40.2504         17.2504
 -10133198.52049  -7887584.56747  25789531.8104   25789532.4854
      1970.4224       1535.3944         47.0004         32.2504
 -13596719.29749 -10581121.94847  24776419.9974   24776419.2004
     -2315.3444      -1804.1644         50.7504         37.0004
 -18055256.94949 -14045663.01948  23938348.3804   23938346.2394
     -1761.4064      -1372.5244         53.5004         44.2504
 -10152966.37949  -7898577.33347  25692869.9504   25692870.5404
      3090.5314       2408.2064         42.5004         32.0004
 00  7  4  1 49 30.0090000  0  7G20G16G29G 1G11G25G22
 -19692103.46949 -15339587.03248  24002675.1854   24002672.9194
      2111.3284       1645.1914         52.0004         42.5004
  -4255490.14149  -3307562.73647  26548197.5754   26548198.1494
      3131.3284       2439.9964         40.5004         30.2504
   2918967.98449   2293889.15646  27541637.9114   27541640.7944
     -2486.5944      -1937.6064         39.5004         16.2504
 -10192257.88349  -7933604.75447  25778293.1694   25778293.5204
      1966.8134       1532.5814         47.0004         31.0004
 -13527077.43049 -10526855.64047  24789672.4354   24789671.5054
     -2327.5314      -1813.6614         50.7504         37.5004
 -18002235.53149 -14004347.64348  23948438.1064   23948436.1024
     -1773.4064      -1381.8754         53.5004         44.2504
 -10245589.38349  -7970750.96647  25675243.8104   25675245.1144
      3084.3594       2403.3974         42.2504         32.0004
 00  7  4  1 50  0.0090000  0  7G20G16G29G 1G11G25G22
 -19755276.81249 -15388812.97048  23990653.6534   23990651.3174
      2100.4844       1636.7414         52.0004         43.0004
  -4349387.18749  -3380729.15547  26530329.4814   26530330.2704
      3128.8134       2438.0364         43.0004         30.5004
   2993578.82849   2352027.41746  27555836.1694   27555838.4894
     -2487.2504      -1938.1174         39.5004         18.2504
 -10251199.35549  -7979533.10547  25767077.5994   25767077.9934
      1962.9064       1529.5374         48.0004         33.5004
 -13457060.50849 -10472297.07847  24802996.6454   24802995.3524
     -2339.9374      -1823.3284         50.5004         36.2504
 -17948844.64149 -13962744.37448  23958598.2704   23958595.9194
     -1785.6564      -1391.4204         53.5004         44.7504
 -10338014.89149  -8042770.68747  25657655.7634   25657657.1104
      3077.6884       2398.1984         44.0004         31.7504
 00  7  4  1 50 30.0090000  0  7G20G16G29G 1G11G25G22
 -19818129.01249 -15437788.65948  23978693.4504   23978690.8374
      2089.7664       1628.3894         50.7504         42.0004
  -4443214.49649  -3453841.23347  26512474.3254   26512475.1224
      3126.5164       2436.2464         42.5004         29.7504
   3068205.66849   2410178.17646  27570037.5524   27570039.6884
     -2487.7814      -1938.5314         39.7504         17.2504
 -10310027.32449  -8025372.99547  25755882.8644   25755883.1614
      1959.1884       1526.6404         46.5004         34.0004
 -13386675.35549 -10417451.57647  24816390.3644   24816389.7314
     -2352.1874      -1832.8734         50.0004         37.0004
 -17895090.62149 -13920858.14248  23968827.2944   23968825.2434
     -1797.6874      -1400.7954         53.2504         44.0004
 -10430244.13349  -8114637.46947  25640104.8414   25640106.1924
      3071.1414       2393.0974         41.0004         31.7504
 00  7  4  1 51  0.0090000  0  7G20G16G29G 1G11G25G22
 -19880662.56249 -15486516.05148  23966793.6694   23966791.1344
      2079.1094       1620.0854         51.5004         42.2504
  -4536975.21549  -3526901.41247  26494632.7164   26494632.8604
      3124.2814       2434.5054         42.0004         31.2504
   3142843.81649   2468337.75046  27584240.8024   27584243.1734
     -2488.1874      -1938.8474         40.2504         16.7504
 -10368747.04749  -8071128.51447  25744708.3644   25744709.4274
      1955.6254       1523.8644         45.2504         31.7504
 -13315929.68049 -10362325.13247  24829852.7244   24829852.3174
     -2364.1094      -1842.1634         50.2504         36.5004
 -17840980.17649 -13878694.17848  23979124.3254   23979122.1454
     -1809.6254      -1410.0974         53.5004         44.2504
 -10522278.20349  -8186352.18047  25622591.8104   25622592.4424
      3064.5004       2387.9224         43.7504         32.5004
 00  7  4  1 51 30.0090000  0  7G20G16G29G 1G11G25G22
 -19942873.86749 -15534992.34548  23954955.0994   23954952.6734
      2068.1564       1611.5504         52.7504         42.5004
  -4630665.94149  -3599907.08947  26476803.6534   26476804.0404
      3121.7814       2432.5574         42.0004         30.5004
   3217494.50449   2526507.05546  27598445.6454   27598448.4074
     -2488.6564      -1939.2134         39.0004         16.7504
 -10427357.31249  -8116798.78347  25733555.8724   25733554.8764
      1951.7344       1520.8324         48.7504         33.0004
 -13244825.00449 -10306918.97047  24843383.4584   24843382.4194
     -2376.2504      -1851.6234         50.5004         36.5004
 -17786514.11349 -13836253.10248  23989488.6774   23989486.5134
     -1821.5624      -1419.3994         53.7504         44.0004
 -10614112.18449  -8257910.99047  25605115.7554   25605116.6654
      3057.6094       2382.5534         44.0004         31.7504
 00  7  4  1 52  0.0090000  0  7G20G16G29G 1G11G25G22
 -20004758.68049 -15583214.22948  23943178.7474   23943176.3994
      2057.4064       1603.1744         52.7504         42.2504
  -4724283.29349  -3672855.57947  26458988.6384   26458989.5014
      3119.4064       2430.7064         41.5004         31.5004
   3292159.60249   2584687.55146  27612653.9194   27612656.7704
     -2489.0474      -1939.5174         39.7504         17.2504
 -10485856.20749  -8162382.27247  25722423.6924   25722423.5994
      1948.1724       1518.0564         48.5004         34.0004
 -13173362.25049 -10251233.77947  24856982.0444   24856981.7044
     -2388.0004      -1860.7794         50.2504         36.5004
 -17731692.33249 -13793534.85248  23999921.1774   23999918.8064
     -1833.2194      -1428.4824         53.7504         44.5004
 -10705740.96949  -8329309.87147  25587679.2704   25587680.9194
      3050.8444       2377.2814         43.0004         32.0004
 00  7  4  1 52 30.0090000  0  7G20G16G29G 1G11G25G22
 -20066318.64149 -15631182.99548  23931464.4354   23931461.9194
      2046.5784       1594.7364         53.2504         43.5004
  -4817828.71549  -3745748.02547  26441188.0134   26441187.9114
      3117.0314       2428.8564         42.5004         31.5004
   3366835.41449   2642876.39546  27626864.6534   27626867.2164
     -2489.4694      -1939.8464         39.2504         16.7504
 -10544247.88749  -8207882.20747  25711312.2004   25711312.5604
      1944.6414       1515.3044         48.5004         33.5004
 -13101548.08249 -10195274.76647  24870648.4114   24870647.8134
     -2399.5314      -1869.7654         50.0004         36.7504
 -17676521.08249 -13750544.28048  24010419.9354   24010417.3334
     -1844.8594      -1437.5534         52.7504         44.0004
 -10797165.34049  -8400549.49547  25570281.1854   25570282.7784
      3044.0164       2371.9604         43.0004         32.5004
 00  7  4  1 53  0.0090000  0  7G20G16G29G 1G11G25G22
 -20127547.89149 -15678894.05348  23919812.6304   23919809.8414
      2035.4694       1586.0804         52.7504         42.7504
  -4911297.21949  -3818580.51247  26423400.8104   26423401.4974
      3114.2194       2426.6644         41.5004         30.7504
   3441525.69949   2701076.53146  27641078.0604   27641080.1104
     -2490.0314      -1940.2844         39.2504         15.5004
 -10602529.01249  -8253295.98547  25700221.5914   25700221.4424
      1940.8594       1512.3584         48.5004         33.5004
 -13029381.93749 -10139041.47747  24884381.1224   24884380.5284
     -2411.4224      -1879.0304         50.0004         36.5004
 -17620998.58249 -13707280.01448  24020985.2634   24020983.2124
     -1856.6724      -1446.7574         53.0004         44.0004
 -10888378.78549  -8471624.76947  25552924.6774   25552925.4774
      3036.7504       2366.2994         45.0004         32.5004
 00  7  4  1 53 30.0090000  0  6G20G16G 1G11G25G22
 -20188437.84849 -15726340.74748  23908226.0674   23908223.4274
      2024.1884       1577.2894         52.0004         43.2504
  -5004680.62149  -3891346.71347  26405630.8414   26405631.3064
      3111.5314       2424.5704         44.0004         31.2504
 -10660693.53949  -8298618.92947  25689153.2864   25689152.4894
      1937.1254       1509.4484         43.2504         33.5004
 -12956860.26249 -10082531.15747  24898181.7634   24898181.1814
     -2423.0944      -1888.1254         50.7504         35.7504
 -17565120.66049 -13663738.78748  24031618.2554   24031616.1964
     -1868.1874      -1455.7314         53.0004         43.7504
 -10979371.18449  -8542527.76747  25535609.4274   25535610.1184
      3029.5474       2360.6864         44.5004         32.2504
 00  7  4  1 54  0.0090000  0  6G20G16G 1G11G25G22
 -20248994.25849 -15773527.52648  23896702.3104   23896699.9354
      2012.9384       1568.5234         53.5004         43.5004
  -5097984.87149  -3964051.22847  26387875.5134   26387875.8174
      3108.6884       2422.3544         43.5004         31.2504
 -10718749.27749  -8343857.10547  25678105.6144   25678105.1964
      1933.2504       1506.4294         47.2504         34.0004
 -12883993.61349 -10025752.02947  24912047.8254   24912047.1454
     -2434.7194      -1897.1834         50.2504         35.7504
 -17508897.45749 -13619928.51348  24042317.3804   24042315.8064
     -1879.8914      -1464.8504         52.7504         44.2504
 -11070146.82849  -8613261.88447  25518334.6064   25518336.1574
      3022.1414       2354.9154         43.5004         33.5004
 00  7  4  1 54 30.0090000  0  6G20G16G 1G11G25G22
 -20309212.34449 -15820450.68248  23885243.1304   23885240.7864
      2001.5164       1559.6234         54.2504         43.7504
  -5191205.53149  -4036690.59247  26370136.0834   26370136.5444
      3105.8284       2420.1264         41.2504         31.0004
 -10776694.02349  -8389008.77547  25667078.8024   25667078.5134
      1929.5314       1503.5314         47.7504         34.0004
 -12810782.66849  -9968704.61347  24925979.1614   24925979.1454
     -2446.1724      -1906.1084         50.0004         36.0004
 -17452328.54349 -13575848.85648  24053081.9744   24053080.3104
     -1891.5004      -1473.8964         51.7504         44.0004
 -11160700.04749  -8683822.69347  25501103.4664   25501104.0284
      3014.6094       2349.0464         43.7504         32.5004
 00  7  4  1 55  0.0090000  0  6G20G16G 1G11G25G22
 -20369086.10949 -15867105.53648  23873849.4974   23873846.7904
      1990.0634       1550.6984         53.5004         43.5004
  -5284337.23849  -4109260.66947  26352413.8564   26352413.4584
      3102.8914       2417.8374         42.7504         31.0004
 -10834523.99249  -8434071.01647  25656074.0204   25656074.1494
      1925.7504       1500.5844         45.0004         34.5004
 -12737226.22749  -9911387.99247  24939976.5754   24939976.3214
     -2457.5944      -1915.0084         49.0004         35.5004
 -17395411.65649 -13531498.04948  24063913.1614   24063910.7204
     -1903.0314      -1482.8814         52.0004         44.0004
 -11251024.19549  -8754204.99647  25483914.3804   25483915.5204
      3007.0004       2343.1174         45.2504         33.0004
 00  7  4  1 55 30.0090000  0  6G20G16G 1G11G25G22
 -20428612.19949 -15913489.48048  23862522.2704   23862519.4384
      1978.2504       1541.4944         54.7504         44.0004
  -5377376.45349  -4181758.64947  26334708.6144   26334708.8254
      3099.7034       2415.3534         42.5004         31.5004
 -10892238.66849  -8479043.40547  25645091.4744   25645090.9544
      1921.7814       1497.4924         48.2504         34.5004
 -12663326.20349  -9853803.63647  24954039.6694   24954039.0014
     -2469.1874      -1924.0424         50.0004         36.0004
 -17338148.27049 -13486877.24448  24074810.0834   24074808.0564
     -1914.6564      -1491.9404         52.2504         43.7504
 -11341115.10549  -8824405.55147  25466771.4424   25466771.7704
      2999.0164       2336.8954         44.5004         33.2504
 00  7  4  1 56  0.0090000  0  6G20G16G 1G11G25G22
 -20487791.55949 -15959603.24548  23851260.6924   23851258.0914
      1966.5004       1532.3384         54.2504         44.0004
  -5470325.11749  -4254186.07947  26317021.2084   26317021.6344
      3096.5004       2412.8574         44.5004         31.2504
 -10949841.32449  -8523928.54147  25634130.3254   25634129.3134
      1917.9064       1494.4724         48.0004         34.5004
 -12589088.95749  -9795956.52447  24968166.3724   24968165.8644
     -2480.5004      -1932.8574         50.5004         36.0004
 -17280543.54749 -13441990.46948  24085771.6224   24085769.3064
     -1926.1564      -1500.9014         52.0004         43.7504
 -11430972.22749  -8894423.92247  25449671.9274   25449672.1144
      2990.9694       2330.6254         45.0004         33.5004
 00  7  4  1 56 30.0090000  0  6G20G16G 1G11G25G22
 -20546620.97349 -16005444.33248  23840065.8254   23840062.8924
      1955.1094       1523.4624         53.7504         44.5004
  -5563179.98049  -4326540.42147  26299351.6224   26299351.6924
      3093.5314       2410.5444         43.5004         31.5004
 -11007331.28949  -8568725.84047  25623189.6854   25623189.5994
      1914.4534       1491.7824         48.2504         34.5004
 -12514516.15249  -9737847.90547  24982357.2704   24982356.7554
     -2491.3284      -1941.2954         50.0004         35.7504
 -17222598.74249 -13396838.68848  24096798.4424   24096796.4464
     -1937.1874      -1509.4974         52.0004         43.2504
 -11520590.94549  -8964256.55847  25432617.4274   25432618.2044
      2983.2974       2324.6474         43.0004         34.2504
 00  7  4  1 57  0.0090000  0  6G20G16G 1G11G25G22
 -20605100.35549 -16051012.67348  23828937.6384   23828934.7474
      1943.5474       1514.4524         54.0004         44.0004
  -5655941.37149  -4398821.93247  26281699.5204   26281699.7744
      3090.6724       2408.3164         42.5004         31.5004
 -11064710.85549  -8613437.13547  25612271.1534   25612270.4664
      1910.9224       1489.0304         48.5004         34.2504
 -12439612.75049  -9679481.71747  24996611.1144   24996610.6144
     -2502.1254      -1949.7084         50.5004         35.5004
 -17164317.70349 -13351424.91248  24107888.8104   24107886.8604
     -1948.1254      -1518.0194         51.2504         44.0004
 -11609970.19549  -9033902.58147  25415609.0284   25415610.3024
      2975.4224       2318.5114         42.5004         33.2504
 00  7  4  1 57 30.0090000  0  6G20G16G 1G11G25G22
 -20663230.68749 -16096309.01648  23817875.5994   23817872.7944
      1931.7974       1505.2964         54.0004         44.0004
  -5748610.43449  -4471031.50147  26264064.9504   26264064.9074
      3087.3284       2405.7104         43.7504         31.7504
 -11121983.46549  -8658065.07047  25601372.3494   25601372.0794
      1907.2664       1486.1814         47.5004         34.0004
 -12364385.28149  -9620862.99747  25010926.5834   25010925.6884
     -2512.9694      -1958.1574         50.0004         36.5004
 -17105706.06249 -13305753.51848  24119042.3414   24119040.2204
     -1959.2504      -1526.6884         52.2504         43.2504
 -11699110.58649  -9103362.47347  25398646.2704   25398646.3604
      2967.2194       2312.1194         42.2504         33.2504
 00  7  4  1 58  0.0090000  0  7G20G19G16G 1G11G25G22
 -20721003.24649 -16141326.59148  23806881.8564   23806879.2394
      1919.8444       1495.9824         53.5004         44.2504
   -102332.87959    -71735.53156  27804208.1064   27804216.4854
      3207.6254       2499.4484         39.0004         14.7504
  -5841179.16849  -4543162.88747  26246450.2394   26246449.7164
      3084.0164       2403.1294         44.2504         31.0004
 -11179142.68049  -8702604.63247  25590494.7634   25590494.1734
      1903.5314       1483.2714         45.0004         33.7504
 -12288829.93449  -9561988.77847  25025304.1774   25025303.6964
     -2523.8914      -1966.6684         49.5004         35.5004
 -17046759.35249 -13259821.03848  24130259.6854   24130257.6654
     -1970.4224      -1535.3944         51.7504         43.5004
 -11788002.08249  -9172628.44547  25381730.7244   25381731.5754
      2958.9694       2305.6904         42.0004         33.5004
 00  7  4  1 58 30.0090000  0  7G20G19G16G 1G11G25G22
 -20778422.19949 -16186068.61348  23795955.2474   23795952.6184
      1908.1414       1486.8634         53.0004         44.5004
   -198511.63749   -146679.60246  27785905.3254   27785913.4664
      3204.1884       2496.7694         37.5004         17.7504
  -5933651.43049  -4615219.10047  26228852.7314   26228852.6774
      3080.8134       2400.6334         44.5004         31.0004
 -11236194.86749  -8747060.82147  25579638.9114   25579637.7904
      1899.9384       1480.4714         44.0004         34.7504
 -12212956.02049  -9502866.34547  25039742.8804   25039742.1424
     -2534.3444      -1974.8134         49.5004         35.2504
 -16987485.91049 -13213633.96548  24141539.0054   24141536.8374
     -1981.1564      -1543.7584         52.2504         43.5004
 -11876647.43049  -9241702.61247  25364862.0604   25364862.9034
      2950.7504       2299.2864         42.5004         33.0004
 00  7  4  1 59  0.0090000  0  7G20G19G16G 1G11G25G22
 -20835485.34049 -16230533.38948  23785096.1534   23785093.5714
      1896.2504       1477.5974         52.5004         44.0004
   -294581.12949   -221538.43746  27767623.5364   27767631.4774
      3200.6564       2494.0184         36.5004         16.7504
  -6026025.61349  -4687198.88947  26211274.5364   26211274.6854
      3077.5634       2398.1014         43.5004         30.5004
 -11293140.46149  -8791433.95947  25568802.4354   25568802.9704
      1896.5474       1477.8294         44.5004         34.2504
 -12136766.53949  -9443498.00547  25054240.8254   25054240.3724
     -2544.7814      -1982.9464         49.5004         35.5004
 -16927887.97749 -13167194.03248  24152879.9894   24152877.8524
     -1991.8284      -1552.0744         52.0004         43.5004
 -11965043.21149  -9310582.31447  25348040.2634   25348041.0134
      2942.5314       2292.8814         42.0004         33.5004
 00  7  4  1 59 30.0090000  0  7G20G19G16G 1G11G25G22
 -20892190.28549 -16274719.05448  23774306.1614   23774303.2474
      1884.0164       1468.0644         52.2504         44.5004
   -390540.00449   -296311.15246  27749363.2634   27749370.7244
      3196.7504       2490.9744         38.5004         13.7504
  -6118299.89849  -4759100.83547  26193715.4114   26193714.8954
      3073.9694       2395.3004         44.5004         31.0004
 -11349979.59449  -8835724.10347  25557985.6774   25557985.2394
      1892.7034       1474.8344         43.7504         35.0004
 -12060264.41849  -9383886.05947  25068798.9894   25068798.4974
     -2555.3754      -1991.2014         49.0004         35.5004
 -16867967.80549 -13120503.00848  24164282.1774   24164280.2434
     -2002.7974      -1560.6214         52.0004         43.2504
 -12053186.30549  -9379265.10947  25331267.2474   25331268.4544
      2933.7344       2286.0274         42.0004         33.0004
 00  7  4  2  0  0.0090000  0  7G20G19G16G 1G11G25G22
 -20948532.54749 -16318622.10548  23763584.3024   23763581.5364
      1872.1724       1458.8354         53.0004         44.5004
   -486384.59049   -370994.80146  27731123.5994   27731131.6884
      3193.0944       2488.1254         38.7504         17.2504
  -6210469.53949  -4830921.26247  26176176.1924   26176175.8764
      3070.7034       2392.7564         45.5004         30.0004
 -11406710.01649  -8879929.57347  25547189.6924   25547189.0674
      1889.3754       1472.2404         45.5004         35.0004
 -11983450.05949  -9324030.79847  25083415.6384   25083415.6024
     -2565.4374      -1999.0424         49.0004         35.7504
 -16807724.72749 -13073560.36548  24175746.2314   24175743.9584
     -2013.3594      -1568.8514         52.0004         43.5004
 -12141071.35549  -9447746.83147  25314543.8494   25314544.2434
      2925.2504       2279.4164         43.5004         34.0004
 00  7  4  2  0 30.0090000  0  7G20G19G16G 1G11G25G22
 -21004513.33249 -16362243.48148  23752931.6924   23752929.0364
      1859.7194       1449.1314         53.7504         44.2504
   -582117.23449   -445591.15946  27712906.5914   27712914.2124
      3189.0164       2484.9474         39.0004         18.2504
  -6302536.27349  -4902661.48847  26158656.0444   26158655.3994
      3066.9224       2389.8094         45.2504         31.0004
 -11463335.60549  -8924053.32947  25536414.0284   25536414.7744
      1885.5314       1469.2454         45.7504         34.5004
 -11906330.13349  -9263937.44447  25098091.4974   25098091.5324
     -2575.9224      -2007.2124         49.2504         34.5004
 -16747164.52049 -13026370.61748  24187270.5054   24187268.6774
     -2024.1094      -1577.2284         52.0004         43.0004
 -12228698.53549  -9516027.61847  25297868.8334   25297869.1384
      2916.3444       2272.4764         42.2504         33.2504
 00  7  4  2  1  0.0090000  0  7G20G19G16G 1G11G25G22
 -21060124.03549 -16405576.48248  23742349.1224   23742346.3604
      1847.5474       1439.6474         53.0004         44.5004
   -677730.08649   -520094.22446  27694712.7634   27694719.3994
      3185.0784       2481.8794         40.5004         19.5004
  -6394491.91049  -4974315.12547  26141157.7244   26141157.4114
      3063.2974       2386.9854         45.7504         31.5004
 -11519850.05149  -8968090.47547  25525660.5604   25525659.7044
      1882.0004       1466.4944         47.5004         35.5004
 -11828901.28149  -9203603.35747  25112825.8254   25112825.8024
     -2586.0784      -2015.1264         49.2504         35.0004
 -16686283.13749 -12978930.59048  24198856.0054   24198853.8334
     -2034.6564      -1585.4464         51.5004         42.7504
 -12316057.75449  -9584099.59747  25281244.3644   25281244.5994
      2907.4534       2265.5484         43.0004         34.2504
 00  7  4  2  1 30.0090000  0  7G20G19G16G 1G11G25G22
 -21115364.45349 -16448620.95148  23731837.3954   23731834.8804
      1835.0634       1429.9194         54.2504         44.5004
   -773223.89549   -594504.52346  27676538.9584   27676546.5484
      3180.9534       2478.6654         38.2504         19.5004
  -6486336.52349  -5045882.27147  26123680.0674   26123679.2784
      3059.5474       2384.0634         44.5004         29.7504
 -11576255.39549  -9012042.63947  25514926.5204   25514925.1574
      1878.2974       1463.6084         46.5004         34.0004
 -11751168.47749  -9143032.45047  25127618.3414   25127617.8334
     -2596.2664      -2023.0644         49.5004         35.5004
 -16625084.38749 -12931243.27448  24210501.5834   24210499.3884
     -2045.3124      -1593.7504         51.5004         43.2504
 -12403147.59849  -9651961.70047  25264671.5754   25264672.3524
      2898.3444       2258.4504         43.7504         33.7504
 00  7  4  2  2  0.0090000  0  7G20G19G16G 1G11G25G22
 -21170227.61749 -16491371.45248  23721397.2394   23721394.5444
      1822.5944       1420.2034         53.5004         44.5004
   -868592.68049   -668817.44146  27658390.7554   27658398.2554
      3177.0474       2475.6214         37.5004         15.5004
  -6578062.53149  -5117357.00647  26106225.3024   26106224.6734
      3055.5944       2380.9824         44.5004         30.5004
 -11632546.75449  -9055905.96647  25504214.8644   25504214.4744
      1874.5164       1460.6624         47.0004         35.5004
 -11673129.63749  -9082223.06147  25142468.4424   25142468.2674
     -2606.3754      -2030.9424         49.5004         35.5004
 -16563565.28149 -12883306.31348  24222208.5994   24222205.8684
     -2055.8754      -1601.9814         52.0004         43.5004
 -12489960.03949  -9719607.62647  25248151.8254   25248152.3524
      2889.0314       2251.1934         43.2504         34.2504
 00  7  4  2  2 30.0090000  0  7G20G19G16G 1G11G25G22
 -21224717.95749 -16533831.44648  23711027.9974   23711025.3374
      1810.1414       1410.4994         54.2504         44.2504
   -963842.06649   -743037.18146  27640265.1224   27640272.3494
      3173.0784       2472.5284         38.5004         18.2504
  -6669675.39849  -5188743.58447  26088791.5994   26088791.6884
      3051.9064       2378.1094         45.5004         30.5004
 -11688731.48849  -9099686.17947  25493523.0834   25493522.6104
      1871.1564       1458.0444         47.2504         35.7504
 -11594794.62149  -9021182.88547  25157375.3024   25157375.2434
     -2616.0004      -2038.4424         49.2504         34.2504
 -16501735.30549 -12835127.13348  24233974.4664   24233971.8524
     -2066.0944      -1609.9434         51.7504         43.0004
 -12576499.37949  -9787040.76247  25231683.3804   25231683.5634
      2880.0634       2244.2054         43.2504         33.5004
 00  7  4  2  3  0.0090000  0  7G20G19G16G 1G11G25G22
 -21278828.71949 -16575995.65548  23700731.1454   23700728.0244
      1797.4064       1400.5764         53.0004         44.5004
  -1058965.77749   -817159.10946  27622163.8414   27622170.5674
      3168.7814       2469.1804         39.2504         18.2504
  -6761168.01249  -5260036.45047  26071381.0444   26071380.9424
      3047.8444       2374.9434         45.5004         31.0004
 -11744804.93049  -9143379.70447  25482852.8644   25482851.4934
      1867.3444       1455.0734         44.0004         34.5004
 -11516161.85249  -8959910.70547  25172338.2864   25172339.0054
     -2625.9534      -2046.1974         49.0004         34.5004
 -16439591.57849 -12786703.46048  24245799.9194   24245797.5564
     -2076.5624      -1618.1014         51.7504         42.7504
 -12662757.07449  -9854254.41947  25215269.3954   25215269.9464
      2870.7034       2236.9124         44.5004         34.0004
 00  7  4  2  3 30.0090000  0  7G20G19G16G 1G11G25G22
 -21332563.88349 -16617867.18848  23690505.8414   23690502.7824
      1784.6724       1390.6534         53.7504         44.5004
  -1153968.79349   -891186.97746  27604084.0364   27604091.6344
      3164.3444       2465.7224         37.5004         17.7504
  -6852544.97749  -5331239.18947  26053992.9894   26053992.2634
      3043.7664       2371.7654         44.5004         31.7504
 -11800773.61749  -9186991.61347  25472202.7944   25472201.3724
      1863.5634       1452.1274         46.2504         35.5004
 -11437240.58649  -8898413.71547  25187356.6144   25187357.0914
     -2635.7974      -2053.8684         49.0004         34.2504
 -16377142.38349 -12738041.76848  24257683.6304   24257681.0874
     -2086.9844      -1626.2224         50.0004         42.5004
 -12748735.66849  -9921250.61547  25198908.0604   25198908.3454
      2861.0314       2229.3754         42.5004         34.0004
 00  7  4  2  4  0.0090000  0  7G20G19G16G 1G11G25G22
 -21385913.56249 -16659438.33748  23680353.3884   23680350.7824
      1771.7504       1380.5844         53.7504         44.7504
  -1248842.21149   -965113.95246  27586030.6144   27586037.3104
      3160.0944       2462.4114         39.7504         20.2504
  -6943796.34049  -5402344.07747  26036627.9354   26036627.7314
      3039.4064       2368.3694         45.5004         31.0004
 -11856629.70749  -9230515.73747  25461572.6854   25461572.6814
      1859.7974       1449.1924         43.7504         34.7504
 -11358025.91049  -8836688.09147  25202430.8104   25202430.8764
     -2645.4844      -2061.4164         49.7504         33.5004
 -16314382.03549 -12689137.62248  24269626.6774   24269624.0714
     -2097.2814      -1634.2454         51.0004         42.7504
 -12834424.12949  -9988020.71547  25182601.8884   25182602.2084
      2851.2034       2221.7174         44.5004         34.0004
 00  7  4  2  4 30.0090000  0  7G20G19G16G 1G11G25G22
 -21438877.81649 -16700709.16148  23670274.5994   23670271.9314
      1759.0164       1370.6624         54.0004         44.7504
  -1343587.16449  -1038940.71746  27568001.4664   27568007.1104
      3156.0784       2459.2824         40.5004         20.0004
  -7034922.52349  -5473351.42047  26019286.7394   26019286.8524
      3035.4384       2365.2764         46.5004         31.2504
 -11912375.60549  -9273954.04147  25450964.5674   25450964.0634
      1856.3754       1446.5264         45.5004         34.7504
 -11278523.19149  -8774738.02847  25217559.9274   25217559.9384
     -2654.8284      -2068.6974         49.5004         33.7504
 -16251315.33249 -12639994.75148  24281627.5444   24281625.4814
     -2107.2664      -1642.0254         50.2504         42.5004
 -12919822.14149 -10054564.50547  25166351.0754   25166351.4194
      2841.7664       2214.3634         43.5004         34.5004
 00  7  4  2  5  0.0090000  0  7G20G19G16G 1G11G25G22
 -21491456.61749 -16741679.61948  23660269.2634   23660266.9074
      1746.2194       1360.6904         54.5004         44.7504
  -1438204.37949  -1112667.89946  27549996.2244   27550002.1854
      3151.7034       2455.8734         40.0004         19.7504
  -7125923.18749  -5544260.95047  26001970.4114   26001970.2474
      3031.2664       2362.0254         45.2504         30.7504
 -11968013.93049  -9317308.50847  25440377.6144   25440375.9584
      1852.8444       1443.7744         45.5004         35.2504
 -11198737.75849  -8712567.65247  25232742.2084   25232742.6694
     -2664.1874      -2075.9904         48.7504         34.2504
 -16187945.96549 -12590616.04048  24293686.8954   24293684.5014
     -2117.3594      -1649.8904         51.2504         43.0004
 -13004928.70749 -10120881.20547  25150155.9274   25150155.4814
      2831.9224       2206.6924         44.5004         33.7504
 00  7  4  2  5 30.0090000  0  7G20G19G16G 1G11G25G22
 -21543642.47349 -16782343.89648  23650338.9114   23650335.8524
      1733.0164       1350.4024         53.7504         44.7504
  -1532687.41849  -1186290.68246  27532015.7704   27532021.7744
      3147.2814       2452.4274         41.0004         18.2504
  -7216791.51649  -5615067.37547  25984678.6304   25984678.1304
      3026.8284       2358.5674         46.0004         30.2504
 -12023539.45749  -9360575.07947  25429810.6064   25429810.7244
      1849.0784       1440.8404         44.5004         35.2504
 -11118667.19549  -8650175.10947  25247979.7784   25247979.4774
     -2673.6724      -2083.3814         49.5004         34.0004
 -16124271.30949 -12540999.45548  24305803.5524   24305801.2044
     -2127.5314      -1657.8174         50.0004         43.2504
 -13089734.84449 -10186963.80347  25134017.7244   25134018.2474
      2821.9384       2198.9124         44.2504         34.5004
 00  7  4  2  6  0.0090000  0  7G20G19G16G 1G11G25G22
 -21595435.58249 -16822702.14348  23640482.6144   23640480.0204
      1719.6884       1340.0164         54.5004         45.2504
  -1627037.01249  -1259809.42846  27514061.7474   27514067.5634
      3142.5314       2448.7264         40.5004         19.2504
  -7307527.47749  -5685770.64147  25967411.8334   25967411.4974
      3022.1254       2354.9034         46.5004         30.2504
 -12078954.46149  -9403755.52947  25419266.0994   25419265.2124
      1845.1254       1437.7604         46.7504         35.0004
 -11038316.61349  -8587564.38047  25263269.9274   25263270.0324
     -2683.1254      -2090.7474         48.7504         33.0004
 -16060295.41449 -12491148.14048  24317977.6304   24317975.6264
     -2137.7344      -1665.7674         51.0004         43.2504
 -13174239.19149 -10252811.22447  25117936.6854   25117936.9774
      2811.5944       2190.8524         43.7504         34.5004
 00  7  4  2  6 30.0090000  0  7G20G19G16G 1G11G25G22
 -21646836.99249 -16862755.15548  23630701.3174   23630698.3924
      1706.9224       1330.0694         54.0004         45.0004
  -1721255.62949  -1333226.03246  27496130.6534   27496137.9704
      3138.7974       2445.8164         37.2504         18.2504
  -7398132.22349  -5756371.65747  25950170.8254   25950170.4624
      3018.0164       2351.7004         46.2504         31.0004
 -12134262.62549  -9446852.71847  25408740.7944   25408739.8644
      1841.9384       1435.2764         45.5004         34.7504
 -10957692.63749  -8524740.59647  25278612.5134   25278612.3134
     -2691.9064      -2097.5894         48.0004         33.2504
 -15996024.08249 -12441066.60148  24330208.0994   24330206.2204
     -2147.2194      -1673.1574         50.7504         42.2504
 -13258442.14549 -10318423.80547  25101913.5284   25101913.7864
      2801.7664       2183.1944         43.5004         34.2504
 00  7  4  2  7  0.0090000  0  7G20G19G16G 1G11G25G22
 -21697843.98449 -16902500.84248  23620994.6384   23620992.0134
      1693.6724       1319.7444         54.5004         44.7504
  -1815341.01249  -1406538.90646  27478227.0604   27478233.3564
      3133.8754       2441.9814         40.2504         20.5004
  -7488603.30949  -5826868.53147  25932954.3804   25932953.9274
      3013.3914       2348.0974         46.0004         30.5004
 -12189463.41849  -9489866.25147  25398236.5604   25398235.9974
      1838.2034       1432.3664         46.2504         35.5004
 -10876797.71149  -8461705.69947  25294006.2314   25294006.0174
     -2700.9694      -2104.6514         49.5004         33.2504
 -15931458.69149 -12390755.92748  24342494.6854   24342492.3724
     -2157.0624      -1680.8284         51.0004         43.0004
 -13342339.96949 -10383798.63147  25085948.6224   25085948.4774
      2791.4224       2175.1344         44.0004         35.0004
 00  7  4  2  7 30.0090000  0  7G20G19G16G 1G11G25G22
 -21748449.90649 -16941934.00048  23611364.7314   23611361.9504
      1680.5164       1309.4934         54.5004         44.7504
  -1909287.74649  -1479743.74946  27460350.2004   27460355.9624
      3129.6094       2438.6574         40.0004         21.2504
  -7578933.92649  -5897255.94847  25915764.6854   25915764.5404
      3008.9694       2344.6514         46.5004         31.2504
 -12244552.44549  -9532792.67947  25387753.6614   25387752.4544
      1834.7194       1429.6514         48.2504         35.0004
 -10795630.48049  -8398458.60447  25309451.9974   25309451.7704
     -2709.8124      -2111.5424         49.0004         34.5004
 -15866596.73849 -12340214.17048  24354837.5674   24354834.9974
     -2166.7034      -1688.3404         51.5004         43.2504
 -13425925.19149 -10448929.86147  25070043.0364   25070042.4774
      2781.2504       2167.2084         45.7504         34.2504
 00  7  4  2  8  0.0090000  0  7G20G19G16G 1G11G25G22
 -21798657.27049 -16981056.58848  23601810.7314   23601808.0714
      1666.9064       1298.8884         55.0004         45.0004
  -2003099.38749  -1552843.35446  27442497.4504   27442503.7314
      3124.8134       2434.9194         41.0004         19.5004
  -7669127.18449  -5967536.33547  25898601.5054   25898601.1064
      3004.0944       2340.8524         47.0004         31.0004
 -12299534.71149  -9575635.92947  25377290.3254   25377289.5174
      1830.9844       1426.7414         47.7504         36.0004
 -10714198.73849  -8335005.40847  25324947.7164   25324948.3644
     -2718.7664      -2118.5194         48.7504         33.0004
 -15801445.10249 -12289446.69648  24367235.3334   24367233.4384
     -2176.5004      -1695.9744         51.5004         42.7504
 -13509199.00049 -10513818.43947  25054196.3334   25054195.4194
      2770.4844       2158.8194         45.2504         34.5004
 00  7  4  2  8 30.0090000  0  7G20G19G16G 1G11G25G22
 -21848458.73449 -17019862.90248  23592333.6224   23592331.1184
      1653.4224       1288.3814         54.0004         45.0004
  -2096769.24649  -1625832.49146  27424673.3024   27424678.7314
      3119.9694       2431.1444         41.0004         21.7504
  -7759175.28149  -6037703.61647  25881466.3254   25881465.8254
      2999.3444       2337.1514         47.0004         30.5004
 -12354404.89849  -9618391.85447  25366848.6384   25366848.4704
      1827.2974       1423.8684         47.0004         35.5004
 -10632500.18049  -8271344.29447  25340494.4274   25340494.5404
     -2727.5164      -2125.3374         48.5004         33.2504
 -15736000.86749 -12238451.22048  24379689.0284   24379686.8844
     -2186.1724      -1703.5114         51.2504         42.5004
 -13592152.52749 -10578457.45547  25038410.6224   25038410.4384
      2759.8914       2150.5644         46.0004         34.7504
 00  7  4  2  9  0.0090000  0  7G20G19G16G 1G11G25G22
 -21897857.08649 -17058355.08948  23582933.8334   23582931.0444
      1639.9844       1277.9104         53.5004         45.0004
  -2190301.21949  -1698714.16346  27406873.5604   27406879.6884
      3115.5314       2427.6874         42.2504         21.7504
  -7849081.19149  -6107760.10447  25864357.3884   25864356.6814
      2994.6094       2333.4624         47.2504         31.5004
 -12409168.21149  -9661064.48147  25356427.5524   25356427.2084
      1823.8134       1421.1534         47.7504         35.2504
 -10550542.69949  -8207481.42447  25356091.0674   25356090.8724
     -2736.0474      -2131.9854         49.5004         34.2504
 -15670270.74249 -12187232.97448  24392197.1454   24392194.7394
     -2195.6254      -1710.8774         50.7504         42.7504
 -13674787.54749 -10642848.26747  25022685.6144   25022685.4034
      2749.3284       2142.3344         46.2504         34.7504
 00  7  4  2  9 30.0090000  0  7G20G19G16G 1G11G25G22
 -21946854.08249 -17096534.53648  23573609.8104   23573606.9314
      1626.6414       1267.5124         53.7504         45.0004
  -2283697.84049  -1771490.34146  27389101.2864   27389106.4744
      3110.9694       2424.1314         41.5004         20.7504
  -7938846.71949  -6177707.17247  25847275.0834   25847274.8954
      2989.8594       2329.7614         46.5004         30.7504
 -12463828.54349  -9703656.87147  25346025.9114   25346025.3724
      1820.3444       1418.4504         47.0004         35.0004
 -10468333.25449  -8143422.22147  25371734.6144   25371734.9664
     -2744.4694      -2138.5474         48.5004         33.5004
 -15604260.87949 -12135796.75048  24404758.2084   24404755.7944
     -2204.8914      -1718.0974         50.5004         43.0004
 -13757105.07849 -10706991.67847  25007021.1854   25007020.3994
      2738.6414       2134.0064         47.0004         35.5004
 00  7  4  2 10  0.0090000  0  7G20G19G16G 1G11G25G22
 -21995440.93749 -17134394.39448  23564363.7784   23564361.0324
      1612.8134       1256.7374         53.2504         44.7504
  -2376951.51249  -1844155.12446  27371355.1064   27371361.0714
      3106.1564       2420.3814         41.2504         22.0004
  -8028463.07849  -6247538.03347  25830221.5994   25830221.1104
      2984.7344       2325.7674         46.7504         30.5004
 -12518379.57849  -9746164.10347  25335645.4974   25335644.6064
      1816.6724       1415.5884         46.2504         35.7504
 -10385868.27749  -8079163.91447  25387427.6224   25387428.0524
     -2752.9534      -2145.1584         49.0004         33.2504
 -15537967.01249 -12084139.22048  24417373.4274   24417371.6344
     -2214.4374      -1725.5364         50.5004         41.7504
 -13839095.59449 -10770880.29047  24991418.3884   24991418.2274
      2727.6094       2125.4104         47.5004         35.5004
 00  7  4  2 10 30.0090000  0  7G20G19G16G 1G11G25G22
 -22043616.01649 -17171933.39448  23555196.7474   23555193.6384
      1598.6564       1245.7064         53.7504         45.2504
  -2470061.19549  -1916707.76846  27353636.6534   27353642.2474
      3100.9384       2416.3154         43.2504         22.5004
  -8117928.59849  -6317251.34047  25813196.5604   25813196.4624
      2979.3594       2321.5794         47.0004         31.5004
 -12572821.56249  -9788586.36047  25325285.5204   25325284.9934
      1812.6414       1412.4474         47.5004         35.5004
 -10303151.12949  -8014709.09447  25403168.4894   25403168.6774
     -2761.6564      -2151.9404         48.7504         33.5004
 -15471391.20349 -12032262.00448  24430042.5674   24430040.3524
     -2224.1724      -1733.1214         50.0004         42.5004
 -13920755.57049 -10834511.32847  24975879.1224   24975878.5714
      2716.1884       2116.5104         46.5004         35.5004
 00  7  4  2 11  0.0090000  0  7G20G19G16G 1G11G25G22
 -22091375.34849 -17209148.43248  23546108.3414   23546105.7044
      1585.0784       1235.1264         53.5004         45.7504
  -2563023.76649  -1989145.76446  27335945.9894   27335951.3294
      3096.3444       2412.7354         42.0004         22.0004
  -8207239.44549  -6386844.14247  25796201.3174   25796200.8024
      2974.5474       2317.8294         47.2504         31.0004
 -12627153.11749  -9830922.57847  25314946.6854   25314945.3644
      1809.1884       1409.7564         46.0004         35.7504
 -10220183.30949  -7950058.95347  25418956.4584   25418956.9154
     -2769.7034      -2158.2104         48.5004         33.5004
 -15404534.26649 -11980165.70948  24442764.9744   24442763.0564
     -2233.1724      -1740.1344         49.7504         42.0004
 -14002079.97749 -10897880.88647  24960403.9424   24960403.0364
      2705.2344       2107.9754         46.5004         35.5004
 00  7  4  2 11 30.0090000  0  7G20G19G16G 1G11G25G22
 -22138715.98849 -17246037.22548  23537099.6384   23537097.0134
      1570.9844       1224.1444         53.0004         45.2504
  -2655837.61749  -2061467.83546  27318283.2474   27318288.9194
      3091.2814       2408.7914         42.5004         22.5004
  -8296392.48049  -6456313.97147  25779236.1384   25779235.0404
      2969.1254       2313.6044         47.0004         30.7504
 -12681373.53949  -9873172.20847  25304628.3494   25304627.8374
      1805.4534       1406.8474         44.5004         36.0004
 -10136967.03949  -7885215.20847  25434792.5284   25434792.3294
     -2777.9694      -2164.6514         48.7504         33.2504
 -15337397.19949 -11927851.14648  24455540.9114   24455539.1734
     -2242.5474      -1747.4394         49.5004         42.0004
 -14083064.96549 -10960985.94947  24944992.5914   24944991.9384
      2693.8754       2099.1234         47.2504         36.2504
 00  7  4  2 12  0.0090000  0  7G20G19G16G 1G11G25G22
 -22185637.81649 -17282599.66648  23528170.8254   23528168.0134
      1557.2344       1213.4294         53.2504         45.5004
  -2748503.09449  -2133674.29846  27300649.9114   27300655.1494
      3086.5784       2405.1264         42.5004         22.2504
  -8385387.58649  -6525660.74147  25762301.2474   25762300.6454
      2964.0944       2309.6834         47.0004         30.7504
 -12735484.70749  -9915336.69647  25294331.8494   25294330.5834
      1802.0634       1404.2054         46.0004         37.2504
 -10053507.41049  -7820181.83847  25450674.6774   25450674.7044
     -2785.8124      -2170.7634         49.5004         33.5004
 -15269984.02049 -11875321.42648  24468369.3334   24468367.0794
     -2251.5004      -1754.4164         49.0004         42.0004
 -14163709.45749 -11023825.71647  24929646.6144   24929645.3374
      2682.5784       2090.3214         48.0004         36.0004
 00  7  4  2 12 30.0090000  0  7G20G19G16G 1G11G25G22
 -22232140.97349 -17318835.87848  23519321.4114   23519318.7274
      1543.3134       1202.5814         53.2504         45.5004
  -2841021.82449  -2205766.45246  27283043.9894   27283048.9774
      3081.7974       2401.4004         43.2504         22.5004
  -8474225.09449  -6594884.69147  25745395.7164   25745395.7594
      2958.7504       2305.5194         47.5004         31.0004
 -12789489.17249  -9957418.04747  25284054.8644   25284053.5244
      1798.5634       1401.4774         46.2504         35.5004
  -9969809.86749  -7754963.08847  25466601.2864   25466601.4074
     -2793.5164      -2176.7654         48.7504         33.2504
 -15202299.77749 -11822580.49048  24481248.9974   24481247.2474
     -2260.4374      -1761.3804         51.0004         42.0004
 -14244012.83249 -11086399.66547  24914365.0524   24914364.4464
      2671.2664       2081.5064         48.0004         35.7504
 00  7  4  2 13  0.0090000  0  7G20G19G16G 1G11G25G22
 -22278224.57849 -17354745.16748  23510551.9274   23510549.6454
      1529.0784       1191.4894         53.2504         45.5004
  -2933393.72349  -2277744.21247  27265466.5674   27265470.9934
      3076.6254       2397.3704         43.7504         26.0004
  -8562903.86749  -6663984.96647  25728521.1694   25728520.4624
      2953.2974       2301.2704         47.7504         31.2504
 -12843388.39149  -9999417.39547  25273797.7474   25273797.2244
      1794.8284       1398.5674         47.0004         36.0004
  -9885878.37549  -7689562.03447  25482573.0284   25482573.3104
     -2801.5784      -2183.0484         48.7504         32.7504
 -15134347.27049 -11769630.50648  24494180.3024   24494178.0284
     -2269.5474      -1768.4784         50.7504         41.7504
 -14323972.66049 -11148705.90647  24899148.5284   24899149.0364
      2659.5784       2072.3994         47.7504         36.2504
 00  7  4  2 13 30.0090000  0  7G20G19G16G 1G11G25G22
 -22323881.92249 -17390322.30048  23501863.5134   23501860.8374
      1514.8284       1180.3864         53.2504         45.5004
  -3025612.67649  -2349602.72946  27247917.2554   27247921.6884
      3071.4224       2393.3164         42.7504         22.7504
  -8651416.93449  -6732956.12047  25711676.9114   25711676.6304
      2947.6884       2296.8994         47.2504         31.2504
 -12897177.44149 -10041330.89547  25263562.1924   25263561.7674
      1791.2034       1395.7434         47.7504         36.2504
  -9801711.32849  -7623977.43547  25498589.2864   25498589.9384
     -2809.4224      -2189.1604         48.7504         32.5004
 -15066123.58249 -11716469.22348  24507162.4114   24507160.4814
     -2278.5944      -1775.5284         50.7504         42.0004
 -14403580.60949 -11210737.98147  24883999.9194   24883999.2904
      2647.7504       2063.1824         47.7504         36.2504
 00  7  4  2 14  0.0090000  0  7G20G19G16G 1G11G25G22
 -22369111.55949 -17425566.15548  23493256.6614   23493253.6774
      1500.3754       1169.1234         53.0004         45.2504
  -3117678.03949  -2421341.56646  27230397.3494   27230402.4624
      3066.1094       2389.1764         42.7504         24.0004
  -8739762.85249  -6801797.00447  25694866.0914   25694865.1224
      2941.8284       2292.3344         47.7504         31.7504
 -12950857.18049 -10083159.23447  25253347.1534   25253346.3334
      1787.3444       1392.7354         48.5004         36.5004
  -9717312.62149  -7558212.31247  25514650.4424   25514650.1344
     -2817.2504      -2195.2604         48.0004         32.5004
 -14997631.67249 -11663098.93048  24520196.0364   24520194.1924
     -2287.6414      -1782.5774         51.2504         41.5004
 -14482834.55949 -11272494.21647  24868918.8414   24868917.9074
      2635.7194       2053.8074         48.5004         36.7504
 00  7  4  2 14 30.0090000  0  7G20G19G16G 1G11G25G22
 -22413914.47749 -17460477.50948  23484730.8954   23484728.1184
      1486.3284       1158.1784         53.2504         45.5004
  -3209591.96949  -2492962.48346  27212906.7084   27212911.1734
      3061.1414       2385.3044         44.0004         23.2504
  -8827942.61749  -6870508.44347  25678085.4584   25678084.7164
      2936.5784       2288.2434         47.7504         32.5004
 -13004430.85549 -10124904.91947  25243152.1694   25243152.0874
      1784.0944       1390.2034         48.5004         36.7504
  -9632688.43749  -7492271.51547  25530753.8104   25530753.8884
     -2824.5474      -2200.9464         48.0004         32.7504
 -14928877.21549 -11609524.05948  24533280.1304   24533278.0134
     -2296.1564      -1789.2134         51.7504         41.7504
 -14561734.77749 -11333974.81547  24853903.8884   24853903.3994
      2624.0784       2044.7364         48.0004         36.5004
 00  7  4  2 15  0.0090000  0  7G20G19G16G 1G11G25G22
 -22458281.29749 -17495049.04248  23476288.3644   23476285.6854
      1471.8754       1146.9164         53.5004         45.7504
  -3301345.93049  -2564458.72346  27195445.7864   27195450.7904
      3056.0314       2381.3234         43.0004         24.7504
  -8915946.70749  -6939082.98247  25661338.7084   25661338.1224
      2930.7034       2283.6654         48.2504         31.5004
 -13057890.93749 -10166562.08847  25232979.4034   25232978.5564
      1780.3134       1387.2564         49.5004         36.5004
  -9547834.42649  -7426151.60447  25546901.2004   25546901.4314
     -2832.0624      -2206.8024         48.2504         31.2504
 -14859854.41449 -11555740.08848  24546414.5284   24546412.6344
     -2304.9534      -1796.0674         52.0004         42.2504
 -14640270.57449 -11395171.44447  24838958.9274   24838958.9464
      2612.0004       2035.3254         48.5004         36.7504
 00  7  4  2 15 30.0090000  0  7G20G19G16G 1G11G25G22
 -22502216.03549 -17529283.88948  23467927.8104   23467925.3254
      1457.4224       1135.6534         52.7504         45.5004
  -3392945.09449  -2635834.33446  27178015.5444   27178020.0244
      3050.8594       2377.2934         42.5004         25.2504
  -9003778.75849  -7007523.46247  25644624.8724   25644624.4114
      2925.0314       2279.2454         47.2504         32.2504
 -13111243.84849 -10208135.73347  25222826.5204   25222825.9464
      1776.8444       1384.5544         50.0004         36.5004
  -9462759.91449  -7359859.90347  25563090.4034   25563090.4114
     -2839.2814      -2212.4274         48.5004         30.7504
 -14790572.04749 -11501753.84548  24559598.4274   24559596.1884
     -2313.5784      -1802.7884         51.7504         41.5004
 -14718444.61349 -11456086.18347  24824083.0754   24824082.6384
      2599.9534       2025.9384         48.5004         36.0004
 00  7  4  2 16  0.0090000  0  7G20G19G16G 1G11G25G22
 -22545715.56249 -17563179.61148  23459650.0054   23459647.2824
      1442.4694       1124.0024         53.0004         46.0004
  -3484386.91049  -2707087.39846  27160613.5914   27160617.8174
      3045.2194       2372.8984         41.5004         25.0004
  -9091436.00449  -7075827.75447  25627944.3644   25627943.6654
      2918.6884       2274.3024         47.5004         32.7504
 -13164488.46149 -10249625.02647  25212694.6924   25212693.3494
      1772.7974       1381.4004         49.7504         37.0004
  -9377466.90649  -7293397.92947  25579321.1854   25579321.1264
     -2846.9534      -2218.4054         48.0004         31.5004
 -14721030.48849 -11447565.64248  24572831.5754   24572829.7674
     -2322.6094      -1809.8254         51.5004         41.5004
 -14796252.52349 -11516715.63047  24809276.6534   24809276.3024
      2587.2344       2016.0274         49.5004         36.7504
 00  7  4  2 16 30.0090000  0  7G20G19G16G 1G11G25G22
 -22588771.54349 -17596729.70748  23451456.6854   23451454.2084
      1427.9064       1112.6544         53.7504         46.0004
  -3575664.05549  -2778212.09746  27143243.8954   27143248.5714
      3039.9694       2368.8074         43.0004         25.5004
  -9178909.41849  -7143988.78647  25611298.5674   25611297.7704
      2912.8134       2269.7244         47.2504         32.5004
 -13217618.69149 -10291025.15347  25202583.9424   25202583.5284
      1769.2194       1378.6124         49.5004         36.5004
  -9291952.05549  -7226763.09647  25595594.0134   25595593.5284
     -2853.9844      -2223.8844         48.5004         31.2504
 -14651225.95349 -11393172.51848  24586115.0754   24586112.9544
     -2331.0624      -1816.4124         51.5004         41.2504
 -14873685.05949 -11577052.56547  24794541.6454   24794541.2204
      2574.8914       2006.4084         49.2504         36.7504
 00  7  4  2 17  0.0090000  0  7G20G19G16G 1G11G25G22
 -22631387.19949 -17629936.68748  23443347.1694   23443344.0054
      1413.2034       1101.1974         53.0004         45.5004
  -3666780.77349  -2849211.76146  27125904.3254   27125908.4814
      3034.7194       2364.7164         41.5004         23.5004
  -9266202.39549  -7212009.21647  25594686.8414   25594686.1064
      2906.7974       2265.0374         48.0004         32.7504
 -13270639.93449 -10332340.37347  25192493.9744   25192493.1694
      1765.5314       1375.7394         49.7504         37.0004
  -9206223.61349  -7159961.81647  25611907.6854   25611908.4504
     -2861.1414      -2229.4604         48.0004         31.7504
 -14581165.91849 -11338580.32048  24599446.8804   24599445.2084
     -2339.5474      -1823.0244         51.7504         41.2504
 -14950744.67249 -11637098.92747  24779877.3414   24779876.9814
      2562.4224       1996.6924         49.5004         36.5004
 00  7  4  2 17 30.0090000  0  7G20G19G16G 1G11G25G22
 -22673558.71949 -17662797.58748  23435322.2084   23435319.3174
      1398.4064       1089.6674         53.5004         45.5004
  -3757734.16849  -2920084.22746  27108596.0134   27108600.2944
      3029.1564       2360.3814         42.5004         24.0004
  -9353310.59849  -7279885.67747  25578110.8724   25578110.1104
      2900.5944       2260.2034         47.7504         33.5004
 -13323550.43749 -10373569.27847  25182425.6694   25182424.6494
      1761.9224       1372.9264         49.0004         36.5004
  -9120282.99249  -7092995.21147  25628261.6614   25628261.9384
     -2868.1724      -2234.9394         47.7504         30.7504
 -14510850.22349 -11283788.89148  24612827.7704   24612825.8884
     -2347.9534      -1829.5744         51.7504         41.5004
 -15027426.30149 -11696850.75547  24765285.3724   24765285.0134
      2549.8134       1986.8674         49.5004         36.7504
 00  7  4  2 18  0.0090000  0  7G20G19G16G 1G11G25G22
 -22715281.24649 -17695308.63048  23427382.6224   23427379.6574
      1383.0314       1077.6874         54.2504         45.5004
  -3848520.23049  -2990826.30446  27091320.7164   27091324.4504
      3023.2344       2355.7674         44.5004         24.2504
  -9440229.29749  -7347614.46947  25561570.5444   25561570.1184
      2893.8444       2254.9434         48.0004         33.0004
 -13376347.22349 -10414709.58347  25172379.1384   25172378.1494
      1757.7814       1369.7004         50.2504         37.0004
  -9034130.35949  -7025863.38647  25644655.8724   25644656.6884
     -2875.5004      -2240.6494         48.0004         31.5004
 -14440278.47349 -11228797.94348  24626257.1774   24626255.0324
     -2356.8914      -1836.5384         51.5004         41.2504
 -15103723.35549 -11756302.91147  24750766.2864   24750765.9194
      2536.5784       1976.5544         49.2504         37.0004
 00  7  4  2 18 30.0090000  0  7G20G19G16G 1G11G25G22
 -22756553.44949 -17727468.76348  23419529.1064   23419525.9234
      1368.4064       1066.2914         53.7504         45.7504
  -3939138.73849  -3061437.85446  27074075.7004   27074080.1424
      3018.0164       2351.7004         43.7504         25.2504
  -9526956.64849  -7415194.14447  25545067.4424   25545066.5874
      2887.9064       2250.3174         48.2504         33.2504
 -13429031.17249 -10455761.93847  25162353.7634   25162352.9114
      1754.4844       1367.1314         49.5004         37.2504
  -8947769.77349  -6958569.53447  25661089.8644   25661090.4384
     -2881.9534      -2245.6784         47.2504         31.0004
 -14369453.36749 -11173609.57248  24639734.7784   24639732.5754
     -2364.7974      -1842.6994         51.0004         40.7504
 -15179633.72749 -11815453.74747  24736321.4424   24736320.6814
      2524.0634       1966.8024         49.7504         37.2504
